<?xml version="1.0" encoding="UTF-8" standalone="no" ?>
<gpx xmlns="http://www.topografix.com/GPX/1/1" xmlns:xsi="http://www.w3.org/2001/XMLSchema-instance" xsi:schemaLocation="http://www.topografix.com/GPX/1/1 http://www.topografix.com/GPX/1/1/gpx.xsd" version="1.1" creator="VisuGPX - https://www.visugpx.com">
  <metadata>
    <name>Pic St-Michel, depuis Lans en Vercors</name>
    <desc><![CDATA[depuis le stade de neige de Lans, par les Allières.
Retour par les Allières et le bois des Suifs]]></desc>
  </metadata>
  <trk>
    <name><![CDATA[03/03/2013 8:55]]></name>
    <desc><![CDATA[]]></desc>
    <trkseg>
      <trkpt lat="45.12414" lon="5.59215">
        <ele>1018</ele>
        <time>2013-03-03T07:55:26.000Z</time>
      </trkpt>
      <trkpt lat="45.12414" lon="5.59215">
        <ele>1018</ele>
        <time>2013-03-03T07:55:26.000Z</time>
      </trkpt>
      <trkpt lat="45.12414" lon="5.59215">
        <ele>1018</ele>
        <time>2013-03-03T07:55:36.000Z</time>
      </trkpt>
      <trkpt lat="45.12414" lon="5.59222">
        <ele>1018</ele>
        <time>2013-03-03T07:56:31.000Z</time>
      </trkpt>
      <trkpt lat="45.12418" lon="5.59227">
        <ele>1018</ele>
        <time>2013-03-03T07:56:38.000Z</time>
      </trkpt>
      <trkpt lat="45.1242" lon="5.59235">
        <ele>1018</ele>
        <time>2013-03-03T07:56:42.000Z</time>
      </trkpt>
      <trkpt lat="45.12419" lon="5.59242">
        <ele>1018</ele>
        <time>2013-03-03T07:56:46.000Z</time>
      </trkpt>
      <trkpt lat="45.12415" lon="5.59246">
        <ele>1018</ele>
        <time>2013-03-03T07:56:51.000Z</time>
      </trkpt>
      <trkpt lat="45.12411" lon="5.5925">
        <ele>1019</ele>
        <time>2013-03-03T07:56:55.000Z</time>
      </trkpt>
      <trkpt lat="45.12406" lon="5.59252">
        <ele>1019</ele>
        <time>2013-03-03T07:57:00.000Z</time>
      </trkpt>
      <trkpt lat="45.12403" lon="5.59258">
        <ele>1020</ele>
        <time>2013-03-03T07:57:39.000Z</time>
      </trkpt>
      <trkpt lat="45.12404" lon="5.59251">
        <ele>1020</ele>
        <time>2013-03-03T07:58:00.000Z</time>
      </trkpt>
      <trkpt lat="45.12404" lon="5.59245">
        <ele>1018</ele>
        <time>2013-03-03T07:58:32.000Z</time>
      </trkpt>
      <trkpt lat="45.12404" lon="5.59245">
        <ele>1018</ele>
        <time>2013-03-03T07:58:32.000Z</time>
      </trkpt>
      <trkpt lat="45.12404" lon="5.59245">
        <ele>1018</ele>
        <time>2013-03-03T07:59:01.000Z</time>
      </trkpt>
      <trkpt lat="45.12402" lon="5.59251">
        <ele>1020</ele>
        <time>2013-03-03T07:59:13.000Z</time>
      </trkpt>
      <trkpt lat="45.12407" lon="5.59252">
        <ele>1019</ele>
        <time>2013-03-03T08:00:36.000Z</time>
      </trkpt>
      <trkpt lat="45.12402" lon="5.5925">
        <ele>1020</ele>
        <time>2013-03-03T08:04:38.000Z</time>
      </trkpt>
      <trkpt lat="45.12399" lon="5.59258">
        <ele>1020</ele>
        <time>2013-03-03T08:04:41.000Z</time>
      </trkpt>
      <trkpt lat="45.12397" lon="5.59264">
        <ele>1021</ele>
        <time>2013-03-03T08:04:43.000Z</time>
      </trkpt>
      <trkpt lat="45.12395" lon="5.59272">
        <ele>1021</ele>
        <time>2013-03-03T08:04:45.000Z</time>
      </trkpt>
      <trkpt lat="45.1239" lon="5.59271">
        <ele>1021</ele>
        <time>2013-03-03T08:04:50.000Z</time>
      </trkpt>
      <trkpt lat="45.12384" lon="5.59271">
        <ele>1022</ele>
        <time>2013-03-03T08:05:13.000Z</time>
      </trkpt>
      <trkpt lat="45.12379" lon="5.59275">
        <ele>1022</ele>
        <time>2013-03-03T08:05:18.000Z</time>
      </trkpt>
      <trkpt lat="45.12375" lon="5.59279">
        <ele>1022</ele>
        <time>2013-03-03T08:05:27.000Z</time>
      </trkpt>
      <trkpt lat="45.12372" lon="5.59283">
        <ele>1022</ele>
        <time>2013-03-03T08:05:32.000Z</time>
      </trkpt>
      <trkpt lat="45.12369" lon="5.5929">
        <ele>1023</ele>
        <time>2013-03-03T08:05:37.000Z</time>
      </trkpt>
      <trkpt lat="45.12365" lon="5.59294">
        <ele>1023</ele>
        <time>2013-03-03T08:05:43.000Z</time>
      </trkpt>
      <trkpt lat="45.1236" lon="5.59298">
        <ele>1024</ele>
        <time>2013-03-03T08:05:48.000Z</time>
      </trkpt>
      <trkpt lat="45.12356" lon="5.59302">
        <ele>1024</ele>
        <time>2013-03-03T08:05:56.000Z</time>
      </trkpt>
      <trkpt lat="45.12356" lon="5.5931">
        <ele>1025</ele>
        <time>2013-03-03T08:06:00.000Z</time>
      </trkpt>
      <trkpt lat="45.12352" lon="5.59313">
        <ele>1025</ele>
        <time>2013-03-03T08:06:05.000Z</time>
      </trkpt>
      <trkpt lat="45.12347" lon="5.59317">
        <ele>1026</ele>
        <time>2013-03-03T08:06:15.000Z</time>
      </trkpt>
      <trkpt lat="45.12343" lon="5.59321">
        <ele>1027</ele>
        <time>2013-03-03T08:06:21.000Z</time>
      </trkpt>
      <trkpt lat="45.12338" lon="5.59321">
        <ele>1027</ele>
        <time>2013-03-03T08:06:30.000Z</time>
      </trkpt>
      <trkpt lat="45.12334" lon="5.59326">
        <ele>1029</ele>
        <time>2013-03-03T08:06:33.000Z</time>
      </trkpt>
      <trkpt lat="45.12332" lon="5.59333">
        <ele>1031</ele>
        <time>2013-03-03T08:06:36.000Z</time>
      </trkpt>
      <trkpt lat="45.12327" lon="5.59334">
        <ele>1035</ele>
        <time>2013-03-03T08:06:44.000Z</time>
      </trkpt>
      <trkpt lat="45.12327" lon="5.59334">
        <ele>1035</ele>
        <time>2013-03-03T08:06:44.000Z</time>
      </trkpt>
      <trkpt lat="45.12327" lon="5.59334">
        <ele>1035</ele>
        <time>2013-03-03T08:06:45.000Z</time>
      </trkpt>
      <trkpt lat="45.12325" lon="5.59341">
        <ele>1038</ele>
        <time>2013-03-03T08:06:56.000Z</time>
      </trkpt>
      <trkpt lat="45.12323" lon="5.59347">
        <ele>1041</ele>
        <time>2013-03-03T08:07:01.000Z</time>
      </trkpt>
      <trkpt lat="45.12321" lon="5.59354">
        <ele>1043</ele>
        <time>2013-03-03T08:07:04.000Z</time>
      </trkpt>
      <trkpt lat="45.12319" lon="5.5936">
        <ele>1044</ele>
        <time>2013-03-03T08:07:13.000Z</time>
      </trkpt>
      <trkpt lat="45.12319" lon="5.5936">
        <ele>1044</ele>
        <time>2013-03-03T08:07:13.000Z</time>
      </trkpt>
      <trkpt lat="45.12319" lon="5.5936">
        <ele>1044</ele>
        <time>2013-03-03T08:07:14.000Z</time>
      </trkpt>
      <trkpt lat="45.12315" lon="5.59366">
        <ele>1046</ele>
        <time>2013-03-03T08:07:20.000Z</time>
      </trkpt>
      <trkpt lat="45.12311" lon="5.59371">
        <ele>1047</ele>
        <time>2013-03-03T08:07:29.000Z</time>
      </trkpt>
      <trkpt lat="45.12309" lon="5.59377">
        <ele>1048</ele>
        <time>2013-03-03T08:07:41.000Z</time>
      </trkpt>
      <trkpt lat="45.12306" lon="5.59383">
        <ele>1049</ele>
        <time>2013-03-03T08:07:48.000Z</time>
      </trkpt>
      <trkpt lat="45.12304" lon="5.5939">
        <ele>1050</ele>
        <time>2013-03-03T08:08:08.000Z</time>
      </trkpt>
      <trkpt lat="45.12301" lon="5.59394">
        <ele>1051</ele>
        <time>2013-03-03T08:08:12.000Z</time>
      </trkpt>
      <trkpt lat="45.12301" lon="5.59394">
        <ele>1051</ele>
        <time>2013-03-03T08:08:12.000Z</time>
      </trkpt>
      <trkpt lat="45.12301" lon="5.59394">
        <ele>1051</ele>
        <time>2013-03-03T08:08:13.000Z</time>
      </trkpt>
      <trkpt lat="45.12297" lon="5.594">
        <ele>1052</ele>
        <time>2013-03-03T08:08:24.000Z</time>
      </trkpt>
      <trkpt lat="45.12297" lon="5.594">
        <ele>1052</ele>
        <time>2013-03-03T08:08:24.000Z</time>
      </trkpt>
      <trkpt lat="45.12297" lon="5.594">
        <ele>1052</ele>
        <time>2013-03-03T08:08:25.000Z</time>
      </trkpt>
      <trkpt lat="45.12295" lon="5.59407">
        <ele>1053</ele>
        <time>2013-03-03T08:08:31.000Z</time>
      </trkpt>
      <trkpt lat="45.12291" lon="5.59411">
        <ele>1054</ele>
        <time>2013-03-03T08:08:59.000Z</time>
      </trkpt>
      <trkpt lat="45.12287" lon="5.59415">
        <ele>1056</ele>
        <time>2013-03-03T08:09:04.000Z</time>
      </trkpt>
      <trkpt lat="45.12282" lon="5.59413">
        <ele>1057</ele>
        <time>2013-03-03T08:09:11.000Z</time>
      </trkpt>
      <trkpt lat="45.12276" lon="5.59412">
        <ele>1059</ele>
        <time>2013-03-03T08:09:18.000Z</time>
      </trkpt>
      <trkpt lat="45.12272" lon="5.5941">
        <ele>1060</ele>
        <time>2013-03-03T08:09:26.000Z</time>
      </trkpt>
      <trkpt lat="45.12267" lon="5.59407">
        <ele>1062</ele>
        <time>2013-03-03T08:09:35.000Z</time>
      </trkpt>
      <trkpt lat="45.12263" lon="5.59405">
        <ele>1063</ele>
        <time>2013-03-03T08:09:50.000Z</time>
      </trkpt>
      <trkpt lat="45.12258" lon="5.59402">
        <ele>1064</ele>
        <time>2013-03-03T08:09:59.000Z</time>
      </trkpt>
      <trkpt lat="45.12253" lon="5.59401">
        <ele>1064</ele>
        <time>2013-03-03T08:10:11.000Z</time>
      </trkpt>
      <trkpt lat="45.12249" lon="5.59397">
        <ele>1080</ele>
        <time>2013-03-03T08:10:19.000Z</time>
      </trkpt>
      <trkpt lat="45.12245" lon="5.59393">
        <ele>1080</ele>
        <time>2013-03-03T08:10:27.000Z</time>
      </trkpt>
      <trkpt lat="45.1224" lon="5.59391">
        <ele>1081</ele>
        <time>2013-03-03T08:10:35.000Z</time>
      </trkpt>
      <trkpt lat="45.12237" lon="5.59388">
        <ele>1081</ele>
        <time>2013-03-03T08:10:41.000Z</time>
      </trkpt>
      <trkpt lat="45.12232" lon="5.59384">
        <ele>1081</ele>
        <time>2013-03-03T08:10:51.000Z</time>
      </trkpt>
      <trkpt lat="45.12229" lon="5.5938">
        <ele>1081</ele>
        <time>2013-03-03T08:11:02.000Z</time>
      </trkpt>
      <trkpt lat="45.12224" lon="5.59378">
        <ele>1082</ele>
        <time>2013-03-03T08:11:13.000Z</time>
      </trkpt>
      <trkpt lat="45.12219" lon="5.59374">
        <ele>1083</ele>
        <time>2013-03-03T08:11:22.000Z</time>
      </trkpt>
      <trkpt lat="45.12219" lon="5.59374">
        <ele>1083</ele>
        <time>2013-03-03T08:11:22.000Z</time>
      </trkpt>
      <trkpt lat="45.12219" lon="5.59374">
        <ele>1083</ele>
        <time>2013-03-03T08:11:23.000Z</time>
      </trkpt>
      <trkpt lat="45.12215" lon="5.59371">
        <ele>1083</ele>
        <time>2013-03-03T08:11:31.000Z</time>
      </trkpt>
      <trkpt lat="45.12211" lon="5.59367">
        <ele>1084</ele>
        <time>2013-03-03T08:11:39.000Z</time>
      </trkpt>
      <trkpt lat="45.12207" lon="5.59363">
        <ele>1084</ele>
        <time>2013-03-03T08:11:48.000Z</time>
      </trkpt>
      <trkpt lat="45.12202" lon="5.59361">
        <ele>1085</ele>
        <time>2013-03-03T08:11:55.000Z</time>
      </trkpt>
      <trkpt lat="45.12198" lon="5.59358">
        <ele>1086</ele>
        <time>2013-03-03T08:12:04.000Z</time>
      </trkpt>
      <trkpt lat="45.12193" lon="5.59356">
        <ele>1087</ele>
        <time>2013-03-03T08:12:11.000Z</time>
      </trkpt>
      <trkpt lat="45.12189" lon="5.59352">
        <ele>1088</ele>
        <time>2013-03-03T08:12:18.000Z</time>
      </trkpt>
      <trkpt lat="45.12185" lon="5.59348">
        <ele>1088</ele>
        <time>2013-03-03T08:12:23.000Z</time>
      </trkpt>
      <trkpt lat="45.12181" lon="5.59346">
        <ele>1089</ele>
        <time>2013-03-03T08:12:31.000Z</time>
      </trkpt>
      <trkpt lat="45.12177" lon="5.59342">
        <ele>1090</ele>
        <time>2013-03-03T08:12:38.000Z</time>
      </trkpt>
      <trkpt lat="45.12172" lon="5.59339">
        <ele>1092</ele>
        <time>2013-03-03T08:12:47.000Z</time>
      </trkpt>
      <trkpt lat="45.12168" lon="5.59334">
        <ele>1093</ele>
        <time>2013-03-03T08:12:53.000Z</time>
      </trkpt>
      <trkpt lat="45.12163" lon="5.59331">
        <ele>1094</ele>
        <time>2013-03-03T08:13:03.000Z</time>
      </trkpt>
      <trkpt lat="45.12159" lon="5.59327">
        <ele>1094</ele>
        <time>2013-03-03T08:13:10.000Z</time>
      </trkpt>
      <trkpt lat="45.12154" lon="5.59326">
        <ele>1094</ele>
        <time>2013-03-03T08:13:18.000Z</time>
      </trkpt>
      <trkpt lat="45.12154" lon="5.59326">
        <ele>1094</ele>
        <time>2013-03-03T08:13:18.000Z</time>
      </trkpt>
      <trkpt lat="45.12154" lon="5.59326">
        <ele>1094</ele>
        <time>2013-03-03T08:13:21.000Z</time>
      </trkpt>
      <trkpt lat="45.1215" lon="5.59322">
        <ele>1094</ele>
        <time>2013-03-03T08:13:31.000Z</time>
      </trkpt>
      <trkpt lat="45.12147" lon="5.59318">
        <ele>1094</ele>
        <time>2013-03-03T08:13:38.000Z</time>
      </trkpt>
      <trkpt lat="45.12143" lon="5.59315">
        <ele>1094</ele>
        <time>2013-03-03T08:13:44.000Z</time>
      </trkpt>
      <trkpt lat="45.12139" lon="5.5931">
        <ele>1094</ele>
        <time>2013-03-03T08:13:52.000Z</time>
      </trkpt>
      <trkpt lat="45.12139" lon="5.5931">
        <ele>1094</ele>
        <time>2013-03-03T08:13:52.000Z</time>
      </trkpt>
      <trkpt lat="45.12139" lon="5.5931">
        <ele>1094</ele>
        <time>2013-03-03T08:13:54.000Z</time>
      </trkpt>
      <trkpt lat="45.12134" lon="5.59309">
        <ele>1095</ele>
        <time>2013-03-03T08:14:00.000Z</time>
      </trkpt>
      <trkpt lat="45.12131" lon="5.59304">
        <ele>1095</ele>
        <time>2013-03-03T08:14:10.000Z</time>
      </trkpt>
      <trkpt lat="45.12127" lon="5.593">
        <ele>1095</ele>
        <time>2013-03-03T08:14:20.000Z</time>
      </trkpt>
      <trkpt lat="45.12122" lon="5.59297">
        <ele>1095</ele>
        <time>2013-03-03T08:14:27.000Z</time>
      </trkpt>
      <trkpt lat="45.12118" lon="5.59295">
        <ele>1096</ele>
        <time>2013-03-03T08:14:34.000Z</time>
      </trkpt>
      <trkpt lat="45.12114" lon="5.59292">
        <ele>1096</ele>
        <time>2013-03-03T08:14:42.000Z</time>
      </trkpt>
      <trkpt lat="45.1211" lon="5.59288">
        <ele>1096</ele>
        <time>2013-03-03T08:14:49.000Z</time>
      </trkpt>
      <trkpt lat="45.12106" lon="5.59284">
        <ele>1096</ele>
        <time>2013-03-03T08:14:57.000Z</time>
      </trkpt>
      <trkpt lat="45.12102" lon="5.59281">
        <ele>1096</ele>
        <time>2013-03-03T08:15:05.000Z</time>
      </trkpt>
      <trkpt lat="45.12097" lon="5.59278">
        <ele>1096</ele>
        <time>2013-03-03T08:15:13.000Z</time>
      </trkpt>
      <trkpt lat="45.12092" lon="5.59275">
        <ele>1096</ele>
        <time>2013-03-03T08:15:22.000Z</time>
      </trkpt>
      <trkpt lat="45.12087" lon="5.59274">
        <ele>1097</ele>
        <time>2013-03-03T08:15:30.000Z</time>
      </trkpt>
      <trkpt lat="45.12082" lon="5.59272">
        <ele>1106</ele>
        <time>2013-03-03T08:15:39.000Z</time>
      </trkpt>
      <trkpt lat="45.12077" lon="5.59273">
        <ele>1107</ele>
        <time>2013-03-03T08:15:50.000Z</time>
      </trkpt>
      <trkpt lat="45.12078" lon="5.59279">
        <ele>1108</ele>
        <time>2013-03-03T08:15:56.000Z</time>
      </trkpt>
      <trkpt lat="45.12076" lon="5.59284">
        <ele>1109</ele>
        <time>2013-03-03T08:16:09.000Z</time>
      </trkpt>
      <trkpt lat="45.12074" lon="5.59291">
        <ele>1111</ele>
        <time>2013-03-03T08:16:20.000Z</time>
      </trkpt>
      <trkpt lat="45.1207" lon="5.59297">
        <ele>1112</ele>
        <time>2013-03-03T08:16:34.000Z</time>
      </trkpt>
      <trkpt lat="45.12068" lon="5.59302">
        <ele>1113</ele>
        <time>2013-03-03T08:16:43.000Z</time>
      </trkpt>
      <trkpt lat="45.12064" lon="5.59307">
        <ele>1113</ele>
        <time>2013-03-03T08:16:51.000Z</time>
      </trkpt>
      <trkpt lat="45.12064" lon="5.59307">
        <ele>1113</ele>
        <time>2013-03-03T08:16:51.000Z</time>
      </trkpt>
      <trkpt lat="45.12064" lon="5.59307">
        <ele>1113</ele>
        <time>2013-03-03T08:16:52.000Z</time>
      </trkpt>
      <trkpt lat="45.12063" lon="5.59313">
        <ele>1114</ele>
        <time>2013-03-03T08:17:25.000Z</time>
      </trkpt>
      <trkpt lat="45.12059" lon="5.59318">
        <ele>1115</ele>
        <time>2013-03-03T08:17:33.000Z</time>
      </trkpt>
      <trkpt lat="45.12054" lon="5.5932">
        <ele>1115</ele>
        <time>2013-03-03T08:17:42.000Z</time>
      </trkpt>
      <trkpt lat="45.12051" lon="5.59326">
        <ele>1115</ele>
        <time>2013-03-03T08:17:50.000Z</time>
      </trkpt>
      <trkpt lat="45.12047" lon="5.5933">
        <ele>1116</ele>
        <time>2013-03-03T08:17:58.000Z</time>
      </trkpt>
      <trkpt lat="45.12047" lon="5.5933">
        <ele>1116</ele>
        <time>2013-03-03T08:17:58.000Z</time>
      </trkpt>
      <trkpt lat="45.12047" lon="5.5933">
        <ele>1116</ele>
        <time>2013-03-03T08:17:59.000Z</time>
      </trkpt>
      <trkpt lat="45.12045" lon="5.59336">
        <ele>1133</ele>
        <time>2013-03-03T08:18:05.000Z</time>
      </trkpt>
      <trkpt lat="45.12042" lon="5.5934">
        <ele>1133</ele>
        <time>2013-03-03T08:18:13.000Z</time>
      </trkpt>
      <trkpt lat="45.12038" lon="5.59344">
        <ele>1134</ele>
        <time>2013-03-03T08:18:30.000Z</time>
      </trkpt>
      <trkpt lat="45.12038" lon="5.59344">
        <ele>1134</ele>
        <time>2013-03-03T08:18:30.000Z</time>
      </trkpt>
      <trkpt lat="45.12038" lon="5.59344">
        <ele>1134</ele>
        <time>2013-03-03T08:18:33.000Z</time>
      </trkpt>
      <trkpt lat="45.12041" lon="5.59348">
        <ele>1134</ele>
        <time>2013-03-03T08:18:47.000Z</time>
      </trkpt>
      <trkpt lat="45.12045" lon="5.59354">
        <ele>1135</ele>
        <time>2013-03-03T08:19:00.000Z</time>
      </trkpt>
      <trkpt lat="45.12048" lon="5.59358">
        <ele>1135</ele>
        <time>2013-03-03T08:19:11.000Z</time>
      </trkpt>
      <trkpt lat="45.12044" lon="5.59361">
        <ele>1136</ele>
        <time>2013-03-03T08:19:27.000Z</time>
      </trkpt>
      <trkpt lat="45.12039" lon="5.5936">
        <ele>1136</ele>
        <time>2013-03-03T08:19:34.000Z</time>
      </trkpt>
      <trkpt lat="45.12034" lon="5.59356">
        <ele>1136</ele>
        <time>2013-03-03T08:19:43.000Z</time>
      </trkpt>
      <trkpt lat="45.12029" lon="5.59355">
        <ele>1136</ele>
        <time>2013-03-03T08:19:51.000Z</time>
      </trkpt>
      <trkpt lat="45.12031" lon="5.59361">
        <ele>1137</ele>
        <time>2013-03-03T08:20:41.000Z</time>
      </trkpt>
      <trkpt lat="45.12033" lon="5.59367">
        <ele>1138</ele>
        <time>2013-03-03T08:20:47.000Z</time>
      </trkpt>
      <trkpt lat="45.12038" lon="5.5937">
        <ele>1138</ele>
        <time>2013-03-03T08:20:58.000Z</time>
      </trkpt>
      <trkpt lat="45.12042" lon="5.59375">
        <ele>1138</ele>
        <time>2013-03-03T08:21:09.000Z</time>
      </trkpt>
      <trkpt lat="45.12046" lon="5.59377">
        <ele>1138</ele>
        <time>2013-03-03T08:21:26.000Z</time>
      </trkpt>
      <trkpt lat="45.1205" lon="5.59382">
        <ele>1139</ele>
        <time>2013-03-03T08:21:39.000Z</time>
      </trkpt>
      <trkpt lat="45.1205" lon="5.59382">
        <ele>1139</ele>
        <time>2013-03-03T08:21:39.000Z</time>
      </trkpt>
      <trkpt lat="45.1205" lon="5.59382">
        <ele>1139</ele>
        <time>2013-03-03T08:21:40.000Z</time>
      </trkpt>
      <trkpt lat="45.12052" lon="5.59389">
        <ele>1140</ele>
        <time>2013-03-03T08:21:55.000Z</time>
      </trkpt>
      <trkpt lat="45.12054" lon="5.59395">
        <ele>1141</ele>
        <time>2013-03-03T08:22:27.000Z</time>
      </trkpt>
      <trkpt lat="45.12054" lon="5.59395">
        <ele>1141</ele>
        <time>2013-03-03T08:22:27.000Z</time>
      </trkpt>
      <trkpt lat="45.12054" lon="5.59395">
        <ele>1141</ele>
        <time>2013-03-03T08:22:28.000Z</time>
      </trkpt>
      <trkpt lat="45.12059" lon="5.59399">
        <ele>1141</ele>
        <time>2013-03-03T08:22:42.000Z</time>
      </trkpt>
      <trkpt lat="45.12064" lon="5.59404">
        <ele>1141</ele>
        <time>2013-03-03T08:22:45.000Z</time>
      </trkpt>
      <trkpt lat="45.12066" lon="5.59411">
        <ele>1142</ele>
        <time>2013-03-03T08:22:50.000Z</time>
      </trkpt>
      <trkpt lat="45.12069" lon="5.59415">
        <ele>1142</ele>
        <time>2013-03-03T08:22:59.000Z</time>
      </trkpt>
      <trkpt lat="45.12069" lon="5.59422">
        <ele>1154</ele>
        <time>2013-03-03T08:23:07.000Z</time>
      </trkpt>
      <trkpt lat="45.12072" lon="5.59428">
        <ele>1154</ele>
        <time>2013-03-03T08:23:25.000Z</time>
      </trkpt>
      <trkpt lat="45.12075" lon="5.59433">
        <ele>1156</ele>
        <time>2013-03-03T08:23:33.000Z</time>
      </trkpt>
      <trkpt lat="45.12078" lon="5.59438">
        <ele>1157</ele>
        <time>2013-03-03T08:23:40.000Z</time>
      </trkpt>
      <trkpt lat="45.1208" lon="5.59445">
        <ele>1160</ele>
        <time>2013-03-03T08:23:46.000Z</time>
      </trkpt>
      <trkpt lat="45.12077" lon="5.59451">
        <ele>1162</ele>
        <time>2013-03-03T08:23:59.000Z</time>
      </trkpt>
      <trkpt lat="45.12074" lon="5.59456">
        <ele>1163</ele>
        <time>2013-03-03T08:24:10.000Z</time>
      </trkpt>
      <trkpt lat="45.12069" lon="5.59459">
        <ele>1164</ele>
        <time>2013-03-03T08:24:19.000Z</time>
      </trkpt>
      <trkpt lat="45.12065" lon="5.59464">
        <ele>1166</ele>
        <time>2013-03-03T08:24:32.000Z</time>
      </trkpt>
      <trkpt lat="45.12061" lon="5.59467">
        <ele>1167</ele>
        <time>2013-03-03T08:24:43.000Z</time>
      </trkpt>
      <trkpt lat="45.12061" lon="5.59467">
        <ele>1167</ele>
        <time>2013-03-03T08:24:43.000Z</time>
      </trkpt>
      <trkpt lat="45.12061" lon="5.59467">
        <ele>1167</ele>
        <time>2013-03-03T08:24:45.000Z</time>
      </trkpt>
      <trkpt lat="45.12055" lon="5.59467">
        <ele>1167</ele>
        <time>2013-03-03T08:24:52.000Z</time>
      </trkpt>
      <trkpt lat="45.12051" lon="5.59467">
        <ele>1168</ele>
        <time>2013-03-03T08:25:01.000Z</time>
      </trkpt>
      <trkpt lat="45.12046" lon="5.59468">
        <ele>1168</ele>
        <time>2013-03-03T08:25:11.000Z</time>
      </trkpt>
      <trkpt lat="45.12041" lon="5.59469">
        <ele>1169</ele>
        <time>2013-03-03T08:25:20.000Z</time>
      </trkpt>
      <trkpt lat="45.12038" lon="5.59474">
        <ele>1171</ele>
        <time>2013-03-03T08:25:29.000Z</time>
      </trkpt>
      <trkpt lat="45.12038" lon="5.59474">
        <ele>1171</ele>
        <time>2013-03-03T08:25:29.000Z</time>
      </trkpt>
      <trkpt lat="45.12038" lon="5.59474">
        <ele>1171</ele>
        <time>2013-03-03T08:25:31.000Z</time>
      </trkpt>
      <trkpt lat="45.12033" lon="5.59477">
        <ele>1172</ele>
        <time>2013-03-03T08:25:41.000Z</time>
      </trkpt>
      <trkpt lat="45.1203" lon="5.59481">
        <ele>1173</ele>
        <time>2013-03-03T08:25:49.000Z</time>
      </trkpt>
      <trkpt lat="45.1203" lon="5.59481">
        <ele>1173</ele>
        <time>2013-03-03T08:25:49.000Z</time>
      </trkpt>
      <trkpt lat="45.1203" lon="5.59481">
        <ele>1173</ele>
        <time>2013-03-03T08:25:50.000Z</time>
      </trkpt>
      <trkpt lat="45.12027" lon="5.59486">
        <ele>1175</ele>
        <time>2013-03-03T08:25:57.000Z</time>
      </trkpt>
      <trkpt lat="45.12024" lon="5.59491">
        <ele>1177</ele>
        <time>2013-03-03T08:26:08.000Z</time>
      </trkpt>
      <trkpt lat="45.12024" lon="5.59491">
        <ele>1177</ele>
        <time>2013-03-03T08:26:08.000Z</time>
      </trkpt>
      <trkpt lat="45.12024" lon="5.59491">
        <ele>1177</ele>
        <time>2013-03-03T08:26:09.000Z</time>
      </trkpt>
      <trkpt lat="45.12021" lon="5.59497">
        <ele>1179</ele>
        <time>2013-03-03T08:26:21.000Z</time>
      </trkpt>
      <trkpt lat="45.1202" lon="5.59504">
        <ele>1192</ele>
        <time>2013-03-03T08:26:37.000Z</time>
      </trkpt>
      <trkpt lat="45.12017" lon="5.5951">
        <ele>1192</ele>
        <time>2013-03-03T08:26:46.000Z</time>
      </trkpt>
      <trkpt lat="45.12012" lon="5.59514">
        <ele>1193</ele>
        <time>2013-03-03T08:26:55.000Z</time>
      </trkpt>
      <trkpt lat="45.12009" lon="5.5952">
        <ele>1193</ele>
        <time>2013-03-03T08:27:07.000Z</time>
      </trkpt>
      <trkpt lat="45.12006" lon="5.59524">
        <ele>1194</ele>
        <time>2013-03-03T08:27:18.000Z</time>
      </trkpt>
      <trkpt lat="45.12006" lon="5.59524">
        <ele>1194</ele>
        <time>2013-03-03T08:27:18.000Z</time>
      </trkpt>
      <trkpt lat="45.12006" lon="5.59524">
        <ele>1194</ele>
        <time>2013-03-03T08:27:19.000Z</time>
      </trkpt>
      <trkpt lat="45.12002" lon="5.59528">
        <ele>1195</ele>
        <time>2013-03-03T08:27:40.000Z</time>
      </trkpt>
      <trkpt lat="45.11998" lon="5.59533">
        <ele>1211</ele>
        <time>2013-03-03T08:27:49.000Z</time>
      </trkpt>
      <trkpt lat="45.11994" lon="5.59536">
        <ele>1212</ele>
        <time>2013-03-03T08:28:02.000Z</time>
      </trkpt>
      <trkpt lat="45.11994" lon="5.59536">
        <ele>1212</ele>
        <time>2013-03-03T08:28:02.000Z</time>
      </trkpt>
      <trkpt lat="45.11994" lon="5.59536">
        <ele>1212</ele>
        <time>2013-03-03T08:28:05.000Z</time>
      </trkpt>
      <trkpt lat="45.1199" lon="5.59542">
        <ele>1213</ele>
        <time>2013-03-03T08:28:18.000Z</time>
      </trkpt>
      <trkpt lat="45.1199" lon="5.59542">
        <ele>1213</ele>
        <time>2013-03-03T08:28:18.000Z</time>
      </trkpt>
      <trkpt lat="45.1199" lon="5.59542">
        <ele>1213</ele>
        <time>2013-03-03T08:28:24.000Z</time>
      </trkpt>
      <trkpt lat="45.11986" lon="5.59545">
        <ele>1214</ele>
        <time>2013-03-03T08:28:35.000Z</time>
      </trkpt>
      <trkpt lat="45.11983" lon="5.5955">
        <ele>1215</ele>
        <time>2013-03-03T08:28:44.000Z</time>
      </trkpt>
      <trkpt lat="45.11983" lon="5.5955">
        <ele>1215</ele>
        <time>2013-03-03T08:28:44.000Z</time>
      </trkpt>
      <trkpt lat="45.11983" lon="5.5955">
        <ele>1215</ele>
        <time>2013-03-03T08:28:46.000Z</time>
      </trkpt>
      <trkpt lat="45.1198" lon="5.59555">
        <ele>1216</ele>
        <time>2013-03-03T08:29:03.000Z</time>
      </trkpt>
      <trkpt lat="45.11976" lon="5.59558">
        <ele>1217</ele>
        <time>2013-03-03T08:29:12.000Z</time>
      </trkpt>
      <trkpt lat="45.11971" lon="5.59562">
        <ele>1218</ele>
        <time>2013-03-03T08:29:21.000Z</time>
      </trkpt>
      <trkpt lat="45.11971" lon="5.59562">
        <ele>1218</ele>
        <time>2013-03-03T08:29:21.000Z</time>
      </trkpt>
      <trkpt lat="45.11971" lon="5.59562">
        <ele>1218</ele>
        <time>2013-03-03T08:29:22.000Z</time>
      </trkpt>
      <trkpt lat="45.11968" lon="5.59567">
        <ele>1219</ele>
        <time>2013-03-03T08:29:36.000Z</time>
      </trkpt>
      <trkpt lat="45.11964" lon="5.59569">
        <ele>1220</ele>
        <time>2013-03-03T08:29:51.000Z</time>
      </trkpt>
      <trkpt lat="45.11959" lon="5.59572">
        <ele>1221</ele>
        <time>2013-03-03T08:30:02.000Z</time>
      </trkpt>
      <trkpt lat="45.11955" lon="5.59575">
        <ele>1222</ele>
        <time>2013-03-03T08:30:08.000Z</time>
      </trkpt>
      <trkpt lat="45.1195" lon="5.59577">
        <ele>1224</ele>
        <time>2013-03-03T08:30:27.000Z</time>
      </trkpt>
      <trkpt lat="45.11945" lon="5.59578">
        <ele>1225</ele>
        <time>2013-03-03T08:30:34.000Z</time>
      </trkpt>
      <trkpt lat="45.11942" lon="5.59585">
        <ele>1238</ele>
        <time>2013-03-03T08:31:00.000Z</time>
      </trkpt>
      <trkpt lat="45.1194" lon="5.59591">
        <ele>1238</ele>
        <time>2013-03-03T08:31:11.000Z</time>
      </trkpt>
      <trkpt lat="45.11937" lon="5.59597">
        <ele>1239</ele>
        <time>2013-03-03T08:31:23.000Z</time>
      </trkpt>
      <trkpt lat="45.11933" lon="5.596">
        <ele>1239</ele>
        <time>2013-03-03T08:31:31.000Z</time>
      </trkpt>
      <trkpt lat="45.11929" lon="5.59604">
        <ele>1240</ele>
        <time>2013-03-03T08:31:42.000Z</time>
      </trkpt>
      <trkpt lat="45.11928" lon="5.59613">
        <ele>1240</ele>
        <time>2013-03-03T08:31:45.000Z</time>
      </trkpt>
      <trkpt lat="45.11924" lon="5.59608">
        <ele>1240</ele>
        <time>2013-03-03T08:31:50.000Z</time>
      </trkpt>
      <trkpt lat="45.11922" lon="5.59614">
        <ele>1241</ele>
        <time>2013-03-03T08:32:30.000Z</time>
      </trkpt>
      <trkpt lat="45.11918" lon="5.59618">
        <ele>1242</ele>
        <time>2013-03-03T08:34:15.000Z</time>
      </trkpt>
      <trkpt lat="45.11917" lon="5.59625">
        <ele>1243</ele>
        <time>2013-03-03T08:35:09.000Z</time>
      </trkpt>
      <trkpt lat="45.11915" lon="5.5963">
        <ele>1257</ele>
        <time>2013-03-03T08:35:24.000Z</time>
      </trkpt>
      <trkpt lat="45.11912" lon="5.59635">
        <ele>1258</ele>
        <time>2013-03-03T08:35:36.000Z</time>
      </trkpt>
      <trkpt lat="45.11911" lon="5.59642">
        <ele>1259</ele>
        <time>2013-03-03T08:35:54.000Z</time>
      </trkpt>
      <trkpt lat="45.1191" lon="5.59649">
        <ele>1259</ele>
        <time>2013-03-03T08:36:03.000Z</time>
      </trkpt>
      <trkpt lat="45.11906" lon="5.59652">
        <ele>1260</ele>
        <time>2013-03-03T08:36:20.000Z</time>
      </trkpt>
      <trkpt lat="45.11901" lon="5.59651">
        <ele>1260</ele>
        <time>2013-03-03T08:36:32.000Z</time>
      </trkpt>
      <trkpt lat="45.11896" lon="5.5965">
        <ele>1260</ele>
        <time>2013-03-03T08:36:44.000Z</time>
      </trkpt>
      <trkpt lat="45.11891" lon="5.59648">
        <ele>1261</ele>
        <time>2013-03-03T08:36:55.000Z</time>
      </trkpt>
      <trkpt lat="45.11886" lon="5.59648">
        <ele>1261</ele>
        <time>2013-03-03T08:37:05.000Z</time>
      </trkpt>
      <trkpt lat="45.11886" lon="5.59648">
        <ele>1261</ele>
        <time>2013-03-03T08:37:05.000Z</time>
      </trkpt>
      <trkpt lat="45.11886" lon="5.59648">
        <ele>1261</ele>
        <time>2013-03-03T08:37:06.000Z</time>
      </trkpt>
      <trkpt lat="45.11882" lon="5.59652">
        <ele>1262</ele>
        <time>2013-03-03T08:37:16.000Z</time>
      </trkpt>
      <trkpt lat="45.11879" lon="5.59657">
        <ele>1263</ele>
        <time>2013-03-03T08:37:24.000Z</time>
      </trkpt>
      <trkpt lat="45.11875" lon="5.59661">
        <ele>1264</ele>
        <time>2013-03-03T08:37:34.000Z</time>
      </trkpt>
      <trkpt lat="45.11871" lon="5.59665">
        <ele>1265</ele>
        <time>2013-03-03T08:37:44.000Z</time>
      </trkpt>
      <trkpt lat="45.11868" lon="5.59669">
        <ele>1275</ele>
        <time>2013-03-03T08:37:55.000Z</time>
      </trkpt>
      <trkpt lat="45.11864" lon="5.59673">
        <ele>1276</ele>
        <time>2013-03-03T08:38:04.000Z</time>
      </trkpt>
      <trkpt lat="45.1186" lon="5.59677">
        <ele>1277</ele>
        <time>2013-03-03T08:38:14.000Z</time>
      </trkpt>
      <trkpt lat="45.11856" lon="5.59681">
        <ele>1277</ele>
        <time>2013-03-03T08:38:25.000Z</time>
      </trkpt>
      <trkpt lat="45.11852" lon="5.59685">
        <ele>1278</ele>
        <time>2013-03-03T08:38:35.000Z</time>
      </trkpt>
      <trkpt lat="45.11848" lon="5.59687">
        <ele>1278</ele>
        <time>2013-03-03T08:38:44.000Z</time>
      </trkpt>
      <trkpt lat="45.11844" lon="5.59692">
        <ele>1279</ele>
        <time>2013-03-03T08:38:55.000Z</time>
      </trkpt>
      <trkpt lat="45.11842" lon="5.59698">
        <ele>1279</ele>
        <time>2013-03-03T08:39:05.000Z</time>
      </trkpt>
      <trkpt lat="45.11842" lon="5.59698">
        <ele>1279</ele>
        <time>2013-03-03T08:39:05.000Z</time>
      </trkpt>
      <trkpt lat="45.11842" lon="5.59698">
        <ele>1279</ele>
        <time>2013-03-03T08:39:12.000Z</time>
      </trkpt>
      <trkpt lat="45.11841" lon="5.59705">
        <ele>1280</ele>
        <time>2013-03-03T08:39:21.000Z</time>
      </trkpt>
      <trkpt lat="45.11839" lon="5.59711">
        <ele>1280</ele>
        <time>2013-03-03T08:39:30.000Z</time>
      </trkpt>
      <trkpt lat="45.11836" lon="5.59717">
        <ele>1281</ele>
        <time>2013-03-03T08:39:37.000Z</time>
      </trkpt>
      <trkpt lat="45.11834" lon="5.59723">
        <ele>1282</ele>
        <time>2013-03-03T08:39:45.000Z</time>
      </trkpt>
      <trkpt lat="45.11832" lon="5.59729">
        <ele>1288</ele>
        <time>2013-03-03T08:39:52.000Z</time>
      </trkpt>
      <trkpt lat="45.11833" lon="5.59735">
        <ele>1289</ele>
        <time>2013-03-03T08:39:57.000Z</time>
      </trkpt>
      <trkpt lat="45.11834" lon="5.59742">
        <ele>1288</ele>
        <time>2013-03-03T08:40:01.000Z</time>
      </trkpt>
      <trkpt lat="45.11833" lon="5.59749">
        <ele>1292</ele>
        <time>2013-03-03T08:41:05.000Z</time>
      </trkpt>
      <trkpt lat="45.11828" lon="5.59754">
        <ele>1291</ele>
        <time>2013-03-03T08:41:18.000Z</time>
      </trkpt>
      <trkpt lat="45.11825" lon="5.59759">
        <ele>1291</ele>
        <time>2013-03-03T08:41:23.000Z</time>
      </trkpt>
      <trkpt lat="45.11823" lon="5.59765">
        <ele>1291</ele>
        <time>2013-03-03T08:41:27.000Z</time>
      </trkpt>
      <trkpt lat="45.11818" lon="5.5977">
        <ele>1290</ele>
        <time>2013-03-03T08:41:29.000Z</time>
      </trkpt>
      <trkpt lat="45.1181" lon="5.59778">
        <ele>1290</ele>
        <time>2013-03-03T08:41:31.000Z</time>
      </trkpt>
      <trkpt lat="45.11808" lon="5.59784">
        <ele>1290</ele>
        <time>2013-03-03T08:41:33.000Z</time>
      </trkpt>
      <trkpt lat="45.11805" lon="5.59792">
        <ele>1290</ele>
        <time>2013-03-03T08:41:37.000Z</time>
      </trkpt>
      <trkpt lat="45.11801" lon="5.59794">
        <ele>1290</ele>
        <time>2013-03-03T08:41:45.000Z</time>
      </trkpt>
      <trkpt lat="45.11796" lon="5.59796">
        <ele>1290</ele>
        <time>2013-03-03T08:41:50.000Z</time>
      </trkpt>
      <trkpt lat="45.11799" lon="5.59802">
        <ele>1290</ele>
        <time>2013-03-03T08:42:05.000Z</time>
      </trkpt>
      <trkpt lat="45.11794" lon="5.59803">
        <ele>1289</ele>
        <time>2013-03-03T08:42:22.000Z</time>
      </trkpt>
      <trkpt lat="45.11788" lon="5.59804">
        <ele>1289</ele>
        <time>2013-03-03T08:42:26.000Z</time>
      </trkpt>
      <trkpt lat="45.11784" lon="5.59808">
        <ele>1289</ele>
        <time>2013-03-03T08:42:29.000Z</time>
      </trkpt>
      <trkpt lat="45.1178" lon="5.59813">
        <ele>1289</ele>
        <time>2013-03-03T08:42:36.000Z</time>
      </trkpt>
      <trkpt lat="45.11778" lon="5.5982">
        <ele>1289</ele>
        <time>2013-03-03T08:42:40.000Z</time>
      </trkpt>
      <trkpt lat="45.11774" lon="5.59823">
        <ele>1289</ele>
        <time>2013-03-03T08:42:44.000Z</time>
      </trkpt>
      <trkpt lat="45.11766" lon="5.59824">
        <ele>1288</ele>
        <time>2013-03-03T08:42:47.000Z</time>
      </trkpt>
      <trkpt lat="45.11761" lon="5.59824">
        <ele>1288</ele>
        <time>2013-03-03T08:42:48.000Z</time>
      </trkpt>
      <trkpt lat="45.11756" lon="5.59824">
        <ele>1288</ele>
        <time>2013-03-03T08:43:02.000Z</time>
      </trkpt>
      <trkpt lat="45.11751" lon="5.59825">
        <ele>1288</ele>
        <time>2013-03-03T08:43:07.000Z</time>
      </trkpt>
      <trkpt lat="45.11744" lon="5.59824">
        <ele>1286</ele>
        <time>2013-03-03T08:43:11.000Z</time>
      </trkpt>
      <trkpt lat="45.11738" lon="5.59822">
        <ele>1285</ele>
        <time>2013-03-03T08:43:17.000Z</time>
      </trkpt>
      <trkpt lat="45.11734" lon="5.5982">
        <ele>1285</ele>
        <time>2013-03-03T08:43:22.000Z</time>
      </trkpt>
      <trkpt lat="45.11728" lon="5.5982">
        <ele>1285</ele>
        <time>2013-03-03T08:43:27.000Z</time>
      </trkpt>
      <trkpt lat="45.11723" lon="5.59814">
        <ele>1284</ele>
        <time>2013-03-03T08:43:32.000Z</time>
      </trkpt>
      <trkpt lat="45.11717" lon="5.59812">
        <ele>1284</ele>
        <time>2013-03-03T08:43:35.000Z</time>
      </trkpt>
      <trkpt lat="45.11712" lon="5.59812">
        <ele>1284</ele>
        <time>2013-03-03T08:43:39.000Z</time>
      </trkpt>
      <trkpt lat="45.11707" lon="5.59811">
        <ele>1283</ele>
        <time>2013-03-03T08:43:45.000Z</time>
      </trkpt>
      <trkpt lat="45.11706" lon="5.59818">
        <ele>1283</ele>
        <time>2013-03-03T08:43:48.000Z</time>
      </trkpt>
      <trkpt lat="45.11701" lon="5.59821">
        <ele>1283</ele>
        <time>2013-03-03T08:43:50.000Z</time>
      </trkpt>
      <trkpt lat="45.11696" lon="5.5982">
        <ele>1282</ele>
        <time>2013-03-03T08:43:53.000Z</time>
      </trkpt>
      <trkpt lat="45.11688" lon="5.59826">
        <ele>1282</ele>
        <time>2013-03-03T08:43:55.000Z</time>
      </trkpt>
      <trkpt lat="45.11683" lon="5.5983">
        <ele>1281</ele>
        <time>2013-03-03T08:43:58.000Z</time>
      </trkpt>
      <trkpt lat="45.11678" lon="5.59831">
        <ele>1280</ele>
        <time>2013-03-03T08:44:00.000Z</time>
      </trkpt>
      <trkpt lat="45.11673" lon="5.59832">
        <ele>1279</ele>
        <time>2013-03-03T08:44:02.000Z</time>
      </trkpt>
      <trkpt lat="45.11668" lon="5.59835">
        <ele>1278</ele>
        <time>2013-03-03T08:44:05.000Z</time>
      </trkpt>
      <trkpt lat="45.11663" lon="5.59837">
        <ele>1275</ele>
        <time>2013-03-03T08:44:08.000Z</time>
      </trkpt>
      <trkpt lat="45.11658" lon="5.59839">
        <ele>1273</ele>
        <time>2013-03-03T08:44:11.000Z</time>
      </trkpt>
      <trkpt lat="45.11653" lon="5.59842">
        <ele>1271</ele>
        <time>2013-03-03T08:44:14.000Z</time>
      </trkpt>
      <trkpt lat="45.11648" lon="5.59845">
        <ele>1270</ele>
        <time>2013-03-03T08:44:18.000Z</time>
      </trkpt>
      <trkpt lat="45.11643" lon="5.59848">
        <ele>1269</ele>
        <time>2013-03-03T08:44:21.000Z</time>
      </trkpt>
      <trkpt lat="45.11639" lon="5.59851">
        <ele>1268</ele>
        <time>2013-03-03T08:44:27.000Z</time>
      </trkpt>
      <trkpt lat="45.11634" lon="5.59852">
        <ele>1267</ele>
        <time>2013-03-03T08:44:32.000Z</time>
      </trkpt>
      <trkpt lat="45.1163" lon="5.59854">
        <ele>1267</ele>
        <time>2013-03-03T08:44:37.000Z</time>
      </trkpt>
      <trkpt lat="45.11624" lon="5.59856">
        <ele>1266</ele>
        <time>2013-03-03T08:44:40.000Z</time>
      </trkpt>
      <trkpt lat="45.11618" lon="5.59857">
        <ele>1265</ele>
        <time>2013-03-03T08:44:47.000Z</time>
      </trkpt>
      <trkpt lat="45.11613" lon="5.5986">
        <ele>1265</ele>
        <time>2013-03-03T08:44:51.000Z</time>
      </trkpt>
      <trkpt lat="45.11608" lon="5.59861">
        <ele>1264</ele>
        <time>2013-03-03T08:44:57.000Z</time>
      </trkpt>
      <trkpt lat="45.11608" lon="5.59861">
        <ele>1264</ele>
        <time>2013-03-03T08:44:57.000Z</time>
      </trkpt>
      <trkpt lat="45.11608" lon="5.59861">
        <ele>1264</ele>
        <time>2013-03-03T08:44:58.000Z</time>
      </trkpt>
      <trkpt lat="45.11602" lon="5.59863">
        <ele>1264</ele>
        <time>2013-03-03T08:45:03.000Z</time>
      </trkpt>
      <trkpt lat="45.11596" lon="5.59864">
        <ele>1264</ele>
        <time>2013-03-03T08:45:07.000Z</time>
      </trkpt>
      <trkpt lat="45.1159" lon="5.59864">
        <ele>1264</ele>
        <time>2013-03-03T08:45:10.000Z</time>
      </trkpt>
      <trkpt lat="45.11584" lon="5.59865">
        <ele>1263</ele>
        <time>2013-03-03T08:45:13.000Z</time>
      </trkpt>
      <trkpt lat="45.1158" lon="5.59867">
        <ele>1259</ele>
        <time>2013-03-03T08:45:16.000Z</time>
      </trkpt>
      <trkpt lat="45.11574" lon="5.59867">
        <ele>1258</ele>
        <time>2013-03-03T08:45:19.000Z</time>
      </trkpt>
      <trkpt lat="45.11569" lon="5.59864">
        <ele>1259</ele>
        <time>2013-03-03T08:45:23.000Z</time>
      </trkpt>
      <trkpt lat="45.11564" lon="5.59863">
        <ele>1258</ele>
        <time>2013-03-03T08:45:26.000Z</time>
      </trkpt>
      <trkpt lat="45.11558" lon="5.59863">
        <ele>1258</ele>
        <time>2013-03-03T08:45:30.000Z</time>
      </trkpt>
      <trkpt lat="45.11553" lon="5.59866">
        <ele>1258</ele>
        <time>2013-03-03T08:45:41.000Z</time>
      </trkpt>
      <trkpt lat="45.11548" lon="5.59869">
        <ele>1257</ele>
        <time>2013-03-03T08:45:48.000Z</time>
      </trkpt>
      <trkpt lat="45.11543" lon="5.5987">
        <ele>1257</ele>
        <time>2013-03-03T08:45:53.000Z</time>
      </trkpt>
      <trkpt lat="45.11538" lon="5.5987">
        <ele>1257</ele>
        <time>2013-03-03T08:45:57.000Z</time>
      </trkpt>
      <trkpt lat="45.11533" lon="5.59872">
        <ele>1257</ele>
        <time>2013-03-03T08:46:00.000Z</time>
      </trkpt>
      <trkpt lat="45.11528" lon="5.59872">
        <ele>1257</ele>
        <time>2013-03-03T08:46:03.000Z</time>
      </trkpt>
      <trkpt lat="45.11521" lon="5.59871">
        <ele>1257</ele>
        <time>2013-03-03T08:46:07.000Z</time>
      </trkpt>
      <trkpt lat="45.11515" lon="5.59869">
        <ele>1256</ele>
        <time>2013-03-03T08:46:13.000Z</time>
      </trkpt>
      <trkpt lat="45.1151" lon="5.59875">
        <ele>1256</ele>
        <time>2013-03-03T08:46:18.000Z</time>
      </trkpt>
      <trkpt lat="45.11506" lon="5.59878">
        <ele>1256</ele>
        <time>2013-03-03T08:46:21.000Z</time>
      </trkpt>
      <trkpt lat="45.11501" lon="5.5988">
        <ele>1256</ele>
        <time>2013-03-03T08:46:26.000Z</time>
      </trkpt>
      <trkpt lat="45.11495" lon="5.5988">
        <ele>1255</ele>
        <time>2013-03-03T08:46:29.000Z</time>
      </trkpt>
      <trkpt lat="45.1149" lon="5.5988">
        <ele>1255</ele>
        <time>2013-03-03T08:46:32.000Z</time>
      </trkpt>
      <trkpt lat="45.11485" lon="5.5988">
        <ele>1255</ele>
        <time>2013-03-03T08:46:35.000Z</time>
      </trkpt>
      <trkpt lat="45.11481" lon="5.59884">
        <ele>1256</ele>
        <time>2013-03-03T08:46:38.000Z</time>
      </trkpt>
      <trkpt lat="45.11476" lon="5.59889">
        <ele>1256</ele>
        <time>2013-03-03T08:46:48.000Z</time>
      </trkpt>
      <trkpt lat="45.11471" lon="5.59891">
        <ele>1256</ele>
        <time>2013-03-03T08:46:52.000Z</time>
      </trkpt>
      <trkpt lat="45.11465" lon="5.59891">
        <ele>1256</ele>
        <time>2013-03-03T08:46:57.000Z</time>
      </trkpt>
      <trkpt lat="45.1146" lon="5.59892">
        <ele>1256</ele>
        <time>2013-03-03T08:47:05.000Z</time>
      </trkpt>
      <trkpt lat="45.11456" lon="5.59894">
        <ele>1256</ele>
        <time>2013-03-03T08:47:06.000Z</time>
      </trkpt>
      <trkpt lat="45.1145" lon="5.59894">
        <ele>1257</ele>
        <time>2013-03-03T08:47:10.000Z</time>
      </trkpt>
      <trkpt lat="45.11444" lon="5.59897">
        <ele>1257</ele>
        <time>2013-03-03T08:47:14.000Z</time>
      </trkpt>
      <trkpt lat="45.11442" lon="5.59902">
        <ele>1257</ele>
        <time>2013-03-03T08:47:20.000Z</time>
      </trkpt>
      <trkpt lat="45.11434" lon="5.59905">
        <ele>1258</ele>
        <time>2013-03-03T08:47:24.000Z</time>
      </trkpt>
      <trkpt lat="45.11426" lon="5.59906">
        <ele>1259</ele>
        <time>2013-03-03T08:47:26.000Z</time>
      </trkpt>
      <trkpt lat="45.1142" lon="5.59906">
        <ele>1259</ele>
        <time>2013-03-03T08:47:29.000Z</time>
      </trkpt>
      <trkpt lat="45.11416" lon="5.5991">
        <ele>1261</ele>
        <time>2013-03-03T08:47:34.000Z</time>
      </trkpt>
      <trkpt lat="45.11415" lon="5.59918">
        <ele>1260</ele>
        <time>2013-03-03T08:47:38.000Z</time>
      </trkpt>
      <trkpt lat="45.11412" lon="5.59923">
        <ele>1258</ele>
        <time>2013-03-03T08:47:42.000Z</time>
      </trkpt>
      <trkpt lat="45.11406" lon="5.59926">
        <ele>1256</ele>
        <time>2013-03-03T08:47:46.000Z</time>
      </trkpt>
      <trkpt lat="45.114" lon="5.59929">
        <ele>1255</ele>
        <time>2013-03-03T08:47:51.000Z</time>
      </trkpt>
      <trkpt lat="45.11395" lon="5.5993">
        <ele>1255</ele>
        <time>2013-03-03T08:47:55.000Z</time>
      </trkpt>
      <trkpt lat="45.11391" lon="5.59935">
        <ele>1254</ele>
        <time>2013-03-03T08:47:58.000Z</time>
      </trkpt>
      <trkpt lat="45.11391" lon="5.59935">
        <ele>1254</ele>
        <time>2013-03-03T08:47:58.000Z</time>
      </trkpt>
      <trkpt lat="45.11391" lon="5.59935">
        <ele>1254</ele>
        <time>2013-03-03T08:47:59.000Z</time>
      </trkpt>
      <trkpt lat="45.11387" lon="5.59937">
        <ele>1254</ele>
        <time>2013-03-03T08:48:02.000Z</time>
      </trkpt>
      <trkpt lat="45.11382" lon="5.59937">
        <ele>1254</ele>
        <time>2013-03-03T08:48:04.000Z</time>
      </trkpt>
      <trkpt lat="45.11377" lon="5.5994">
        <ele>1254</ele>
        <time>2013-03-03T08:48:06.000Z</time>
      </trkpt>
      <trkpt lat="45.11372" lon="5.59942">
        <ele>1254</ele>
        <time>2013-03-03T08:48:09.000Z</time>
      </trkpt>
      <trkpt lat="45.11368" lon="5.59944">
        <ele>1254</ele>
        <time>2013-03-03T08:48:15.000Z</time>
      </trkpt>
      <trkpt lat="45.11363" lon="5.59949">
        <ele>1253</ele>
        <time>2013-03-03T08:48:21.000Z</time>
      </trkpt>
      <trkpt lat="45.11359" lon="5.59951">
        <ele>1254</ele>
        <time>2013-03-03T08:48:23.000Z</time>
      </trkpt>
      <trkpt lat="45.11355" lon="5.59954">
        <ele>1253</ele>
        <time>2013-03-03T08:48:27.000Z</time>
      </trkpt>
      <trkpt lat="45.11355" lon="5.59954">
        <ele>1253</ele>
        <time>2013-03-03T08:48:27.000Z</time>
      </trkpt>
      <trkpt lat="45.11355" lon="5.59954">
        <ele>1253</ele>
        <time>2013-03-03T08:48:28.000Z</time>
      </trkpt>
      <trkpt lat="45.1135" lon="5.59955">
        <ele>1254</ele>
        <time>2013-03-03T08:48:32.000Z</time>
      </trkpt>
      <trkpt lat="45.11345" lon="5.5996">
        <ele>1253</ele>
        <time>2013-03-03T08:48:34.000Z</time>
      </trkpt>
      <trkpt lat="45.11336" lon="5.59961">
        <ele>1253</ele>
        <time>2013-03-03T08:48:37.000Z</time>
      </trkpt>
      <trkpt lat="45.11331" lon="5.59962">
        <ele>1264</ele>
        <time>2013-03-03T08:48:40.000Z</time>
      </trkpt>
      <trkpt lat="45.11327" lon="5.59967">
        <ele>1264</ele>
        <time>2013-03-03T08:48:46.000Z</time>
      </trkpt>
      <trkpt lat="45.11322" lon="5.59968">
        <ele>1264</ele>
        <time>2013-03-03T08:48:49.000Z</time>
      </trkpt>
      <trkpt lat="45.11315" lon="5.59967">
        <ele>1265</ele>
        <time>2013-03-03T08:48:51.000Z</time>
      </trkpt>
      <trkpt lat="45.11309" lon="5.59971">
        <ele>1265</ele>
        <time>2013-03-03T08:48:54.000Z</time>
      </trkpt>
      <trkpt lat="45.11304" lon="5.59975">
        <ele>1265</ele>
        <time>2013-03-03T08:48:56.000Z</time>
      </trkpt>
      <trkpt lat="45.11298" lon="5.59976">
        <ele>1266</ele>
        <time>2013-03-03T08:48:58.000Z</time>
      </trkpt>
      <trkpt lat="45.11294" lon="5.59979">
        <ele>1266</ele>
        <time>2013-03-03T08:49:00.000Z</time>
      </trkpt>
      <trkpt lat="45.11289" lon="5.59984">
        <ele>1267</ele>
        <time>2013-03-03T08:49:03.000Z</time>
      </trkpt>
      <trkpt lat="45.11284" lon="5.59985">
        <ele>1267</ele>
        <time>2013-03-03T08:49:05.000Z</time>
      </trkpt>
      <trkpt lat="45.11279" lon="5.59988">
        <ele>1268</ele>
        <time>2013-03-03T08:49:09.000Z</time>
      </trkpt>
      <trkpt lat="45.11276" lon="5.59993">
        <ele>1268</ele>
        <time>2013-03-03T08:49:14.000Z</time>
      </trkpt>
      <trkpt lat="45.1127" lon="5.59992">
        <ele>1269</ele>
        <time>2013-03-03T08:49:16.000Z</time>
      </trkpt>
      <trkpt lat="45.11262" lon="5.59992">
        <ele>1270</ele>
        <time>2013-03-03T08:49:18.000Z</time>
      </trkpt>
      <trkpt lat="45.11259" lon="5.59999">
        <ele>1270</ele>
        <time>2013-03-03T08:49:21.000Z</time>
      </trkpt>
      <trkpt lat="45.11257" lon="5.60005">
        <ele>1262</ele>
        <time>2013-03-03T08:49:25.000Z</time>
      </trkpt>
      <trkpt lat="45.11252" lon="5.60008">
        <ele>1263</ele>
        <time>2013-03-03T08:49:28.000Z</time>
      </trkpt>
      <trkpt lat="45.11248" lon="5.60012">
        <ele>1269</ele>
        <time>2013-03-03T08:49:30.000Z</time>
      </trkpt>
      <trkpt lat="45.11241" lon="5.60018">
        <ele>1268</ele>
        <time>2013-03-03T08:49:33.000Z</time>
      </trkpt>
      <trkpt lat="45.11237" lon="5.60022">
        <ele>1267</ele>
        <time>2013-03-03T08:49:35.000Z</time>
      </trkpt>
      <trkpt lat="45.11232" lon="5.60031">
        <ele>1266</ele>
        <time>2013-03-03T08:49:37.000Z</time>
      </trkpt>
      <trkpt lat="45.11226" lon="5.60031">
        <ele>1266</ele>
        <time>2013-03-03T08:49:38.000Z</time>
      </trkpt>
      <trkpt lat="45.11221" lon="5.60033">
        <ele>1267</ele>
        <time>2013-03-03T08:49:39.000Z</time>
      </trkpt>
      <trkpt lat="45.11216" lon="5.6004">
        <ele>1266</ele>
        <time>2013-03-03T08:49:42.000Z</time>
      </trkpt>
      <trkpt lat="45.11217" lon="5.60048">
        <ele>1264</ele>
        <time>2013-03-03T08:49:44.000Z</time>
      </trkpt>
      <trkpt lat="45.11212" lon="5.60053">
        <ele>1264</ele>
        <time>2013-03-03T08:49:47.000Z</time>
      </trkpt>
      <trkpt lat="45.11208" lon="5.60057">
        <ele>1264</ele>
        <time>2013-03-03T08:49:50.000Z</time>
      </trkpt>
      <trkpt lat="45.11202" lon="5.60061">
        <ele>1264</ele>
        <time>2013-03-03T08:49:53.000Z</time>
      </trkpt>
      <trkpt lat="45.11199" lon="5.60067">
        <ele>1264</ele>
        <time>2013-03-03T08:49:58.000Z</time>
      </trkpt>
      <trkpt lat="45.11194" lon="5.60071">
        <ele>1264</ele>
        <time>2013-03-03T08:50:01.000Z</time>
      </trkpt>
      <trkpt lat="45.1119" lon="5.60074">
        <ele>1265</ele>
        <time>2013-03-03T08:50:04.000Z</time>
      </trkpt>
      <trkpt lat="45.11185" lon="5.60073">
        <ele>1265</ele>
        <time>2013-03-03T08:50:05.000Z</time>
      </trkpt>
      <trkpt lat="45.11182" lon="5.60078">
        <ele>1265</ele>
        <time>2013-03-03T08:50:10.000Z</time>
      </trkpt>
      <trkpt lat="45.11179" lon="5.60085">
        <ele>1252</ele>
        <time>2013-03-03T08:50:19.000Z</time>
      </trkpt>
      <trkpt lat="45.11174" lon="5.60086">
        <ele>1256</ele>
        <time>2013-03-03T08:50:24.000Z</time>
      </trkpt>
      <trkpt lat="45.11165" lon="5.6009">
        <ele>1264</ele>
        <time>2013-03-03T08:50:32.000Z</time>
      </trkpt>
      <trkpt lat="45.11158" lon="5.60092">
        <ele>1264</ele>
        <time>2013-03-03T08:50:34.000Z</time>
      </trkpt>
      <trkpt lat="45.1116" lon="5.60099">
        <ele>1263</ele>
        <time>2013-03-03T08:50:36.000Z</time>
      </trkpt>
      <trkpt lat="45.11154" lon="5.60106">
        <ele>1262</ele>
        <time>2013-03-03T08:50:46.000Z</time>
      </trkpt>
      <trkpt lat="45.11148" lon="5.60107">
        <ele>1262</ele>
        <time>2013-03-03T08:50:50.000Z</time>
      </trkpt>
      <trkpt lat="45.11141" lon="5.60107">
        <ele>1263</ele>
        <time>2013-03-03T08:50:52.000Z</time>
      </trkpt>
      <trkpt lat="45.11135" lon="5.60112">
        <ele>1263</ele>
        <time>2013-03-03T08:50:54.000Z</time>
      </trkpt>
      <trkpt lat="45.11131" lon="5.60119">
        <ele>1263</ele>
        <time>2013-03-03T08:50:59.000Z</time>
      </trkpt>
      <trkpt lat="45.11126" lon="5.6012">
        <ele>1263</ele>
        <time>2013-03-03T08:51:01.000Z</time>
      </trkpt>
      <trkpt lat="45.1112" lon="5.6012">
        <ele>1264</ele>
        <time>2013-03-03T08:51:04.000Z</time>
      </trkpt>
      <trkpt lat="45.11116" lon="5.60124">
        <ele>1264</ele>
        <time>2013-03-03T08:51:07.000Z</time>
      </trkpt>
      <trkpt lat="45.11114" lon="5.6013">
        <ele>1263</ele>
        <time>2013-03-03T08:51:12.000Z</time>
      </trkpt>
      <trkpt lat="45.11109" lon="5.6013">
        <ele>1264</ele>
        <time>2013-03-03T08:51:20.000Z</time>
      </trkpt>
      <trkpt lat="45.11103" lon="5.60132">
        <ele>1264</ele>
        <time>2013-03-03T08:51:23.000Z</time>
      </trkpt>
      <trkpt lat="45.11099" lon="5.60136">
        <ele>1264</ele>
        <time>2013-03-03T08:51:27.000Z</time>
      </trkpt>
      <trkpt lat="45.11093" lon="5.60138">
        <ele>1263</ele>
        <time>2013-03-03T08:51:31.000Z</time>
      </trkpt>
      <trkpt lat="45.1109" lon="5.60144">
        <ele>1262</ele>
        <time>2013-03-03T08:51:34.000Z</time>
      </trkpt>
      <trkpt lat="45.11091" lon="5.6015">
        <ele>1261</ele>
        <time>2013-03-03T08:51:42.000Z</time>
      </trkpt>
      <trkpt lat="45.11091" lon="5.6015">
        <ele>1261</ele>
        <time>2013-03-03T08:51:42.000Z</time>
      </trkpt>
      <trkpt lat="45.11091" lon="5.6015">
        <ele>1261</ele>
        <time>2013-03-03T08:51:44.000Z</time>
      </trkpt>
      <trkpt lat="45.11083" lon="5.60155">
        <ele>1271</ele>
        <time>2013-03-03T08:51:58.000Z</time>
      </trkpt>
      <trkpt lat="45.11079" lon="5.60158">
        <ele>1269</ele>
        <time>2013-03-03T08:51:59.000Z</time>
      </trkpt>
      <trkpt lat="45.11075" lon="5.60162">
        <ele>1269</ele>
        <time>2013-03-03T08:52:01.000Z</time>
      </trkpt>
      <trkpt lat="45.1107" lon="5.60165">
        <ele>1272</ele>
        <time>2013-03-03T08:52:03.000Z</time>
      </trkpt>
      <trkpt lat="45.1107" lon="5.60172">
        <ele>1259</ele>
        <time>2013-03-03T08:52:07.000Z</time>
      </trkpt>
      <trkpt lat="45.1107" lon="5.60172">
        <ele>1259</ele>
        <time>2013-03-03T08:52:07.000Z</time>
      </trkpt>
      <trkpt lat="45.1107" lon="5.60172">
        <ele>1259</ele>
        <time>2013-03-03T08:52:08.000Z</time>
      </trkpt>
      <trkpt lat="45.11065" lon="5.60174">
        <ele>1260</ele>
        <time>2013-03-03T08:52:14.000Z</time>
      </trkpt>
      <trkpt lat="45.11061" lon="5.6018">
        <ele>1261</ele>
        <time>2013-03-03T08:52:20.000Z</time>
      </trkpt>
      <trkpt lat="45.11057" lon="5.60186">
        <ele>1261</ele>
        <time>2013-03-03T08:52:23.000Z</time>
      </trkpt>
      <trkpt lat="45.11055" lon="5.60192">
        <ele>1261</ele>
        <time>2013-03-03T08:52:26.000Z</time>
      </trkpt>
      <trkpt lat="45.1105" lon="5.60192">
        <ele>1262</ele>
        <time>2013-03-03T08:52:34.000Z</time>
      </trkpt>
      <trkpt lat="45.1105" lon="5.60192">
        <ele>1262</ele>
        <time>2013-03-03T08:52:34.000Z</time>
      </trkpt>
      <trkpt lat="45.1105" lon="5.60192">
        <ele>1262</ele>
        <time>2013-03-03T08:52:35.000Z</time>
      </trkpt>
      <trkpt lat="45.11046" lon="5.60196">
        <ele>1262</ele>
        <time>2013-03-03T08:52:39.000Z</time>
      </trkpt>
      <trkpt lat="45.11042" lon="5.60199">
        <ele>1262</ele>
        <time>2013-03-03T08:52:47.000Z</time>
      </trkpt>
      <trkpt lat="45.11037" lon="5.60202">
        <ele>1263</ele>
        <time>2013-03-03T08:52:53.000Z</time>
      </trkpt>
      <trkpt lat="45.11032" lon="5.60204">
        <ele>1263</ele>
        <time>2013-03-03T08:52:57.000Z</time>
      </trkpt>
      <trkpt lat="45.11027" lon="5.60207">
        <ele>1263</ele>
        <time>2013-03-03T08:53:02.000Z</time>
      </trkpt>
      <trkpt lat="45.1102" lon="5.60207">
        <ele>1264</ele>
        <time>2013-03-03T08:53:05.000Z</time>
      </trkpt>
      <trkpt lat="45.11013" lon="5.6021">
        <ele>1265</ele>
        <time>2013-03-03T08:53:08.000Z</time>
      </trkpt>
      <trkpt lat="45.11007" lon="5.60212">
        <ele>1265</ele>
        <time>2013-03-03T08:53:12.000Z</time>
      </trkpt>
      <trkpt lat="45.11004" lon="5.60217">
        <ele>1264</ele>
        <time>2013-03-03T08:53:17.000Z</time>
      </trkpt>
      <trkpt lat="45.11001" lon="5.60223">
        <ele>1263</ele>
        <time>2013-03-03T08:53:27.000Z</time>
      </trkpt>
      <trkpt lat="45.10996" lon="5.60226">
        <ele>1277</ele>
        <time>2013-03-03T08:53:31.000Z</time>
      </trkpt>
      <trkpt lat="45.10992" lon="5.60231">
        <ele>1275</ele>
        <time>2013-03-03T08:53:36.000Z</time>
      </trkpt>
      <trkpt lat="45.10987" lon="5.60235">
        <ele>1275</ele>
        <time>2013-03-03T08:53:42.000Z</time>
      </trkpt>
      <trkpt lat="45.10982" lon="5.60236">
        <ele>1276</ele>
        <time>2013-03-03T08:53:46.000Z</time>
      </trkpt>
      <trkpt lat="45.10974" lon="5.60238">
        <ele>1279</ele>
        <time>2013-03-03T08:53:49.000Z</time>
      </trkpt>
      <trkpt lat="45.10969" lon="5.60242">
        <ele>1280</ele>
        <time>2013-03-03T08:53:52.000Z</time>
      </trkpt>
      <trkpt lat="45.10968" lon="5.60248">
        <ele>1279</ele>
        <time>2013-03-03T08:53:55.000Z</time>
      </trkpt>
      <trkpt lat="45.10968" lon="5.60248">
        <ele>1279</ele>
        <time>2013-03-03T08:53:55.000Z</time>
      </trkpt>
      <trkpt lat="45.10968" lon="5.60248">
        <ele>1279</ele>
        <time>2013-03-03T08:53:56.000Z</time>
      </trkpt>
      <trkpt lat="45.10964" lon="5.60253">
        <ele>1267</ele>
        <time>2013-03-03T08:54:02.000Z</time>
      </trkpt>
      <trkpt lat="45.10964" lon="5.60253">
        <ele>1267</ele>
        <time>2013-03-03T08:54:02.000Z</time>
      </trkpt>
      <trkpt lat="45.10964" lon="5.60253">
        <ele>1267</ele>
        <time>2013-03-03T08:54:03.000Z</time>
      </trkpt>
      <trkpt lat="45.10959" lon="5.60253">
        <ele>1268</ele>
        <time>2013-03-03T08:54:05.000Z</time>
      </trkpt>
      <trkpt lat="45.10953" lon="5.60254">
        <ele>1269</ele>
        <time>2013-03-03T08:54:08.000Z</time>
      </trkpt>
      <trkpt lat="45.10948" lon="5.60258">
        <ele>1270</ele>
        <time>2013-03-03T08:54:11.000Z</time>
      </trkpt>
      <trkpt lat="45.10948" lon="5.60258">
        <ele>1270</ele>
        <time>2013-03-03T08:54:11.000Z</time>
      </trkpt>
      <trkpt lat="45.10948" lon="5.60258">
        <ele>1270</ele>
        <time>2013-03-03T08:54:13.000Z</time>
      </trkpt>
      <trkpt lat="45.10943" lon="5.6026">
        <ele>1271</ele>
        <time>2013-03-03T08:54:17.000Z</time>
      </trkpt>
      <trkpt lat="45.10939" lon="5.60263">
        <ele>1272</ele>
        <time>2013-03-03T08:54:20.000Z</time>
      </trkpt>
      <trkpt lat="45.10934" lon="5.60263">
        <ele>1273</ele>
        <time>2013-03-03T08:54:26.000Z</time>
      </trkpt>
      <trkpt lat="45.10934" lon="5.60263">
        <ele>1273</ele>
        <time>2013-03-03T08:54:26.000Z</time>
      </trkpt>
      <trkpt lat="45.10934" lon="5.60263">
        <ele>1273</ele>
        <time>2013-03-03T08:54:27.000Z</time>
      </trkpt>
      <trkpt lat="45.10929" lon="5.60265">
        <ele>1274</ele>
        <time>2013-03-03T08:54:34.000Z</time>
      </trkpt>
      <trkpt lat="45.10923" lon="5.60267">
        <ele>1274</ele>
        <time>2013-03-03T08:54:40.000Z</time>
      </trkpt>
      <trkpt lat="45.10918" lon="5.60269">
        <ele>1274</ele>
        <time>2013-03-03T08:54:47.000Z</time>
      </trkpt>
      <trkpt lat="45.10913" lon="5.60275">
        <ele>1282</ele>
        <time>2013-03-03T08:54:59.000Z</time>
      </trkpt>
      <trkpt lat="45.10908" lon="5.60278">
        <ele>1282</ele>
        <time>2013-03-03T08:55:02.000Z</time>
      </trkpt>
      <trkpt lat="45.10902" lon="5.60283">
        <ele>1282</ele>
        <time>2013-03-03T08:55:10.000Z</time>
      </trkpt>
      <trkpt lat="45.10899" lon="5.6029">
        <ele>1282</ele>
        <time>2013-03-03T08:55:13.000Z</time>
      </trkpt>
      <trkpt lat="45.10892" lon="5.60292">
        <ele>1282</ele>
        <time>2013-03-03T08:55:18.000Z</time>
      </trkpt>
      <trkpt lat="45.10886" lon="5.60295">
        <ele>1282</ele>
        <time>2013-03-03T08:55:21.000Z</time>
      </trkpt>
      <trkpt lat="45.1088" lon="5.60297">
        <ele>1282</ele>
        <time>2013-03-03T08:55:23.000Z</time>
      </trkpt>
      <trkpt lat="45.10875" lon="5.60298">
        <ele>1283</ele>
        <time>2013-03-03T08:55:25.000Z</time>
      </trkpt>
      <trkpt lat="45.10869" lon="5.60299">
        <ele>1283</ele>
        <time>2013-03-03T08:55:27.000Z</time>
      </trkpt>
      <trkpt lat="45.10865" lon="5.60303">
        <ele>1283</ele>
        <time>2013-03-03T08:55:30.000Z</time>
      </trkpt>
      <trkpt lat="45.10861" lon="5.60306">
        <ele>1283</ele>
        <time>2013-03-03T08:55:34.000Z</time>
      </trkpt>
      <trkpt lat="45.10855" lon="5.60306">
        <ele>1283</ele>
        <time>2013-03-03T08:55:37.000Z</time>
      </trkpt>
      <trkpt lat="45.10851" lon="5.6031">
        <ele>1283</ele>
        <time>2013-03-03T08:55:41.000Z</time>
      </trkpt>
      <trkpt lat="45.10847" lon="5.60316">
        <ele>1282</ele>
        <time>2013-03-03T08:55:44.000Z</time>
      </trkpt>
      <trkpt lat="45.10846" lon="5.60322">
        <ele>1282</ele>
        <time>2013-03-03T08:55:47.000Z</time>
      </trkpt>
      <trkpt lat="45.10841" lon="5.60324">
        <ele>1281</ele>
        <time>2013-03-03T08:55:51.000Z</time>
      </trkpt>
      <trkpt lat="45.10836" lon="5.60325">
        <ele>1281</ele>
        <time>2013-03-03T08:55:55.000Z</time>
      </trkpt>
      <trkpt lat="45.10832" lon="5.6033">
        <ele>1282</ele>
        <time>2013-03-03T08:55:59.000Z</time>
      </trkpt>
      <trkpt lat="45.10828" lon="5.60327">
        <ele>1286</ele>
        <time>2013-03-03T08:56:15.000Z</time>
      </trkpt>
      <trkpt lat="45.10828" lon="5.60327">
        <ele>1286</ele>
        <time>2013-03-03T08:56:15.000Z</time>
      </trkpt>
      <trkpt lat="45.10828" lon="5.60327">
        <ele>1286</ele>
        <time>2013-03-03T08:56:16.000Z</time>
      </trkpt>
      <trkpt lat="45.10822" lon="5.60329">
        <ele>1288</ele>
        <time>2013-03-03T08:56:20.000Z</time>
      </trkpt>
      <trkpt lat="45.10817" lon="5.60331">
        <ele>1290</ele>
        <time>2013-03-03T08:56:26.000Z</time>
      </trkpt>
      <trkpt lat="45.10811" lon="5.60333">
        <ele>1292</ele>
        <time>2013-03-03T08:56:37.000Z</time>
      </trkpt>
      <trkpt lat="45.10809" lon="5.6034">
        <ele>1285</ele>
        <time>2013-03-03T08:56:43.000Z</time>
      </trkpt>
      <trkpt lat="45.10809" lon="5.6034">
        <ele>1285</ele>
        <time>2013-03-03T08:56:43.000Z</time>
      </trkpt>
      <trkpt lat="45.10809" lon="5.6034">
        <ele>1285</ele>
        <time>2013-03-03T08:56:46.000Z</time>
      </trkpt>
      <trkpt lat="45.10804" lon="5.60344">
        <ele>1286</ele>
        <time>2013-03-03T08:56:51.000Z</time>
      </trkpt>
      <trkpt lat="45.10799" lon="5.60345">
        <ele>1286</ele>
        <time>2013-03-03T08:57:01.000Z</time>
      </trkpt>
      <trkpt lat="45.10794" lon="5.60344">
        <ele>1287</ele>
        <time>2013-03-03T08:57:04.000Z</time>
      </trkpt>
      <trkpt lat="45.10788" lon="5.60348">
        <ele>1288</ele>
        <time>2013-03-03T08:57:28.000Z</time>
      </trkpt>
      <trkpt lat="45.10784" lon="5.60349">
        <ele>1288</ele>
        <time>2013-03-03T08:57:32.000Z</time>
      </trkpt>
      <trkpt lat="45.10784" lon="5.60349">
        <ele>1288</ele>
        <time>2013-03-03T08:57:32.000Z</time>
      </trkpt>
      <trkpt lat="45.10784" lon="5.60349">
        <ele>1288</ele>
        <time>2013-03-03T08:57:33.000Z</time>
      </trkpt>
      <trkpt lat="45.10774" lon="5.60346">
        <ele>1290</ele>
        <time>2013-03-03T08:57:35.000Z</time>
      </trkpt>
      <trkpt lat="45.10769" lon="5.60345">
        <ele>1291</ele>
        <time>2013-03-03T08:57:36.000Z</time>
      </trkpt>
      <trkpt lat="45.10762" lon="5.60344">
        <ele>1292</ele>
        <time>2013-03-03T08:57:38.000Z</time>
      </trkpt>
      <trkpt lat="45.10757" lon="5.60344">
        <ele>1293</ele>
        <time>2013-03-03T08:57:41.000Z</time>
      </trkpt>
      <trkpt lat="45.1075" lon="5.60344">
        <ele>1294</ele>
        <time>2013-03-03T08:57:45.000Z</time>
      </trkpt>
      <trkpt lat="45.10745" lon="5.60344">
        <ele>1297</ele>
        <time>2013-03-03T08:57:47.000Z</time>
      </trkpt>
      <trkpt lat="45.10739" lon="5.60349">
        <ele>1297</ele>
        <time>2013-03-03T08:57:50.000Z</time>
      </trkpt>
      <trkpt lat="45.10734" lon="5.60354">
        <ele>1298</ele>
        <time>2013-03-03T08:57:55.000Z</time>
      </trkpt>
      <trkpt lat="45.1073" lon="5.6035">
        <ele>1298</ele>
        <time>2013-03-03T08:57:57.000Z</time>
      </trkpt>
      <trkpt lat="45.10724" lon="5.60354">
        <ele>1298</ele>
        <time>2013-03-03T08:58:00.000Z</time>
      </trkpt>
      <trkpt lat="45.10719" lon="5.60355">
        <ele>1298</ele>
        <time>2013-03-03T08:58:04.000Z</time>
      </trkpt>
      <trkpt lat="45.10714" lon="5.60357">
        <ele>1299</ele>
        <time>2013-03-03T08:58:11.000Z</time>
      </trkpt>
      <trkpt lat="45.10712" lon="5.60364">
        <ele>1298</ele>
        <time>2013-03-03T08:58:18.000Z</time>
      </trkpt>
      <trkpt lat="45.10706" lon="5.6036">
        <ele>1299</ele>
        <time>2013-03-03T08:58:21.000Z</time>
      </trkpt>
      <trkpt lat="45.107" lon="5.60362">
        <ele>1299</ele>
        <time>2013-03-03T08:58:24.000Z</time>
      </trkpt>
      <trkpt lat="45.10695" lon="5.60363">
        <ele>1300</ele>
        <time>2013-03-03T08:58:29.000Z</time>
      </trkpt>
      <trkpt lat="45.10691" lon="5.60361">
        <ele>1300</ele>
        <time>2013-03-03T08:58:36.000Z</time>
      </trkpt>
      <trkpt lat="45.10685" lon="5.60365">
        <ele>1300</ele>
        <time>2013-03-03T08:58:44.000Z</time>
      </trkpt>
      <trkpt lat="45.10681" lon="5.60369">
        <ele>1300</ele>
        <time>2013-03-03T08:58:47.000Z</time>
      </trkpt>
      <trkpt lat="45.10676" lon="5.60368">
        <ele>1300</ele>
        <time>2013-03-03T08:58:53.000Z</time>
      </trkpt>
      <trkpt lat="45.10671" lon="5.60369">
        <ele>1300</ele>
        <time>2013-03-03T08:59:00.000Z</time>
      </trkpt>
      <trkpt lat="45.10665" lon="5.6037">
        <ele>1305</ele>
        <time>2013-03-03T08:59:08.000Z</time>
      </trkpt>
      <trkpt lat="45.1066" lon="5.60372">
        <ele>1304</ele>
        <time>2013-03-03T08:59:13.000Z</time>
      </trkpt>
      <trkpt lat="45.10654" lon="5.60371">
        <ele>1305</ele>
        <time>2013-03-03T08:59:18.000Z</time>
      </trkpt>
      <trkpt lat="45.10652" lon="5.60377">
        <ele>1304</ele>
        <time>2013-03-03T08:59:24.000Z</time>
      </trkpt>
      <trkpt lat="45.10648" lon="5.60374">
        <ele>1304</ele>
        <time>2013-03-03T08:59:28.000Z</time>
      </trkpt>
      <trkpt lat="45.10642" lon="5.60375">
        <ele>1304</ele>
        <time>2013-03-03T08:59:32.000Z</time>
      </trkpt>
      <trkpt lat="45.10638" lon="5.60379">
        <ele>1304</ele>
        <time>2013-03-03T08:59:37.000Z</time>
      </trkpt>
      <trkpt lat="45.10634" lon="5.60374">
        <ele>1305</ele>
        <time>2013-03-03T08:59:47.000Z</time>
      </trkpt>
      <trkpt lat="45.1063" lon="5.6037">
        <ele>1305</ele>
        <time>2013-03-03T08:59:52.000Z</time>
      </trkpt>
      <trkpt lat="45.10624" lon="5.6037">
        <ele>1305</ele>
        <time>2013-03-03T08:59:57.000Z</time>
      </trkpt>
      <trkpt lat="45.1062" lon="5.60374">
        <ele>1305</ele>
        <time>2013-03-03T09:00:03.000Z</time>
      </trkpt>
      <trkpt lat="45.10616" lon="5.6037">
        <ele>1306</ele>
        <time>2013-03-03T09:00:10.000Z</time>
      </trkpt>
      <trkpt lat="45.10611" lon="5.60373">
        <ele>1306</ele>
        <time>2013-03-03T09:00:15.000Z</time>
      </trkpt>
      <trkpt lat="45.10605" lon="5.60371">
        <ele>1306</ele>
        <time>2013-03-03T09:00:19.000Z</time>
      </trkpt>
      <trkpt lat="45.10601" lon="5.60367">
        <ele>1307</ele>
        <time>2013-03-03T09:00:22.000Z</time>
      </trkpt>
      <trkpt lat="45.10596" lon="5.60369">
        <ele>1307</ele>
        <time>2013-03-03T09:00:26.000Z</time>
      </trkpt>
      <trkpt lat="45.10596" lon="5.60369">
        <ele>1307</ele>
        <time>2013-03-03T09:00:26.000Z</time>
      </trkpt>
      <trkpt lat="45.10596" lon="5.60369">
        <ele>1307</ele>
        <time>2013-03-03T09:00:27.000Z</time>
      </trkpt>
      <trkpt lat="45.10592" lon="5.60369">
        <ele>1307</ele>
        <time>2013-03-03T09:00:35.000Z</time>
      </trkpt>
      <trkpt lat="45.10588" lon="5.60364">
        <ele>1308</ele>
        <time>2013-03-03T09:00:41.000Z</time>
      </trkpt>
      <trkpt lat="45.10584" lon="5.6036">
        <ele>1308</ele>
        <time>2013-03-03T09:00:48.000Z</time>
      </trkpt>
      <trkpt lat="45.10579" lon="5.60363">
        <ele>1312</ele>
        <time>2013-03-03T09:00:53.000Z</time>
      </trkpt>
      <trkpt lat="45.10573" lon="5.60363">
        <ele>1312</ele>
        <time>2013-03-03T09:01:05.000Z</time>
      </trkpt>
      <trkpt lat="45.10569" lon="5.60358">
        <ele>1312</ele>
        <time>2013-03-03T09:01:09.000Z</time>
      </trkpt>
      <trkpt lat="45.10566" lon="5.60353">
        <ele>1313</ele>
        <time>2013-03-03T09:01:18.000Z</time>
      </trkpt>
      <trkpt lat="45.10558" lon="5.60355">
        <ele>1313</ele>
        <time>2013-03-03T09:01:24.000Z</time>
      </trkpt>
      <trkpt lat="45.10551" lon="5.60355">
        <ele>1313</ele>
        <time>2013-03-03T09:01:29.000Z</time>
      </trkpt>
      <trkpt lat="45.10546" lon="5.60354">
        <ele>1313</ele>
        <time>2013-03-03T09:01:33.000Z</time>
      </trkpt>
      <trkpt lat="45.10541" lon="5.60353">
        <ele>1313</ele>
        <time>2013-03-03T09:01:38.000Z</time>
      </trkpt>
      <trkpt lat="45.10541" lon="5.60353">
        <ele>1313</ele>
        <time>2013-03-03T09:01:38.000Z</time>
      </trkpt>
      <trkpt lat="45.10541" lon="5.60353">
        <ele>1313</ele>
        <time>2013-03-03T09:01:41.000Z</time>
      </trkpt>
      <trkpt lat="45.10535" lon="5.60353">
        <ele>1313</ele>
        <time>2013-03-03T09:01:47.000Z</time>
      </trkpt>
      <trkpt lat="45.1053" lon="5.60352">
        <ele>1314</ele>
        <time>2013-03-03T09:01:54.000Z</time>
      </trkpt>
      <trkpt lat="45.10524" lon="5.6035">
        <ele>1314</ele>
        <time>2013-03-03T09:01:58.000Z</time>
      </trkpt>
      <trkpt lat="45.10518" lon="5.60351">
        <ele>1315</ele>
        <time>2013-03-03T09:02:02.000Z</time>
      </trkpt>
      <trkpt lat="45.10513" lon="5.60349">
        <ele>1315</ele>
        <time>2013-03-03T09:02:10.000Z</time>
      </trkpt>
      <trkpt lat="45.10507" lon="5.60346">
        <ele>1316</ele>
        <time>2013-03-03T09:02:13.000Z</time>
      </trkpt>
      <trkpt lat="45.10503" lon="5.60342">
        <ele>1317</ele>
        <time>2013-03-03T09:02:24.000Z</time>
      </trkpt>
      <trkpt lat="45.10497" lon="5.60342">
        <ele>1319</ele>
        <time>2013-03-03T09:02:29.000Z</time>
      </trkpt>
      <trkpt lat="45.10492" lon="5.60341">
        <ele>1319</ele>
        <time>2013-03-03T09:02:32.000Z</time>
      </trkpt>
      <trkpt lat="45.10487" lon="5.60339">
        <ele>1319</ele>
        <time>2013-03-03T09:02:37.000Z</time>
      </trkpt>
      <trkpt lat="45.10482" lon="5.60337">
        <ele>1320</ele>
        <time>2013-03-03T09:02:44.000Z</time>
      </trkpt>
      <trkpt lat="45.10477" lon="5.60337">
        <ele>1320</ele>
        <time>2013-03-03T09:02:47.000Z</time>
      </trkpt>
      <trkpt lat="45.10473" lon="5.6034">
        <ele>1320</ele>
        <time>2013-03-03T09:02:53.000Z</time>
      </trkpt>
      <trkpt lat="45.10468" lon="5.60338">
        <ele>1320</ele>
        <time>2013-03-03T09:02:59.000Z</time>
      </trkpt>
      <trkpt lat="45.10463" lon="5.6034">
        <ele>1320</ele>
        <time>2013-03-03T09:03:04.000Z</time>
      </trkpt>
      <trkpt lat="45.10458" lon="5.60339">
        <ele>1321</ele>
        <time>2013-03-03T09:03:08.000Z</time>
      </trkpt>
      <trkpt lat="45.10453" lon="5.60341">
        <ele>1321</ele>
        <time>2013-03-03T09:03:13.000Z</time>
      </trkpt>
      <trkpt lat="45.10448" lon="5.60342">
        <ele>1321</ele>
        <time>2013-03-03T09:03:18.000Z</time>
      </trkpt>
      <trkpt lat="45.10443" lon="5.60341">
        <ele>1322</ele>
        <time>2013-03-03T09:03:23.000Z</time>
      </trkpt>
      <trkpt lat="45.10438" lon="5.60338">
        <ele>1322</ele>
        <time>2013-03-03T09:03:27.000Z</time>
      </trkpt>
      <trkpt lat="45.10433" lon="5.60338">
        <ele>1323</ele>
        <time>2013-03-03T09:03:31.000Z</time>
      </trkpt>
      <trkpt lat="45.10428" lon="5.60339">
        <ele>1324</ele>
        <time>2013-03-03T09:03:36.000Z</time>
      </trkpt>
      <trkpt lat="45.10421" lon="5.60336">
        <ele>1325</ele>
        <time>2013-03-03T09:03:43.000Z</time>
      </trkpt>
      <trkpt lat="45.10416" lon="5.60335">
        <ele>1326</ele>
        <time>2013-03-03T09:03:49.000Z</time>
      </trkpt>
      <trkpt lat="45.10411" lon="5.60336">
        <ele>1327</ele>
        <time>2013-03-03T09:03:52.000Z</time>
      </trkpt>
      <trkpt lat="45.10405" lon="5.60338">
        <ele>1328</ele>
        <time>2013-03-03T09:03:57.000Z</time>
      </trkpt>
      <trkpt lat="45.104" lon="5.60337">
        <ele>1329</ele>
        <time>2013-03-03T09:04:02.000Z</time>
      </trkpt>
      <trkpt lat="45.10397" lon="5.6033">
        <ele>1337</ele>
        <time>2013-03-03T09:04:08.000Z</time>
      </trkpt>
      <trkpt lat="45.10393" lon="5.60327">
        <ele>1338</ele>
        <time>2013-03-03T09:04:13.000Z</time>
      </trkpt>
      <trkpt lat="45.1039" lon="5.60322">
        <ele>1339</ele>
        <time>2013-03-03T09:04:16.000Z</time>
      </trkpt>
      <trkpt lat="45.10386" lon="5.60321">
        <ele>1340</ele>
        <time>2013-03-03T09:04:26.000Z</time>
      </trkpt>
      <trkpt lat="45.1038" lon="5.60321">
        <ele>1341</ele>
        <time>2013-03-03T09:04:30.000Z</time>
      </trkpt>
      <trkpt lat="45.10375" lon="5.60325">
        <ele>1341</ele>
        <time>2013-03-03T09:04:34.000Z</time>
      </trkpt>
      <trkpt lat="45.10372" lon="5.6033">
        <ele>1341</ele>
        <time>2013-03-03T09:04:36.000Z</time>
      </trkpt>
      <trkpt lat="45.10366" lon="5.60328">
        <ele>1341</ele>
        <time>2013-03-03T09:04:46.000Z</time>
      </trkpt>
      <trkpt lat="45.10361" lon="5.60329">
        <ele>1341</ele>
        <time>2013-03-03T09:04:51.000Z</time>
      </trkpt>
      <trkpt lat="45.10357" lon="5.60325">
        <ele>1341</ele>
        <time>2013-03-03T09:04:57.000Z</time>
      </trkpt>
      <trkpt lat="45.10352" lon="5.60323">
        <ele>1341</ele>
        <time>2013-03-03T09:05:03.000Z</time>
      </trkpt>
      <trkpt lat="45.10347" lon="5.60325">
        <ele>1340</ele>
        <time>2013-03-03T09:05:05.000Z</time>
      </trkpt>
      <trkpt lat="45.10347" lon="5.60325">
        <ele>1340</ele>
        <time>2013-03-03T09:05:05.000Z</time>
      </trkpt>
      <trkpt lat="45.10347" lon="5.60325">
        <ele>1340</ele>
        <time>2013-03-03T09:05:06.000Z</time>
      </trkpt>
      <trkpt lat="45.10341" lon="5.60329">
        <ele>1339</ele>
        <time>2013-03-03T09:05:09.000Z</time>
      </trkpt>
      <trkpt lat="45.10342" lon="5.60322">
        <ele>1340</ele>
        <time>2013-03-03T09:05:11.000Z</time>
      </trkpt>
      <trkpt lat="45.10337" lon="5.60323">
        <ele>1340</ele>
        <time>2013-03-03T09:05:14.000Z</time>
      </trkpt>
      <trkpt lat="45.10332" lon="5.60319">
        <ele>1344</ele>
        <time>2013-03-03T09:05:18.000Z</time>
      </trkpt>
      <trkpt lat="45.10332" lon="5.60319">
        <ele>1344</ele>
        <time>2013-03-03T09:05:18.000Z</time>
      </trkpt>
      <trkpt lat="45.10332" lon="5.60319">
        <ele>1344</ele>
        <time>2013-03-03T09:05:19.000Z</time>
      </trkpt>
      <trkpt lat="45.10327" lon="5.60321">
        <ele>1344</ele>
        <time>2013-03-03T09:05:21.000Z</time>
      </trkpt>
      <trkpt lat="45.10322" lon="5.6032">
        <ele>1345</ele>
        <time>2013-03-03T09:05:26.000Z</time>
      </trkpt>
      <trkpt lat="45.10316" lon="5.60318">
        <ele>1347</ele>
        <time>2013-03-03T09:05:30.000Z</time>
      </trkpt>
      <trkpt lat="45.10315" lon="5.6031">
        <ele>1349</ele>
        <time>2013-03-03T09:05:36.000Z</time>
      </trkpt>
      <trkpt lat="45.10311" lon="5.60306">
        <ele>1350</ele>
        <time>2013-03-03T09:05:39.000Z</time>
      </trkpt>
      <trkpt lat="45.10311" lon="5.60306">
        <ele>1350</ele>
        <time>2013-03-03T09:05:39.000Z</time>
      </trkpt>
      <trkpt lat="45.10311" lon="5.60306">
        <ele>1350</ele>
        <time>2013-03-03T09:05:40.000Z</time>
      </trkpt>
      <trkpt lat="45.10307" lon="5.60306">
        <ele>1350</ele>
        <time>2013-03-03T09:05:43.000Z</time>
      </trkpt>
      <trkpt lat="45.10302" lon="5.60306">
        <ele>1351</ele>
        <time>2013-03-03T09:05:48.000Z</time>
      </trkpt>
      <trkpt lat="45.10299" lon="5.60312">
        <ele>1350</ele>
        <time>2013-03-03T09:05:51.000Z</time>
      </trkpt>
      <trkpt lat="45.10299" lon="5.60312">
        <ele>1350</ele>
        <time>2013-03-03T09:05:51.000Z</time>
      </trkpt>
      <trkpt lat="45.10299" lon="5.60312">
        <ele>1350</ele>
        <time>2013-03-03T09:05:52.000Z</time>
      </trkpt>
      <trkpt lat="45.10296" lon="5.60319">
        <ele>1350</ele>
        <time>2013-03-03T09:05:59.000Z</time>
      </trkpt>
      <trkpt lat="45.10291" lon="5.60325">
        <ele>1350</ele>
        <time>2013-03-03T09:06:03.000Z</time>
      </trkpt>
      <trkpt lat="45.10287" lon="5.60328">
        <ele>1350</ele>
        <time>2013-03-03T09:06:07.000Z</time>
      </trkpt>
      <trkpt lat="45.10281" lon="5.60328">
        <ele>1350</ele>
        <time>2013-03-03T09:06:12.000Z</time>
      </trkpt>
      <trkpt lat="45.10276" lon="5.6033">
        <ele>1351</ele>
        <time>2013-03-03T09:06:18.000Z</time>
      </trkpt>
      <trkpt lat="45.10271" lon="5.60325">
        <ele>1351</ele>
        <time>2013-03-03T09:06:23.000Z</time>
      </trkpt>
      <trkpt lat="45.10266" lon="5.60324">
        <ele>1351</ele>
        <time>2013-03-03T09:06:26.000Z</time>
      </trkpt>
      <trkpt lat="45.1026" lon="5.60322">
        <ele>1351</ele>
        <time>2013-03-03T09:06:30.000Z</time>
      </trkpt>
      <trkpt lat="45.10256" lon="5.60324">
        <ele>1351</ele>
        <time>2013-03-03T09:06:33.000Z</time>
      </trkpt>
      <trkpt lat="45.1025" lon="5.60322">
        <ele>1353</ele>
        <time>2013-03-03T09:06:38.000Z</time>
      </trkpt>
      <trkpt lat="45.10246" lon="5.60326">
        <ele>1352</ele>
        <time>2013-03-03T09:06:41.000Z</time>
      </trkpt>
      <trkpt lat="45.10241" lon="5.60323">
        <ele>1353</ele>
        <time>2013-03-03T09:06:47.000Z</time>
      </trkpt>
      <trkpt lat="45.10236" lon="5.60321">
        <ele>1354</ele>
        <time>2013-03-03T09:06:54.000Z</time>
      </trkpt>
      <trkpt lat="45.10234" lon="5.60314">
        <ele>1356</ele>
        <time>2013-03-03T09:07:07.000Z</time>
      </trkpt>
      <trkpt lat="45.10228" lon="5.60313">
        <ele>1356</ele>
        <time>2013-03-03T09:07:13.000Z</time>
      </trkpt>
      <trkpt lat="45.10224" lon="5.6031">
        <ele>1357</ele>
        <time>2013-03-03T09:07:17.000Z</time>
      </trkpt>
      <trkpt lat="45.10224" lon="5.6031">
        <ele>1357</ele>
        <time>2013-03-03T09:07:17.000Z</time>
      </trkpt>
      <trkpt lat="45.10224" lon="5.6031">
        <ele>1357</ele>
        <time>2013-03-03T09:07:18.000Z</time>
      </trkpt>
      <trkpt lat="45.10218" lon="5.60304">
        <ele>1358</ele>
        <time>2013-03-03T09:07:21.000Z</time>
      </trkpt>
      <trkpt lat="45.10213" lon="5.603">
        <ele>1358</ele>
        <time>2013-03-03T09:07:26.000Z</time>
      </trkpt>
      <trkpt lat="45.10208" lon="5.603">
        <ele>1358</ele>
        <time>2013-03-03T09:07:29.000Z</time>
      </trkpt>
      <trkpt lat="45.10203" lon="5.603">
        <ele>1358</ele>
        <time>2013-03-03T09:07:35.000Z</time>
      </trkpt>
      <trkpt lat="45.10203" lon="5.603">
        <ele>1358</ele>
        <time>2013-03-03T09:07:35.000Z</time>
      </trkpt>
      <trkpt lat="45.10203" lon="5.603">
        <ele>1358</ele>
        <time>2013-03-03T09:07:38.000Z</time>
      </trkpt>
      <trkpt lat="45.10198" lon="5.60298">
        <ele>1359</ele>
        <time>2013-03-03T09:07:41.000Z</time>
      </trkpt>
      <trkpt lat="45.10194" lon="5.60295">
        <ele>1359</ele>
        <time>2013-03-03T09:07:44.000Z</time>
      </trkpt>
      <trkpt lat="45.1019" lon="5.60291">
        <ele>1360</ele>
        <time>2013-03-03T09:07:48.000Z</time>
      </trkpt>
      <trkpt lat="45.10186" lon="5.60295">
        <ele>1359</ele>
        <time>2013-03-03T09:07:55.000Z</time>
      </trkpt>
      <trkpt lat="45.10182" lon="5.60298">
        <ele>1359</ele>
        <time>2013-03-03T09:08:01.000Z</time>
      </trkpt>
      <trkpt lat="45.10177" lon="5.603">
        <ele>1359</ele>
        <time>2013-03-03T09:08:09.000Z</time>
      </trkpt>
      <trkpt lat="45.10172" lon="5.603">
        <ele>1359</ele>
        <time>2013-03-03T09:08:15.000Z</time>
      </trkpt>
      <trkpt lat="45.10168" lon="5.60301">
        <ele>1358</ele>
        <time>2013-03-03T09:08:22.000Z</time>
      </trkpt>
      <trkpt lat="45.10162" lon="5.603">
        <ele>1360</ele>
        <time>2013-03-03T09:08:28.000Z</time>
      </trkpt>
      <trkpt lat="45.10156" lon="5.60301">
        <ele>1360</ele>
        <time>2013-03-03T09:08:38.000Z</time>
      </trkpt>
      <trkpt lat="45.10152" lon="5.60305">
        <ele>1360</ele>
        <time>2013-03-03T09:08:46.000Z</time>
      </trkpt>
      <trkpt lat="45.10146" lon="5.60303">
        <ele>1360</ele>
        <time>2013-03-03T09:08:55.000Z</time>
      </trkpt>
      <trkpt lat="45.1014" lon="5.603">
        <ele>1361</ele>
        <time>2013-03-03T09:09:01.000Z</time>
      </trkpt>
      <trkpt lat="45.10136" lon="5.60302">
        <ele>1360</ele>
        <time>2013-03-03T09:09:10.000Z</time>
      </trkpt>
      <trkpt lat="45.10131" lon="5.60302">
        <ele>1361</ele>
        <time>2013-03-03T09:09:15.000Z</time>
      </trkpt>
      <trkpt lat="45.10126" lon="5.60304">
        <ele>1360</ele>
        <time>2013-03-03T09:09:21.000Z</time>
      </trkpt>
      <trkpt lat="45.10126" lon="5.60304">
        <ele>1360</ele>
        <time>2013-03-03T09:09:21.000Z</time>
      </trkpt>
      <trkpt lat="45.10126" lon="5.60304">
        <ele>1360</ele>
        <time>2013-03-03T09:09:24.000Z</time>
      </trkpt>
      <trkpt lat="45.10121" lon="5.60302">
        <ele>1361</ele>
        <time>2013-03-03T09:09:28.000Z</time>
      </trkpt>
      <trkpt lat="45.10116" lon="5.60304">
        <ele>1361</ele>
        <time>2013-03-03T09:09:32.000Z</time>
      </trkpt>
      <trkpt lat="45.10116" lon="5.60304">
        <ele>1361</ele>
        <time>2013-03-03T09:09:32.000Z</time>
      </trkpt>
      <trkpt lat="45.10116" lon="5.60304">
        <ele>1361</ele>
        <time>2013-03-03T09:09:34.000Z</time>
      </trkpt>
      <trkpt lat="45.10112" lon="5.60302">
        <ele>1361</ele>
        <time>2013-03-03T09:09:44.000Z</time>
      </trkpt>
      <trkpt lat="45.10106" lon="5.60303">
        <ele>1361</ele>
        <time>2013-03-03T09:09:50.000Z</time>
      </trkpt>
      <trkpt lat="45.10101" lon="5.60302">
        <ele>1361</ele>
        <time>2013-03-03T09:09:54.000Z</time>
      </trkpt>
      <trkpt lat="45.10096" lon="5.60304">
        <ele>1361</ele>
        <time>2013-03-03T09:09:58.000Z</time>
      </trkpt>
      <trkpt lat="45.10091" lon="5.60303">
        <ele>1361</ele>
        <time>2013-03-03T09:10:03.000Z</time>
      </trkpt>
      <trkpt lat="45.10086" lon="5.60302">
        <ele>1361</ele>
        <time>2013-03-03T09:10:10.000Z</time>
      </trkpt>
      <trkpt lat="45.10081" lon="5.60303">
        <ele>1366</ele>
        <time>2013-03-03T09:10:16.000Z</time>
      </trkpt>
      <trkpt lat="45.10074" lon="5.60303">
        <ele>1366</ele>
        <time>2013-03-03T09:10:21.000Z</time>
      </trkpt>
      <trkpt lat="45.10068" lon="5.60303">
        <ele>1367</ele>
        <time>2013-03-03T09:10:26.000Z</time>
      </trkpt>
      <trkpt lat="45.10063" lon="5.60302">
        <ele>1367</ele>
        <time>2013-03-03T09:10:31.000Z</time>
      </trkpt>
      <trkpt lat="45.10057" lon="5.603">
        <ele>1368</ele>
        <time>2013-03-03T09:10:36.000Z</time>
      </trkpt>
      <trkpt lat="45.10052" lon="5.603">
        <ele>1368</ele>
        <time>2013-03-03T09:10:42.000Z</time>
      </trkpt>
      <trkpt lat="45.10048" lon="5.60302">
        <ele>1369</ele>
        <time>2013-03-03T09:10:47.000Z</time>
      </trkpt>
      <trkpt lat="45.10043" lon="5.603">
        <ele>1369</ele>
        <time>2013-03-03T09:10:53.000Z</time>
      </trkpt>
      <trkpt lat="45.10038" lon="5.603">
        <ele>1370</ele>
        <time>2013-03-03T09:10:59.000Z</time>
      </trkpt>
      <trkpt lat="45.10033" lon="5.603">
        <ele>1370</ele>
        <time>2013-03-03T09:11:06.000Z</time>
      </trkpt>
      <trkpt lat="45.10028" lon="5.60299">
        <ele>1371</ele>
        <time>2013-03-03T09:11:11.000Z</time>
      </trkpt>
      <trkpt lat="45.10022" lon="5.60299">
        <ele>1371</ele>
        <time>2013-03-03T09:11:18.000Z</time>
      </trkpt>
      <trkpt lat="45.10018" lon="5.60297">
        <ele>1372</ele>
        <time>2013-03-03T09:11:23.000Z</time>
      </trkpt>
      <trkpt lat="45.10012" lon="5.60296">
        <ele>1372</ele>
        <time>2013-03-03T09:11:29.000Z</time>
      </trkpt>
      <trkpt lat="45.10006" lon="5.60295">
        <ele>1372</ele>
        <time>2013-03-03T09:11:35.000Z</time>
      </trkpt>
      <trkpt lat="45.10001" lon="5.60296">
        <ele>1373</ele>
        <time>2013-03-03T09:11:41.000Z</time>
      </trkpt>
      <trkpt lat="45.09996" lon="5.60295">
        <ele>1380</ele>
        <time>2013-03-03T09:11:48.000Z</time>
      </trkpt>
      <trkpt lat="45.09996" lon="5.60295">
        <ele>1380</ele>
        <time>2013-03-03T09:11:48.000Z</time>
      </trkpt>
      <trkpt lat="45.09996" lon="5.60295">
        <ele>1380</ele>
        <time>2013-03-03T09:11:49.000Z</time>
      </trkpt>
      <trkpt lat="45.0999" lon="5.60293">
        <ele>1381</ele>
        <time>2013-03-03T09:11:56.000Z</time>
      </trkpt>
      <trkpt lat="45.09985" lon="5.60294">
        <ele>1381</ele>
        <time>2013-03-03T09:12:02.000Z</time>
      </trkpt>
      <trkpt lat="45.0998" lon="5.60294">
        <ele>1381</ele>
        <time>2013-03-03T09:12:08.000Z</time>
      </trkpt>
      <trkpt lat="45.09975" lon="5.60294">
        <ele>1381</ele>
        <time>2013-03-03T09:12:15.000Z</time>
      </trkpt>
      <trkpt lat="45.0997" lon="5.60292">
        <ele>1382</ele>
        <time>2013-03-03T09:12:20.000Z</time>
      </trkpt>
      <trkpt lat="45.09966" lon="5.6029">
        <ele>1382</ele>
        <time>2013-03-03T09:12:25.000Z</time>
      </trkpt>
      <trkpt lat="45.09961" lon="5.6029">
        <ele>1382</ele>
        <time>2013-03-03T09:12:30.000Z</time>
      </trkpt>
      <trkpt lat="45.09956" lon="5.60289">
        <ele>1383</ele>
        <time>2013-03-03T09:12:35.000Z</time>
      </trkpt>
      <trkpt lat="45.09951" lon="5.60289">
        <ele>1383</ele>
        <time>2013-03-03T09:12:40.000Z</time>
      </trkpt>
      <trkpt lat="45.09946" lon="5.60288">
        <ele>1383</ele>
        <time>2013-03-03T09:12:46.000Z</time>
      </trkpt>
      <trkpt lat="45.0994" lon="5.60288">
        <ele>1383</ele>
        <time>2013-03-03T09:12:52.000Z</time>
      </trkpt>
      <trkpt lat="45.09935" lon="5.60288">
        <ele>1384</ele>
        <time>2013-03-03T09:12:58.000Z</time>
      </trkpt>
      <trkpt lat="45.0993" lon="5.60287">
        <ele>1384</ele>
        <time>2013-03-03T09:13:04.000Z</time>
      </trkpt>
      <trkpt lat="45.09925" lon="5.60284">
        <ele>1384</ele>
        <time>2013-03-03T09:13:10.000Z</time>
      </trkpt>
      <trkpt lat="45.0992" lon="5.60284">
        <ele>1384</ele>
        <time>2013-03-03T09:13:16.000Z</time>
      </trkpt>
      <trkpt lat="45.09916" lon="5.60285">
        <ele>1391</ele>
        <time>2013-03-03T09:13:22.000Z</time>
      </trkpt>
      <trkpt lat="45.0991" lon="5.60284">
        <ele>1391</ele>
        <time>2013-03-03T09:13:28.000Z</time>
      </trkpt>
      <trkpt lat="45.09905" lon="5.60283">
        <ele>1391</ele>
        <time>2013-03-03T09:13:33.000Z</time>
      </trkpt>
      <trkpt lat="45.099" lon="5.60282">
        <ele>1391</ele>
        <time>2013-03-03T09:13:39.000Z</time>
      </trkpt>
      <trkpt lat="45.09895" lon="5.60281">
        <ele>1392</ele>
        <time>2013-03-03T09:13:45.000Z</time>
      </trkpt>
      <trkpt lat="45.0989" lon="5.60281">
        <ele>1392</ele>
        <time>2013-03-03T09:13:51.000Z</time>
      </trkpt>
      <trkpt lat="45.09886" lon="5.60279">
        <ele>1392</ele>
        <time>2013-03-03T09:13:56.000Z</time>
      </trkpt>
      <trkpt lat="45.0988" lon="5.6028">
        <ele>1393</ele>
        <time>2013-03-03T09:14:02.000Z</time>
      </trkpt>
      <trkpt lat="45.09875" lon="5.6028">
        <ele>1393</ele>
        <time>2013-03-03T09:14:08.000Z</time>
      </trkpt>
      <trkpt lat="45.0987" lon="5.60279">
        <ele>1394</ele>
        <time>2013-03-03T09:14:13.000Z</time>
      </trkpt>
      <trkpt lat="45.09864" lon="5.60279">
        <ele>1394</ele>
        <time>2013-03-03T09:14:18.000Z</time>
      </trkpt>
      <trkpt lat="45.09859" lon="5.60281">
        <ele>1394</ele>
        <time>2013-03-03T09:14:24.000Z</time>
      </trkpt>
      <trkpt lat="45.09854" lon="5.60283">
        <ele>1395</ele>
        <time>2013-03-03T09:14:31.000Z</time>
      </trkpt>
      <trkpt lat="45.09849" lon="5.60284">
        <ele>1395</ele>
        <time>2013-03-03T09:14:37.000Z</time>
      </trkpt>
      <trkpt lat="45.09845" lon="5.60287">
        <ele>1395</ele>
        <time>2013-03-03T09:14:43.000Z</time>
      </trkpt>
      <trkpt lat="45.0984" lon="5.60289">
        <ele>1395</ele>
        <time>2013-03-03T09:14:49.000Z</time>
      </trkpt>
      <trkpt lat="45.09836" lon="5.6029">
        <ele>1395</ele>
        <time>2013-03-03T09:14:55.000Z</time>
      </trkpt>
      <trkpt lat="45.09831" lon="5.60291">
        <ele>1405</ele>
        <time>2013-03-03T09:15:02.000Z</time>
      </trkpt>
      <trkpt lat="45.09826" lon="5.60291">
        <ele>1406</ele>
        <time>2013-03-03T09:15:08.000Z</time>
      </trkpt>
      <trkpt lat="45.09821" lon="5.60292">
        <ele>1406</ele>
        <time>2013-03-03T09:15:14.000Z</time>
      </trkpt>
      <trkpt lat="45.09815" lon="5.60294">
        <ele>1406</ele>
        <time>2013-03-03T09:15:21.000Z</time>
      </trkpt>
      <trkpt lat="45.0981" lon="5.60292">
        <ele>1407</ele>
        <time>2013-03-03T09:15:27.000Z</time>
      </trkpt>
      <trkpt lat="45.09805" lon="5.60294">
        <ele>1407</ele>
        <time>2013-03-03T09:15:35.000Z</time>
      </trkpt>
      <trkpt lat="45.098" lon="5.60295">
        <ele>1408</ele>
        <time>2013-03-03T09:15:41.000Z</time>
      </trkpt>
      <trkpt lat="45.09795" lon="5.60296">
        <ele>1409</ele>
        <time>2013-03-03T09:15:48.000Z</time>
      </trkpt>
      <trkpt lat="45.0979" lon="5.60297">
        <ele>1409</ele>
        <time>2013-03-03T09:15:54.000Z</time>
      </trkpt>
      <trkpt lat="45.09786" lon="5.60297">
        <ele>1410</ele>
        <time>2013-03-03T09:16:00.000Z</time>
      </trkpt>
      <trkpt lat="45.0978" lon="5.60298">
        <ele>1410</ele>
        <time>2013-03-03T09:16:06.000Z</time>
      </trkpt>
      <trkpt lat="45.09776" lon="5.60298">
        <ele>1411</ele>
        <time>2013-03-03T09:16:13.000Z</time>
      </trkpt>
      <trkpt lat="45.0977" lon="5.60298">
        <ele>1411</ele>
        <time>2013-03-03T09:16:19.000Z</time>
      </trkpt>
      <trkpt lat="45.09765" lon="5.603">
        <ele>1412</ele>
        <time>2013-03-03T09:16:26.000Z</time>
      </trkpt>
      <trkpt lat="45.0976" lon="5.603">
        <ele>1412</ele>
        <time>2013-03-03T09:16:33.000Z</time>
      </trkpt>
      <trkpt lat="45.09755" lon="5.603">
        <ele>1412</ele>
        <time>2013-03-03T09:16:40.000Z</time>
      </trkpt>
      <trkpt lat="45.0975" lon="5.60301">
        <ele>1421</ele>
        <time>2013-03-03T09:16:46.000Z</time>
      </trkpt>
      <trkpt lat="45.09745" lon="5.60302">
        <ele>1421</ele>
        <time>2013-03-03T09:16:53.000Z</time>
      </trkpt>
      <trkpt lat="45.0974" lon="5.60302">
        <ele>1421</ele>
        <time>2013-03-03T09:17:00.000Z</time>
      </trkpt>
      <trkpt lat="45.09734" lon="5.60303">
        <ele>1421</ele>
        <time>2013-03-03T09:17:07.000Z</time>
      </trkpt>
      <trkpt lat="45.09729" lon="5.60303">
        <ele>1422</ele>
        <time>2013-03-03T09:17:14.000Z</time>
      </trkpt>
      <trkpt lat="45.09724" lon="5.60303">
        <ele>1422</ele>
        <time>2013-03-03T09:17:21.000Z</time>
      </trkpt>
      <trkpt lat="45.09719" lon="5.60303">
        <ele>1422</ele>
        <time>2013-03-03T09:17:27.000Z</time>
      </trkpt>
      <trkpt lat="45.09714" lon="5.60303">
        <ele>1423</ele>
        <time>2013-03-03T09:17:34.000Z</time>
      </trkpt>
      <trkpt lat="45.09708" lon="5.60303">
        <ele>1423</ele>
        <time>2013-03-03T09:17:41.000Z</time>
      </trkpt>
      <trkpt lat="45.09704" lon="5.60303">
        <ele>1423</ele>
        <time>2013-03-03T09:17:47.000Z</time>
      </trkpt>
      <trkpt lat="45.09699" lon="5.60303">
        <ele>1423</ele>
        <time>2013-03-03T09:17:53.000Z</time>
      </trkpt>
      <trkpt lat="45.09694" lon="5.60302">
        <ele>1424</ele>
        <time>2013-03-03T09:17:59.000Z</time>
      </trkpt>
      <trkpt lat="45.09689" lon="5.60302">
        <ele>1424</ele>
        <time>2013-03-03T09:18:05.000Z</time>
      </trkpt>
      <trkpt lat="45.09684" lon="5.60302">
        <ele>1424</ele>
        <time>2013-03-03T09:18:11.000Z</time>
      </trkpt>
      <trkpt lat="45.09678" lon="5.60302">
        <ele>1424</ele>
        <time>2013-03-03T09:18:17.000Z</time>
      </trkpt>
      <trkpt lat="45.09674" lon="5.60301">
        <ele>1424</ele>
        <time>2013-03-03T09:18:23.000Z</time>
      </trkpt>
      <trkpt lat="45.09669" lon="5.603">
        <ele>1424</ele>
        <time>2013-03-03T09:18:29.000Z</time>
      </trkpt>
      <trkpt lat="45.09664" lon="5.603">
        <ele>1428</ele>
        <time>2013-03-03T09:18:35.000Z</time>
      </trkpt>
      <trkpt lat="45.09659" lon="5.60298">
        <ele>1428</ele>
        <time>2013-03-03T09:18:42.000Z</time>
      </trkpt>
      <trkpt lat="45.09654" lon="5.60297">
        <ele>1428</ele>
        <time>2013-03-03T09:18:48.000Z</time>
      </trkpt>
      <trkpt lat="45.0965" lon="5.60296">
        <ele>1428</ele>
        <time>2013-03-03T09:18:54.000Z</time>
      </trkpt>
      <trkpt lat="45.09645" lon="5.60295">
        <ele>1428</ele>
        <time>2013-03-03T09:19:00.000Z</time>
      </trkpt>
      <trkpt lat="45.0964" lon="5.60294">
        <ele>1429</ele>
        <time>2013-03-03T09:19:05.000Z</time>
      </trkpt>
      <trkpt lat="45.09634" lon="5.60294">
        <ele>1429</ele>
        <time>2013-03-03T09:19:11.000Z</time>
      </trkpt>
      <trkpt lat="45.0963" lon="5.60292">
        <ele>1429</ele>
        <time>2013-03-03T09:19:16.000Z</time>
      </trkpt>
      <trkpt lat="45.09624" lon="5.60292">
        <ele>1429</ele>
        <time>2013-03-03T09:19:22.000Z</time>
      </trkpt>
      <trkpt lat="45.09619" lon="5.60291">
        <ele>1429</ele>
        <time>2013-03-03T09:19:28.000Z</time>
      </trkpt>
      <trkpt lat="45.09615" lon="5.6029">
        <ele>1429</ele>
        <time>2013-03-03T09:19:34.000Z</time>
      </trkpt>
      <trkpt lat="45.0961" lon="5.60289">
        <ele>1429</ele>
        <time>2013-03-03T09:19:40.000Z</time>
      </trkpt>
      <trkpt lat="45.09605" lon="5.60288">
        <ele>1430</ele>
        <time>2013-03-03T09:19:46.000Z</time>
      </trkpt>
      <trkpt lat="45.096" lon="5.60287">
        <ele>1430</ele>
        <time>2013-03-03T09:19:52.000Z</time>
      </trkpt>
      <trkpt lat="45.09595" lon="5.60287">
        <ele>1430</ele>
        <time>2013-03-03T09:19:58.000Z</time>
      </trkpt>
      <trkpt lat="45.0959" lon="5.60286">
        <ele>1430</ele>
        <time>2013-03-03T09:20:03.000Z</time>
      </trkpt>
      <trkpt lat="45.09586" lon="5.60285">
        <ele>1430</ele>
        <time>2013-03-03T09:20:09.000Z</time>
      </trkpt>
      <trkpt lat="45.09581" lon="5.60284">
        <ele>1436</ele>
        <time>2013-03-03T09:20:15.000Z</time>
      </trkpt>
      <trkpt lat="45.09575" lon="5.60284">
        <ele>1436</ele>
        <time>2013-03-03T09:20:22.000Z</time>
      </trkpt>
      <trkpt lat="45.09571" lon="5.60283">
        <ele>1436</ele>
        <time>2013-03-03T09:20:28.000Z</time>
      </trkpt>
      <trkpt lat="45.09566" lon="5.60283">
        <ele>1436</ele>
        <time>2013-03-03T09:20:34.000Z</time>
      </trkpt>
      <trkpt lat="45.09561" lon="5.60282">
        <ele>1437</ele>
        <time>2013-03-03T09:20:40.000Z</time>
      </trkpt>
      <trkpt lat="45.09556" lon="5.60281">
        <ele>1437</ele>
        <time>2013-03-03T09:20:46.000Z</time>
      </trkpt>
      <trkpt lat="45.09551" lon="5.6028">
        <ele>1437</ele>
        <time>2013-03-03T09:20:53.000Z</time>
      </trkpt>
      <trkpt lat="45.09546" lon="5.60279">
        <ele>1438</ele>
        <time>2013-03-03T09:20:59.000Z</time>
      </trkpt>
      <trkpt lat="45.09542" lon="5.60278">
        <ele>1438</ele>
        <time>2013-03-03T09:21:05.000Z</time>
      </trkpt>
      <trkpt lat="45.09537" lon="5.60278">
        <ele>1439</ele>
        <time>2013-03-03T09:21:11.000Z</time>
      </trkpt>
      <trkpt lat="45.09531" lon="5.60278">
        <ele>1439</ele>
        <time>2013-03-03T09:21:18.000Z</time>
      </trkpt>
      <trkpt lat="45.09526" lon="5.60278">
        <ele>1440</ele>
        <time>2013-03-03T09:21:25.000Z</time>
      </trkpt>
      <trkpt lat="45.09521" lon="5.60278">
        <ele>1440</ele>
        <time>2013-03-03T09:21:32.000Z</time>
      </trkpt>
      <trkpt lat="45.09516" lon="5.60277">
        <ele>1440</ele>
        <time>2013-03-03T09:21:39.000Z</time>
      </trkpt>
      <trkpt lat="45.09512" lon="5.60276">
        <ele>1441</ele>
        <time>2013-03-03T09:21:46.000Z</time>
      </trkpt>
      <trkpt lat="45.09506" lon="5.60276">
        <ele>1441</ele>
        <time>2013-03-03T09:21:53.000Z</time>
      </trkpt>
      <trkpt lat="45.09501" lon="5.60275">
        <ele>1441</ele>
        <time>2013-03-03T09:22:00.000Z</time>
      </trkpt>
      <trkpt lat="45.09497" lon="5.60275">
        <ele>1448</ele>
        <time>2013-03-03T09:22:07.000Z</time>
      </trkpt>
      <trkpt lat="45.09492" lon="5.60273">
        <ele>1448</ele>
        <time>2013-03-03T09:22:14.000Z</time>
      </trkpt>
      <trkpt lat="45.09487" lon="5.60273">
        <ele>1449</ele>
        <time>2013-03-03T09:22:21.000Z</time>
      </trkpt>
      <trkpt lat="45.09482" lon="5.60274">
        <ele>1449</ele>
        <time>2013-03-03T09:22:28.000Z</time>
      </trkpt>
      <trkpt lat="45.09477" lon="5.60276">
        <ele>1449</ele>
        <time>2013-03-03T09:22:35.000Z</time>
      </trkpt>
      <trkpt lat="45.09472" lon="5.60278">
        <ele>1450</ele>
        <time>2013-03-03T09:22:42.000Z</time>
      </trkpt>
      <trkpt lat="45.09468" lon="5.6028">
        <ele>1450</ele>
        <time>2013-03-03T09:22:47.000Z</time>
      </trkpt>
      <trkpt lat="45.09462" lon="5.60281">
        <ele>1451</ele>
        <time>2013-03-03T09:22:54.000Z</time>
      </trkpt>
      <trkpt lat="45.09457" lon="5.60284">
        <ele>1451</ele>
        <time>2013-03-03T09:23:02.000Z</time>
      </trkpt>
      <trkpt lat="45.09453" lon="5.60286">
        <ele>1451</ele>
        <time>2013-03-03T09:23:10.000Z</time>
      </trkpt>
      <trkpt lat="45.09453" lon="5.60286">
        <ele>1451</ele>
        <time>2013-03-03T09:23:10.000Z</time>
      </trkpt>
      <trkpt lat="45.09453" lon="5.60286">
        <ele>1451</ele>
        <time>2013-03-03T09:23:16.000Z</time>
      </trkpt>
      <trkpt lat="45.09448" lon="5.60288">
        <ele>1452</ele>
        <time>2013-03-03T09:27:48.000Z</time>
      </trkpt>
      <trkpt lat="45.09444" lon="5.60291">
        <ele>1452</ele>
        <time>2013-03-03T09:27:54.000Z</time>
      </trkpt>
      <trkpt lat="45.09439" lon="5.60296">
        <ele>1452</ele>
        <time>2013-03-03T09:28:00.000Z</time>
      </trkpt>
      <trkpt lat="45.09434" lon="5.60298">
        <ele>1453</ele>
        <time>2013-03-03T09:28:07.000Z</time>
      </trkpt>
      <trkpt lat="45.0943" lon="5.603">
        <ele>1453</ele>
        <time>2013-03-03T09:28:14.000Z</time>
      </trkpt>
      <trkpt lat="45.09425" lon="5.60303">
        <ele>1454</ele>
        <time>2013-03-03T09:28:19.000Z</time>
      </trkpt>
      <trkpt lat="45.0942" lon="5.60305">
        <ele>1454</ele>
        <time>2013-03-03T09:28:29.000Z</time>
      </trkpt>
      <trkpt lat="45.09414" lon="5.60307">
        <ele>1461</ele>
        <time>2013-03-03T09:28:42.000Z</time>
      </trkpt>
      <trkpt lat="45.09409" lon="5.60311">
        <ele>1461</ele>
        <time>2013-03-03T09:28:45.000Z</time>
      </trkpt>
      <trkpt lat="45.09405" lon="5.60314">
        <ele>1461</ele>
        <time>2013-03-03T09:28:49.000Z</time>
      </trkpt>
      <trkpt lat="45.09405" lon="5.60314">
        <ele>1461</ele>
        <time>2013-03-03T09:28:49.000Z</time>
      </trkpt>
      <trkpt lat="45.09405" lon="5.60314">
        <ele>1461</ele>
        <time>2013-03-03T09:28:50.000Z</time>
      </trkpt>
      <trkpt lat="45.09402" lon="5.60319">
        <ele>1461</ele>
        <time>2013-03-03T09:28:58.000Z</time>
      </trkpt>
      <trkpt lat="45.094" lon="5.60326">
        <ele>1461</ele>
        <time>2013-03-03T09:29:04.000Z</time>
      </trkpt>
      <trkpt lat="45.094" lon="5.60334">
        <ele>1466</ele>
        <time>2013-03-03T09:29:10.000Z</time>
      </trkpt>
      <trkpt lat="45.09398" lon="5.60342">
        <ele>1467</ele>
        <time>2013-03-03T09:29:18.000Z</time>
      </trkpt>
      <trkpt lat="45.09396" lon="5.60349">
        <ele>1468</ele>
        <time>2013-03-03T09:29:25.000Z</time>
      </trkpt>
      <trkpt lat="45.09395" lon="5.60356">
        <ele>1469</ele>
        <time>2013-03-03T09:29:37.000Z</time>
      </trkpt>
      <trkpt lat="45.0939" lon="5.60361">
        <ele>1470</ele>
        <time>2013-03-03T09:29:45.000Z</time>
      </trkpt>
      <trkpt lat="45.0939" lon="5.60361">
        <ele>1470</ele>
        <time>2013-03-03T09:29:45.000Z</time>
      </trkpt>
      <trkpt lat="45.0939" lon="5.60361">
        <ele>1470</ele>
        <time>2013-03-03T09:29:46.000Z</time>
      </trkpt>
      <trkpt lat="45.09388" lon="5.60368">
        <ele>1470</ele>
        <time>2013-03-03T09:29:52.000Z</time>
      </trkpt>
      <trkpt lat="45.09388" lon="5.60374">
        <ele>1471</ele>
        <time>2013-03-03T09:30:00.000Z</time>
      </trkpt>
      <trkpt lat="45.09388" lon="5.60374">
        <ele>1471</ele>
        <time>2013-03-03T09:30:00.000Z</time>
      </trkpt>
      <trkpt lat="45.09388" lon="5.60374">
        <ele>1471</ele>
        <time>2013-03-03T09:30:01.000Z</time>
      </trkpt>
      <trkpt lat="45.09386" lon="5.6038">
        <ele>1471</ele>
        <time>2013-03-03T09:30:08.000Z</time>
      </trkpt>
      <trkpt lat="45.09386" lon="5.60387">
        <ele>1472</ele>
        <time>2013-03-03T09:30:15.000Z</time>
      </trkpt>
      <trkpt lat="45.09383" lon="5.60393">
        <ele>1472</ele>
        <time>2013-03-03T09:30:26.000Z</time>
      </trkpt>
      <trkpt lat="45.09383" lon="5.60401">
        <ele>1473</ele>
        <time>2013-03-03T09:30:31.000Z</time>
      </trkpt>
      <trkpt lat="45.0938" lon="5.60406">
        <ele>1473</ele>
        <time>2013-03-03T09:30:38.000Z</time>
      </trkpt>
      <trkpt lat="45.09377" lon="5.60411">
        <ele>1474</ele>
        <time>2013-03-03T09:30:50.000Z</time>
      </trkpt>
      <trkpt lat="45.09376" lon="5.60418">
        <ele>1483</ele>
        <time>2013-03-03T09:31:00.000Z</time>
      </trkpt>
      <trkpt lat="45.09375" lon="5.60424">
        <ele>1483</ele>
        <time>2013-03-03T09:31:08.000Z</time>
      </trkpt>
      <trkpt lat="45.09373" lon="5.6043">
        <ele>1484</ele>
        <time>2013-03-03T09:31:20.000Z</time>
      </trkpt>
      <trkpt lat="45.09372" lon="5.60436">
        <ele>1484</ele>
        <time>2013-03-03T09:31:27.000Z</time>
      </trkpt>
      <trkpt lat="45.0937" lon="5.60442">
        <ele>1485</ele>
        <time>2013-03-03T09:31:37.000Z</time>
      </trkpt>
      <trkpt lat="45.09369" lon="5.60449">
        <ele>1486</ele>
        <time>2013-03-03T09:31:44.000Z</time>
      </trkpt>
      <trkpt lat="45.09368" lon="5.60455">
        <ele>1486</ele>
        <time>2013-03-03T09:31:51.000Z</time>
      </trkpt>
      <trkpt lat="45.09367" lon="5.60462">
        <ele>1487</ele>
        <time>2013-03-03T09:32:01.000Z</time>
      </trkpt>
      <trkpt lat="45.09366" lon="5.60468">
        <ele>1488</ele>
        <time>2013-03-03T09:32:09.000Z</time>
      </trkpt>
      <trkpt lat="45.09366" lon="5.60468">
        <ele>1488</ele>
        <time>2013-03-03T09:32:09.000Z</time>
      </trkpt>
      <trkpt lat="45.09366" lon="5.60468">
        <ele>1488</ele>
        <time>2013-03-03T09:32:14.000Z</time>
      </trkpt>
      <trkpt lat="45.09363" lon="5.60473">
        <ele>1489</ele>
        <time>2013-03-03T09:32:19.000Z</time>
      </trkpt>
      <trkpt lat="45.09365" lon="5.60479">
        <ele>1489</ele>
        <time>2013-03-03T09:32:26.000Z</time>
      </trkpt>
      <trkpt lat="45.09361" lon="5.60484">
        <ele>1490</ele>
        <time>2013-03-03T09:32:31.000Z</time>
      </trkpt>
      <trkpt lat="45.0936" lon="5.60491">
        <ele>1491</ele>
        <time>2013-03-03T09:32:44.000Z</time>
      </trkpt>
      <trkpt lat="45.09362" lon="5.60497">
        <ele>1491</ele>
        <time>2013-03-03T09:32:47.000Z</time>
      </trkpt>
      <trkpt lat="45.09359" lon="5.60502">
        <ele>1502</ele>
        <time>2013-03-03T09:33:01.000Z</time>
      </trkpt>
      <trkpt lat="45.09356" lon="5.60506">
        <ele>1502</ele>
        <time>2013-03-03T09:33:10.000Z</time>
      </trkpt>
      <trkpt lat="45.09355" lon="5.60514">
        <ele>1503</ele>
        <time>2013-03-03T09:33:18.000Z</time>
      </trkpt>
      <trkpt lat="45.09355" lon="5.60514">
        <ele>1503</ele>
        <time>2013-03-03T09:33:18.000Z</time>
      </trkpt>
      <trkpt lat="45.09355" lon="5.60514">
        <ele>1503</ele>
        <time>2013-03-03T09:33:19.000Z</time>
      </trkpt>
      <trkpt lat="45.09352" lon="5.6052">
        <ele>1503</ele>
        <time>2013-03-03T09:33:24.000Z</time>
      </trkpt>
      <trkpt lat="45.09351" lon="5.60527">
        <ele>1504</ele>
        <time>2013-03-03T09:33:35.000Z</time>
      </trkpt>
      <trkpt lat="45.09347" lon="5.60532">
        <ele>1505</ele>
        <time>2013-03-03T09:33:42.000Z</time>
      </trkpt>
      <trkpt lat="45.09344" lon="5.60538">
        <ele>1505</ele>
        <time>2013-03-03T09:33:54.000Z</time>
      </trkpt>
      <trkpt lat="45.09342" lon="5.60543">
        <ele>1506</ele>
        <time>2013-03-03T09:34:02.000Z</time>
      </trkpt>
      <trkpt lat="45.09346" lon="5.60546">
        <ele>1507</ele>
        <time>2013-03-03T09:34:10.000Z</time>
      </trkpt>
      <trkpt lat="45.09344" lon="5.60553">
        <ele>1508</ele>
        <time>2013-03-03T09:34:18.000Z</time>
      </trkpt>
      <trkpt lat="45.09343" lon="5.6056">
        <ele>1509</ele>
        <time>2013-03-03T09:34:27.000Z</time>
      </trkpt>
      <trkpt lat="45.09343" lon="5.6056">
        <ele>1509</ele>
        <time>2013-03-03T09:34:27.000Z</time>
      </trkpt>
      <trkpt lat="45.09343" lon="5.6056">
        <ele>1509</ele>
        <time>2013-03-03T09:34:28.000Z</time>
      </trkpt>
      <trkpt lat="45.09344" lon="5.60566">
        <ele>1510</ele>
        <time>2013-03-03T09:34:36.000Z</time>
      </trkpt>
      <trkpt lat="45.09343" lon="5.60572">
        <ele>1512</ele>
        <time>2013-03-03T09:34:44.000Z</time>
      </trkpt>
      <trkpt lat="45.09343" lon="5.60572">
        <ele>1512</ele>
        <time>2013-03-03T09:34:44.000Z</time>
      </trkpt>
      <trkpt lat="45.09343" lon="5.60572">
        <ele>1512</ele>
        <time>2013-03-03T09:34:45.000Z</time>
      </trkpt>
      <trkpt lat="45.09339" lon="5.60577">
        <ele>1514</ele>
        <time>2013-03-03T09:34:52.000Z</time>
      </trkpt>
      <trkpt lat="45.09342" lon="5.60583">
        <ele>1514</ele>
        <time>2013-03-03T09:35:01.000Z</time>
      </trkpt>
      <trkpt lat="45.09343" lon="5.60589">
        <ele>1521</ele>
        <time>2013-03-03T09:35:10.000Z</time>
      </trkpt>
      <trkpt lat="45.09347" lon="5.60593">
        <ele>1522</ele>
        <time>2013-03-03T09:35:20.000Z</time>
      </trkpt>
      <trkpt lat="45.0935" lon="5.60599">
        <ele>1524</ele>
        <time>2013-03-03T09:35:29.000Z</time>
      </trkpt>
      <trkpt lat="45.09349" lon="5.60606">
        <ele>1525</ele>
        <time>2013-03-03T09:36:09.000Z</time>
      </trkpt>
      <trkpt lat="45.09354" lon="5.60608">
        <ele>1526</ele>
        <time>2013-03-03T09:36:16.000Z</time>
      </trkpt>
      <trkpt lat="45.09358" lon="5.60611">
        <ele>1526</ele>
        <time>2013-03-03T09:36:27.000Z</time>
      </trkpt>
      <trkpt lat="45.09361" lon="5.60616">
        <ele>1527</ele>
        <time>2013-03-03T09:36:37.000Z</time>
      </trkpt>
      <trkpt lat="45.09365" lon="5.60621">
        <ele>1528</ele>
        <time>2013-03-03T09:36:49.000Z</time>
      </trkpt>
      <trkpt lat="45.09369" lon="5.60622">
        <ele>1528</ele>
        <time>2013-03-03T09:36:58.000Z</time>
      </trkpt>
      <trkpt lat="45.09373" lon="5.60627">
        <ele>1529</ele>
        <time>2013-03-03T09:37:08.000Z</time>
      </trkpt>
      <trkpt lat="45.09376" lon="5.60633">
        <ele>1530</ele>
        <time>2013-03-03T09:37:21.000Z</time>
      </trkpt>
      <trkpt lat="45.0938" lon="5.60637">
        <ele>1530</ele>
        <time>2013-03-03T09:37:31.000Z</time>
      </trkpt>
      <trkpt lat="45.09384" lon="5.60639">
        <ele>1531</ele>
        <time>2013-03-03T09:37:40.000Z</time>
      </trkpt>
      <trkpt lat="45.09389" lon="5.60642">
        <ele>1531</ele>
        <time>2013-03-03T09:37:51.000Z</time>
      </trkpt>
      <trkpt lat="45.09392" lon="5.60646">
        <ele>1532</ele>
        <time>2013-03-03T09:37:59.000Z</time>
      </trkpt>
      <trkpt lat="45.09396" lon="5.6065">
        <ele>1533</ele>
        <time>2013-03-03T09:38:11.000Z</time>
      </trkpt>
      <trkpt lat="45.094" lon="5.60655">
        <ele>1534</ele>
        <time>2013-03-03T09:38:23.000Z</time>
      </trkpt>
      <trkpt lat="45.09403" lon="5.60658">
        <ele>1535</ele>
        <time>2013-03-03T09:38:33.000Z</time>
      </trkpt>
      <trkpt lat="45.09407" lon="5.60662">
        <ele>1537</ele>
        <time>2013-03-03T09:38:42.000Z</time>
      </trkpt>
      <trkpt lat="45.09411" lon="5.60665">
        <ele>1538</ele>
        <time>2013-03-03T09:38:53.000Z</time>
      </trkpt>
      <trkpt lat="45.09415" lon="5.6067">
        <ele>1544</ele>
        <time>2013-03-03T09:39:03.000Z</time>
      </trkpt>
      <trkpt lat="45.09415" lon="5.6067">
        <ele>1544</ele>
        <time>2013-03-03T09:39:03.000Z</time>
      </trkpt>
      <trkpt lat="45.09415" lon="5.6067">
        <ele>1544</ele>
        <time>2013-03-03T09:39:04.000Z</time>
      </trkpt>
      <trkpt lat="45.09418" lon="5.60674">
        <ele>1546</ele>
        <time>2013-03-03T09:39:15.000Z</time>
      </trkpt>
      <trkpt lat="45.09423" lon="5.60676">
        <ele>1548</ele>
        <time>2013-03-03T09:39:23.000Z</time>
      </trkpt>
      <trkpt lat="45.09427" lon="5.60681">
        <ele>1550</ele>
        <time>2013-03-03T09:39:32.000Z</time>
      </trkpt>
      <trkpt lat="45.09431" lon="5.60683">
        <ele>1552</ele>
        <time>2013-03-03T09:39:38.000Z</time>
      </trkpt>
      <trkpt lat="45.09435" lon="5.60687">
        <ele>1553</ele>
        <time>2013-03-03T09:39:49.000Z</time>
      </trkpt>
      <trkpt lat="45.09439" lon="5.60693">
        <ele>1555</ele>
        <time>2013-03-03T09:40:01.000Z</time>
      </trkpt>
      <trkpt lat="45.09444" lon="5.60694">
        <ele>1556</ele>
        <time>2013-03-03T09:40:11.000Z</time>
      </trkpt>
      <trkpt lat="45.09449" lon="5.60698">
        <ele>1557</ele>
        <time>2013-03-03T09:40:21.000Z</time>
      </trkpt>
      <trkpt lat="45.09453" lon="5.60702">
        <ele>1558</ele>
        <time>2013-03-03T09:40:38.000Z</time>
      </trkpt>
      <trkpt lat="45.09456" lon="5.60706">
        <ele>1559</ele>
        <time>2013-03-03T09:41:14.000Z</time>
      </trkpt>
      <trkpt lat="45.09461" lon="5.6071">
        <ele>1559</ele>
        <time>2013-03-03T09:41:34.000Z</time>
      </trkpt>
      <trkpt lat="45.09465" lon="5.60713">
        <ele>1560</ele>
        <time>2013-03-03T09:41:50.000Z</time>
      </trkpt>
      <trkpt lat="45.09468" lon="5.60718">
        <ele>1561</ele>
        <time>2013-03-03T09:41:59.000Z</time>
      </trkpt>
      <trkpt lat="45.09468" lon="5.60718">
        <ele>1561</ele>
        <time>2013-03-03T09:41:59.000Z</time>
      </trkpt>
      <trkpt lat="45.09468" lon="5.60718">
        <ele>1561</ele>
        <time>2013-03-03T09:42:00.000Z</time>
      </trkpt>
      <trkpt lat="45.09471" lon="5.60724">
        <ele>1562</ele>
        <time>2013-03-03T09:42:15.000Z</time>
      </trkpt>
      <trkpt lat="45.09475" lon="5.60728">
        <ele>1563</ele>
        <time>2013-03-03T09:42:24.000Z</time>
      </trkpt>
      <trkpt lat="45.09478" lon="5.60732">
        <ele>1564</ele>
        <time>2013-03-03T09:42:35.000Z</time>
      </trkpt>
      <trkpt lat="45.09483" lon="5.60735">
        <ele>1566</ele>
        <time>2013-03-03T09:42:50.000Z</time>
      </trkpt>
      <trkpt lat="45.09488" lon="5.60736">
        <ele>1567</ele>
        <time>2013-03-03T09:42:58.000Z</time>
      </trkpt>
      <trkpt lat="45.09492" lon="5.6074">
        <ele>1569</ele>
        <time>2013-03-03T09:43:10.000Z</time>
      </trkpt>
      <trkpt lat="45.09496" lon="5.60743">
        <ele>1571</ele>
        <time>2013-03-03T09:43:19.000Z</time>
      </trkpt>
      <trkpt lat="45.09496" lon="5.60743">
        <ele>1571</ele>
        <time>2013-03-03T09:43:19.000Z</time>
      </trkpt>
      <trkpt lat="45.09496" lon="5.60743">
        <ele>1571</ele>
        <time>2013-03-03T09:43:20.000Z</time>
      </trkpt>
      <trkpt lat="45.095" lon="5.60745">
        <ele>1572</ele>
        <time>2013-03-03T09:43:39.000Z</time>
      </trkpt>
      <trkpt lat="45.09504" lon="5.6075">
        <ele>1572</ele>
        <time>2013-03-03T09:43:51.000Z</time>
      </trkpt>
      <trkpt lat="45.09507" lon="5.60754">
        <ele>1579</ele>
        <time>2013-03-03T09:44:16.000Z</time>
      </trkpt>
      <trkpt lat="45.09512" lon="5.60758">
        <ele>1582</ele>
        <time>2013-03-03T09:44:40.000Z</time>
      </trkpt>
      <trkpt lat="45.09512" lon="5.60758">
        <ele>1582</ele>
        <time>2013-03-03T09:44:40.000Z</time>
      </trkpt>
      <trkpt lat="45.09512" lon="5.60758">
        <ele>1582</ele>
        <time>2013-03-03T09:44:41.000Z</time>
      </trkpt>
      <trkpt lat="45.09515" lon="5.60761">
        <ele>1583</ele>
        <time>2013-03-03T09:44:51.000Z</time>
      </trkpt>
      <trkpt lat="45.09518" lon="5.60767">
        <ele>1585</ele>
        <time>2013-03-03T09:45:26.000Z</time>
      </trkpt>
      <trkpt lat="45.09521" lon="5.60771">
        <ele>1586</ele>
        <time>2013-03-03T09:45:36.000Z</time>
      </trkpt>
      <trkpt lat="45.09525" lon="5.60775">
        <ele>1587</ele>
        <time>2013-03-03T09:45:50.000Z</time>
      </trkpt>
      <trkpt lat="45.09529" lon="5.60777">
        <ele>1588</ele>
        <time>2013-03-03T09:46:06.000Z</time>
      </trkpt>
      <trkpt lat="45.09529" lon="5.60777">
        <ele>1588</ele>
        <time>2013-03-03T09:46:06.000Z</time>
      </trkpt>
      <trkpt lat="45.09529" lon="5.60777">
        <ele>1588</ele>
        <time>2013-03-03T09:46:11.000Z</time>
      </trkpt>
      <trkpt lat="45.09525" lon="5.60781">
        <ele>1589</ele>
        <time>2013-03-03T09:46:43.000Z</time>
      </trkpt>
      <trkpt lat="45.09525" lon="5.60781">
        <ele>1589</ele>
        <time>2013-03-03T09:46:43.000Z</time>
      </trkpt>
      <trkpt lat="45.09525" lon="5.60781">
        <ele>1589</ele>
        <time>2013-03-03T09:46:44.000Z</time>
      </trkpt>
      <trkpt lat="45.09521" lon="5.60783">
        <ele>1589</ele>
        <time>2013-03-03T09:46:54.000Z</time>
      </trkpt>
      <trkpt lat="45.09516" lon="5.60786">
        <ele>1590</ele>
        <time>2013-03-03T09:47:11.000Z</time>
      </trkpt>
      <trkpt lat="45.09516" lon="5.60786">
        <ele>1590</ele>
        <time>2013-03-03T09:47:11.000Z</time>
      </trkpt>
      <trkpt lat="45.09516" lon="5.60786">
        <ele>1590</ele>
        <time>2013-03-03T09:47:12.000Z</time>
      </trkpt>
      <trkpt lat="45.09512" lon="5.60789">
        <ele>1591</ele>
        <time>2013-03-03T09:47:21.000Z</time>
      </trkpt>
      <trkpt lat="45.09507" lon="5.60789">
        <ele>1591</ele>
        <time>2013-03-03T09:47:32.000Z</time>
      </trkpt>
      <trkpt lat="45.09503" lon="5.60792">
        <ele>1591</ele>
        <time>2013-03-03T09:47:41.000Z</time>
      </trkpt>
      <trkpt lat="45.09498" lon="5.60793">
        <ele>1595</ele>
        <time>2013-03-03T09:47:50.000Z</time>
      </trkpt>
      <trkpt lat="45.09493" lon="5.60793">
        <ele>1595</ele>
        <time>2013-03-03T09:47:57.000Z</time>
      </trkpt>
      <trkpt lat="45.09488" lon="5.60795">
        <ele>1596</ele>
        <time>2013-03-03T09:48:06.000Z</time>
      </trkpt>
      <trkpt lat="45.09484" lon="5.60797">
        <ele>1596</ele>
        <time>2013-03-03T09:48:15.000Z</time>
      </trkpt>
      <trkpt lat="45.09479" lon="5.608">
        <ele>1597</ele>
        <time>2013-03-03T09:48:26.000Z</time>
      </trkpt>
      <trkpt lat="45.09475" lon="5.60802">
        <ele>1598</ele>
        <time>2013-03-03T09:48:36.000Z</time>
      </trkpt>
      <trkpt lat="45.09475" lon="5.60802">
        <ele>1598</ele>
        <time>2013-03-03T09:48:36.000Z</time>
      </trkpt>
      <trkpt lat="45.09475" lon="5.60802">
        <ele>1598</ele>
        <time>2013-03-03T09:48:37.000Z</time>
      </trkpt>
      <trkpt lat="45.0947" lon="5.60805">
        <ele>1598</ele>
        <time>2013-03-03T09:48:48.000Z</time>
      </trkpt>
      <trkpt lat="45.09466" lon="5.60806">
        <ele>1599</ele>
        <time>2013-03-03T09:48:58.000Z</time>
      </trkpt>
      <trkpt lat="45.09461" lon="5.60808">
        <ele>1599</ele>
        <time>2013-03-03T09:49:14.000Z</time>
      </trkpt>
      <trkpt lat="45.09457" lon="5.60811">
        <ele>1600</ele>
        <time>2013-03-03T09:49:31.000Z</time>
      </trkpt>
      <trkpt lat="45.09457" lon="5.60811">
        <ele>1600</ele>
        <time>2013-03-03T09:49:31.000Z</time>
      </trkpt>
      <trkpt lat="45.09457" lon="5.60811">
        <ele>1600</ele>
        <time>2013-03-03T09:49:32.000Z</time>
      </trkpt>
      <trkpt lat="45.09453" lon="5.60813">
        <ele>1601</ele>
        <time>2013-03-03T09:49:53.000Z</time>
      </trkpt>
      <trkpt lat="45.09447" lon="5.60814">
        <ele>1601</ele>
        <time>2013-03-03T09:50:00.000Z</time>
      </trkpt>
      <trkpt lat="45.09442" lon="5.60816">
        <ele>1602</ele>
        <time>2013-03-03T09:50:09.000Z</time>
      </trkpt>
      <trkpt lat="45.09438" lon="5.60819">
        <ele>1604</ele>
        <time>2013-03-03T09:50:17.000Z</time>
      </trkpt>
      <trkpt lat="45.09434" lon="5.60822">
        <ele>1605</ele>
        <time>2013-03-03T09:50:26.000Z</time>
      </trkpt>
      <trkpt lat="45.0943" lon="5.60825">
        <ele>1607</ele>
        <time>2013-03-03T09:50:37.000Z</time>
      </trkpt>
      <trkpt lat="45.0943" lon="5.60825">
        <ele>1607</ele>
        <time>2013-03-03T09:50:37.000Z</time>
      </trkpt>
      <trkpt lat="45.0943" lon="5.60825">
        <ele>1607</ele>
        <time>2013-03-03T09:50:39.000Z</time>
      </trkpt>
      <trkpt lat="45.09425" lon="5.6083">
        <ele>1611</ele>
        <time>2013-03-03T09:50:47.000Z</time>
      </trkpt>
      <trkpt lat="45.0942" lon="5.60832">
        <ele>1614</ele>
        <time>2013-03-03T09:50:54.000Z</time>
      </trkpt>
      <trkpt lat="45.09415" lon="5.60834">
        <ele>1618</ele>
        <time>2013-03-03T09:51:01.000Z</time>
      </trkpt>
      <trkpt lat="45.0941" lon="5.60836">
        <ele>1620</ele>
        <time>2013-03-03T09:51:09.000Z</time>
      </trkpt>
      <trkpt lat="45.09405" lon="5.60838">
        <ele>1621</ele>
        <time>2013-03-03T09:51:16.000Z</time>
      </trkpt>
      <trkpt lat="45.09401" lon="5.60838">
        <ele>1622</ele>
        <time>2013-03-03T09:51:25.000Z</time>
      </trkpt>
      <trkpt lat="45.09401" lon="5.60838">
        <ele>1622</ele>
        <time>2013-03-03T09:51:25.000Z</time>
      </trkpt>
      <trkpt lat="45.09401" lon="5.60838">
        <ele>1622</ele>
        <time>2013-03-03T09:51:26.000Z</time>
      </trkpt>
      <trkpt lat="45.09396" lon="5.60837">
        <ele>1623</ele>
        <time>2013-03-03T09:51:41.000Z</time>
      </trkpt>
      <trkpt lat="45.09391" lon="5.6084">
        <ele>1624</ele>
        <time>2013-03-03T09:51:51.000Z</time>
      </trkpt>
      <trkpt lat="45.09387" lon="5.6084">
        <ele>1624</ele>
        <time>2013-03-03T09:52:00.000Z</time>
      </trkpt>
      <trkpt lat="45.09382" lon="5.60842">
        <ele>1625</ele>
        <time>2013-03-03T09:52:07.000Z</time>
      </trkpt>
      <trkpt lat="45.09378" lon="5.60844">
        <ele>1626</ele>
        <time>2013-03-03T09:52:14.000Z</time>
      </trkpt>
      <trkpt lat="45.09373" lon="5.60847">
        <ele>1626</ele>
        <time>2013-03-03T09:52:20.000Z</time>
      </trkpt>
      <trkpt lat="45.09368" lon="5.6085">
        <ele>1627</ele>
        <time>2013-03-03T09:52:28.000Z</time>
      </trkpt>
      <trkpt lat="45.09365" lon="5.60855">
        <ele>1627</ele>
        <time>2013-03-03T09:53:09.000Z</time>
      </trkpt>
      <trkpt lat="45.09365" lon="5.60855">
        <ele>1627</ele>
        <time>2013-03-03T09:53:09.000Z</time>
      </trkpt>
      <trkpt lat="45.09365" lon="5.60855">
        <ele>1627</ele>
        <time>2013-03-03T09:53:59.000Z</time>
      </trkpt>
      <trkpt lat="45.0936" lon="5.60858">
        <ele>1628</ele>
        <time>2013-03-03T09:55:43.000Z</time>
      </trkpt>
      <trkpt lat="45.09357" lon="5.60863">
        <ele>1628</ele>
        <time>2013-03-03T09:55:45.000Z</time>
      </trkpt>
      <trkpt lat="45.09353" lon="5.60868">
        <ele>1629</ele>
        <time>2013-03-03T09:55:47.000Z</time>
      </trkpt>
      <trkpt lat="45.0935" lon="5.60874">
        <ele>1629</ele>
        <time>2013-03-03T09:55:51.000Z</time>
      </trkpt>
      <trkpt lat="45.09346" lon="5.60877">
        <ele>1630</ele>
        <time>2013-03-03T09:55:54.000Z</time>
      </trkpt>
      <trkpt lat="45.09342" lon="5.60882">
        <ele>1631</ele>
        <time>2013-03-03T09:55:58.000Z</time>
      </trkpt>
      <trkpt lat="45.09337" lon="5.60888">
        <ele>1632</ele>
        <time>2013-03-03T09:56:02.000Z</time>
      </trkpt>
      <trkpt lat="45.09334" lon="5.60893">
        <ele>1633</ele>
        <time>2013-03-03T09:56:05.000Z</time>
      </trkpt>
      <trkpt lat="45.0933" lon="5.60899">
        <ele>1638</ele>
        <time>2013-03-03T09:56:09.000Z</time>
      </trkpt>
      <trkpt lat="45.09326" lon="5.60904">
        <ele>1639</ele>
        <time>2013-03-03T09:56:13.000Z</time>
      </trkpt>
      <trkpt lat="45.09326" lon="5.60912">
        <ele>1639</ele>
        <time>2013-03-03T09:56:17.000Z</time>
      </trkpt>
      <trkpt lat="45.09327" lon="5.60918">
        <ele>1641</ele>
        <time>2013-03-03T09:56:22.000Z</time>
      </trkpt>
      <trkpt lat="45.09326" lon="5.60924">
        <ele>1642</ele>
        <time>2013-03-03T09:56:31.000Z</time>
      </trkpt>
      <trkpt lat="45.09326" lon="5.60931">
        <ele>1643</ele>
        <time>2013-03-03T09:56:38.000Z</time>
      </trkpt>
      <trkpt lat="45.09322" lon="5.60937">
        <ele>1643</ele>
        <time>2013-03-03T09:56:45.000Z</time>
      </trkpt>
      <trkpt lat="45.0932" lon="5.60944">
        <ele>1644</ele>
        <time>2013-03-03T09:56:49.000Z</time>
      </trkpt>
      <trkpt lat="45.09317" lon="5.60951">
        <ele>1645</ele>
        <time>2013-03-03T09:56:55.000Z</time>
      </trkpt>
      <trkpt lat="45.09314" lon="5.60957">
        <ele>1645</ele>
        <time>2013-03-03T09:57:00.000Z</time>
      </trkpt>
      <trkpt lat="45.09311" lon="5.60962">
        <ele>1645</ele>
        <time>2013-03-03T09:57:07.000Z</time>
      </trkpt>
      <trkpt lat="45.09308" lon="5.60967">
        <ele>1646</ele>
        <time>2013-03-03T09:57:13.000Z</time>
      </trkpt>
      <trkpt lat="45.09304" lon="5.60971">
        <ele>1646</ele>
        <time>2013-03-03T09:57:21.000Z</time>
      </trkpt>
      <trkpt lat="45.093" lon="5.60975">
        <ele>1646</ele>
        <time>2013-03-03T09:57:30.000Z</time>
      </trkpt>
      <trkpt lat="45.09296" lon="5.60979">
        <ele>1647</ele>
        <time>2013-03-03T09:57:38.000Z</time>
      </trkpt>
      <trkpt lat="45.09293" lon="5.60984">
        <ele>1647</ele>
        <time>2013-03-03T09:57:44.000Z</time>
      </trkpt>
      <trkpt lat="45.0929" lon="5.60989">
        <ele>1647</ele>
        <time>2013-03-03T09:57:49.000Z</time>
      </trkpt>
      <trkpt lat="45.09286" lon="5.60994">
        <ele>1648</ele>
        <time>2013-03-03T09:57:57.000Z</time>
      </trkpt>
      <trkpt lat="45.09282" lon="5.60998">
        <ele>1648</ele>
        <time>2013-03-03T09:58:05.000Z</time>
      </trkpt>
      <trkpt lat="45.09279" lon="5.61002">
        <ele>1657</ele>
        <time>2013-03-03T09:58:14.000Z</time>
      </trkpt>
      <trkpt lat="45.09274" lon="5.61005">
        <ele>1657</ele>
        <time>2013-03-03T09:58:22.000Z</time>
      </trkpt>
      <trkpt lat="45.0927" lon="5.61006">
        <ele>1657</ele>
        <time>2013-03-03T09:58:33.000Z</time>
      </trkpt>
      <trkpt lat="45.09265" lon="5.61008">
        <ele>1657</ele>
        <time>2013-03-03T09:58:41.000Z</time>
      </trkpt>
      <trkpt lat="45.0926" lon="5.61009">
        <ele>1657</ele>
        <time>2013-03-03T09:58:51.000Z</time>
      </trkpt>
      <trkpt lat="45.09257" lon="5.61014">
        <ele>1658</ele>
        <time>2013-03-03T09:59:04.000Z</time>
      </trkpt>
      <trkpt lat="45.09257" lon="5.61021">
        <ele>1659</ele>
        <time>2013-03-03T09:59:13.000Z</time>
      </trkpt>
      <trkpt lat="45.09257" lon="5.61021">
        <ele>1659</ele>
        <time>2013-03-03T09:59:13.000Z</time>
      </trkpt>
      <trkpt lat="45.09257" lon="5.61021">
        <ele>1659</ele>
        <time>2013-03-03T09:59:15.000Z</time>
      </trkpt>
      <trkpt lat="45.09254" lon="5.61026">
        <ele>1659</ele>
        <time>2013-03-03T09:59:25.000Z</time>
      </trkpt>
      <trkpt lat="45.0925" lon="5.6103">
        <ele>1660</ele>
        <time>2013-03-03T09:59:32.000Z</time>
      </trkpt>
      <trkpt lat="45.09246" lon="5.61034">
        <ele>1667</ele>
        <time>2013-03-03T09:59:41.000Z</time>
      </trkpt>
      <trkpt lat="45.09242" lon="5.61038">
        <ele>1668</ele>
        <time>2013-03-03T09:59:50.000Z</time>
      </trkpt>
      <trkpt lat="45.09238" lon="5.61041">
        <ele>1669</ele>
        <time>2013-03-03T09:59:59.000Z</time>
      </trkpt>
      <trkpt lat="45.09233" lon="5.61042">
        <ele>1670</ele>
        <time>2013-03-03T10:00:09.000Z</time>
      </trkpt>
      <trkpt lat="45.09228" lon="5.61043">
        <ele>1670</ele>
        <time>2013-03-03T10:00:18.000Z</time>
      </trkpt>
      <trkpt lat="45.09224" lon="5.61042">
        <ele>1670</ele>
        <time>2013-03-03T10:00:28.000Z</time>
      </trkpt>
      <trkpt lat="45.09218" lon="5.61041">
        <ele>1670</ele>
        <time>2013-03-03T10:00:37.000Z</time>
      </trkpt>
      <trkpt lat="45.09213" lon="5.61041">
        <ele>1670</ele>
        <time>2013-03-03T10:00:46.000Z</time>
      </trkpt>
      <trkpt lat="45.09208" lon="5.61042">
        <ele>1671</ele>
        <time>2013-03-03T10:00:54.000Z</time>
      </trkpt>
      <trkpt lat="45.09204" lon="5.61042">
        <ele>1671</ele>
        <time>2013-03-03T10:01:04.000Z</time>
      </trkpt>
      <trkpt lat="45.09199" lon="5.61045">
        <ele>1672</ele>
        <time>2013-03-03T10:01:12.000Z</time>
      </trkpt>
      <trkpt lat="45.09195" lon="5.61048">
        <ele>1672</ele>
        <time>2013-03-03T10:01:21.000Z</time>
      </trkpt>
      <trkpt lat="45.09191" lon="5.61052">
        <ele>1673</ele>
        <time>2013-03-03T10:01:28.000Z</time>
      </trkpt>
      <trkpt lat="45.09188" lon="5.61056">
        <ele>1674</ele>
        <time>2013-03-03T10:01:36.000Z</time>
      </trkpt>
      <trkpt lat="45.09184" lon="5.61061">
        <ele>1675</ele>
        <time>2013-03-03T10:01:45.000Z</time>
      </trkpt>
      <trkpt lat="45.09181" lon="5.61067">
        <ele>1677</ele>
        <time>2013-03-03T10:01:54.000Z</time>
      </trkpt>
      <trkpt lat="45.09181" lon="5.61073">
        <ele>1678</ele>
        <time>2013-03-03T10:02:02.000Z</time>
      </trkpt>
      <trkpt lat="45.0918" lon="5.6108">
        <ele>1680</ele>
        <time>2013-03-03T10:02:11.000Z</time>
      </trkpt>
      <trkpt lat="45.09178" lon="5.61087">
        <ele>1688</ele>
        <time>2013-03-03T10:02:22.000Z</time>
      </trkpt>
      <trkpt lat="45.09178" lon="5.61094">
        <ele>1689</ele>
        <time>2013-03-03T10:02:29.000Z</time>
      </trkpt>
      <trkpt lat="45.09177" lon="5.61102">
        <ele>1690</ele>
        <time>2013-03-03T10:02:35.000Z</time>
      </trkpt>
      <trkpt lat="45.09176" lon="5.61108">
        <ele>1690</ele>
        <time>2013-03-03T10:02:40.000Z</time>
      </trkpt>
      <trkpt lat="45.09176" lon="5.61115">
        <ele>1691</ele>
        <time>2013-03-03T10:02:46.000Z</time>
      </trkpt>
      <trkpt lat="45.09176" lon="5.61122">
        <ele>1692</ele>
        <time>2013-03-03T10:02:56.000Z</time>
      </trkpt>
      <trkpt lat="45.09176" lon="5.61128">
        <ele>1693</ele>
        <time>2013-03-03T10:03:05.000Z</time>
      </trkpt>
      <trkpt lat="45.09175" lon="5.61135">
        <ele>1694</ele>
        <time>2013-03-03T10:03:13.000Z</time>
      </trkpt>
      <trkpt lat="45.09174" lon="5.61141">
        <ele>1695</ele>
        <time>2013-03-03T10:03:22.000Z</time>
      </trkpt>
      <trkpt lat="45.09171" lon="5.61146">
        <ele>1696</ele>
        <time>2013-03-03T10:03:35.000Z</time>
      </trkpt>
      <trkpt lat="45.09167" lon="5.6115">
        <ele>1697</ele>
        <time>2013-03-03T10:03:45.000Z</time>
      </trkpt>
      <trkpt lat="45.09163" lon="5.61152">
        <ele>1699</ele>
        <time>2013-03-03T10:03:54.000Z</time>
      </trkpt>
      <trkpt lat="45.09159" lon="5.61155">
        <ele>1700</ele>
        <time>2013-03-03T10:04:04.000Z</time>
      </trkpt>
      <trkpt lat="45.09154" lon="5.61156">
        <ele>1700</ele>
        <time>2013-03-03T10:04:16.000Z</time>
      </trkpt>
      <trkpt lat="45.09154" lon="5.61156">
        <ele>1700</ele>
        <time>2013-03-03T10:04:16.000Z</time>
      </trkpt>
      <trkpt lat="45.09154" lon="5.61156">
        <ele>1700</ele>
        <time>2013-03-03T10:04:17.000Z</time>
      </trkpt>
      <trkpt lat="45.09149" lon="5.61158">
        <ele>1699</ele>
        <time>2013-03-03T10:04:29.000Z</time>
      </trkpt>
      <trkpt lat="45.09145" lon="5.6116">
        <ele>1699</ele>
        <time>2013-03-03T10:04:37.000Z</time>
      </trkpt>
      <trkpt lat="45.0914" lon="5.61164">
        <ele>1699</ele>
        <time>2013-03-03T10:04:46.000Z</time>
      </trkpt>
      <trkpt lat="45.09136" lon="5.61167">
        <ele>1711</ele>
        <time>2013-03-03T10:04:57.000Z</time>
      </trkpt>
      <trkpt lat="45.09136" lon="5.61167">
        <ele>1711</ele>
        <time>2013-03-03T10:04:57.000Z</time>
      </trkpt>
      <trkpt lat="45.09136" lon="5.61167">
        <ele>1711</ele>
        <time>2013-03-03T10:05:02.000Z</time>
      </trkpt>
      <trkpt lat="45.09132" lon="5.61171">
        <ele>1712</ele>
        <time>2013-03-03T10:05:12.000Z</time>
      </trkpt>
      <trkpt lat="45.09129" lon="5.61175">
        <ele>1712</ele>
        <time>2013-03-03T10:05:20.000Z</time>
      </trkpt>
      <trkpt lat="45.09126" lon="5.61181">
        <ele>1713</ele>
        <time>2013-03-03T10:05:30.000Z</time>
      </trkpt>
      <trkpt lat="45.09124" lon="5.61186">
        <ele>1713</ele>
        <time>2013-03-03T10:05:40.000Z</time>
      </trkpt>
      <trkpt lat="45.09124" lon="5.61186">
        <ele>1713</ele>
        <time>2013-03-03T10:05:40.000Z</time>
      </trkpt>
      <trkpt lat="45.09124" lon="5.61186">
        <ele>1713</ele>
        <time>2013-03-03T10:05:41.000Z</time>
      </trkpt>
      <trkpt lat="45.0912" lon="5.61189">
        <ele>1714</ele>
        <time>2013-03-03T10:05:49.000Z</time>
      </trkpt>
      <trkpt lat="45.09115" lon="5.61192">
        <ele>1714</ele>
        <time>2013-03-03T10:05:58.000Z</time>
      </trkpt>
      <trkpt lat="45.09111" lon="5.61194">
        <ele>1715</ele>
        <time>2013-03-03T10:06:07.000Z</time>
      </trkpt>
      <trkpt lat="45.09107" lon="5.61196">
        <ele>1715</ele>
        <time>2013-03-03T10:06:17.000Z</time>
      </trkpt>
      <trkpt lat="45.09102" lon="5.61196">
        <ele>1715</ele>
        <time>2013-03-03T10:06:25.000Z</time>
      </trkpt>
      <trkpt lat="45.09097" lon="5.61198">
        <ele>1715</ele>
        <time>2013-03-03T10:06:36.000Z</time>
      </trkpt>
      <trkpt lat="45.09092" lon="5.612">
        <ele>1715</ele>
        <time>2013-03-03T10:06:45.000Z</time>
      </trkpt>
      <trkpt lat="45.09088" lon="5.61203">
        <ele>1716</ele>
        <time>2013-03-03T10:06:54.000Z</time>
      </trkpt>
      <trkpt lat="45.09084" lon="5.61207">
        <ele>1717</ele>
        <time>2013-03-03T10:07:04.000Z</time>
      </trkpt>
      <trkpt lat="45.09079" lon="5.61211">
        <ele>1721</ele>
        <time>2013-03-03T10:07:12.000Z</time>
      </trkpt>
      <trkpt lat="45.09075" lon="5.61215">
        <ele>1721</ele>
        <time>2013-03-03T10:07:21.000Z</time>
      </trkpt>
      <trkpt lat="45.09071" lon="5.61218">
        <ele>1722</ele>
        <time>2013-03-03T10:07:30.000Z</time>
      </trkpt>
      <trkpt lat="45.09068" lon="5.61224">
        <ele>1723</ele>
        <time>2013-03-03T10:07:38.000Z</time>
      </trkpt>
      <trkpt lat="45.09069" lon="5.6123">
        <ele>1724</ele>
        <time>2013-03-03T10:07:47.000Z</time>
      </trkpt>
      <trkpt lat="45.09069" lon="5.61237">
        <ele>1724</ele>
        <time>2013-03-03T10:07:54.000Z</time>
      </trkpt>
      <trkpt lat="45.09069" lon="5.61243">
        <ele>1725</ele>
        <time>2013-03-03T10:08:02.000Z</time>
      </trkpt>
      <trkpt lat="45.09069" lon="5.6125">
        <ele>1725</ele>
        <time>2013-03-03T10:08:09.000Z</time>
      </trkpt>
      <trkpt lat="45.09068" lon="5.61256">
        <ele>1732</ele>
        <time>2013-03-03T10:08:25.000Z</time>
      </trkpt>
      <trkpt lat="45.09069" lon="5.61264">
        <ele>1733</ele>
        <time>2013-03-03T10:08:49.000Z</time>
      </trkpt>
      <trkpt lat="45.0907" lon="5.61271">
        <ele>1734</ele>
        <time>2013-03-03T10:08:56.000Z</time>
      </trkpt>
      <trkpt lat="45.09071" lon="5.61277">
        <ele>1734</ele>
        <time>2013-03-03T10:09:15.000Z</time>
      </trkpt>
      <trkpt lat="45.09071" lon="5.61277">
        <ele>1734</ele>
        <time>2013-03-03T10:09:15.000Z</time>
      </trkpt>
      <trkpt lat="45.09071" lon="5.61277">
        <ele>1734</ele>
        <time>2013-03-03T10:09:36.000Z</time>
      </trkpt>
      <trkpt lat="45.09071" lon="5.61284">
        <ele>1735</ele>
        <time>2013-03-03T10:09:53.000Z</time>
      </trkpt>
      <trkpt lat="45.09073" lon="5.6129">
        <ele>1736</ele>
        <time>2013-03-03T10:09:58.000Z</time>
      </trkpt>
      <trkpt lat="45.09074" lon="5.61296">
        <ele>1736</ele>
        <time>2013-03-03T10:10:01.000Z</time>
      </trkpt>
      <trkpt lat="45.09076" lon="5.61302">
        <ele>1737</ele>
        <time>2013-03-03T10:10:04.000Z</time>
      </trkpt>
      <trkpt lat="45.09078" lon="5.61308">
        <ele>1737</ele>
        <time>2013-03-03T10:10:08.000Z</time>
      </trkpt>
      <trkpt lat="45.0908" lon="5.61314">
        <ele>1738</ele>
        <time>2013-03-03T10:10:12.000Z</time>
      </trkpt>
      <trkpt lat="45.09082" lon="5.61321">
        <ele>1739</ele>
        <time>2013-03-03T10:10:16.000Z</time>
      </trkpt>
      <trkpt lat="45.09084" lon="5.61327">
        <ele>1739</ele>
        <time>2013-03-03T10:10:20.000Z</time>
      </trkpt>
      <trkpt lat="45.09084" lon="5.61334">
        <ele>1740</ele>
        <time>2013-03-03T10:10:26.000Z</time>
      </trkpt>
      <trkpt lat="45.09084" lon="5.61341">
        <ele>1742</ele>
        <time>2013-03-03T10:10:33.000Z</time>
      </trkpt>
      <trkpt lat="45.09084" lon="5.61341">
        <ele>1742</ele>
        <time>2013-03-03T10:10:33.000Z</time>
      </trkpt>
      <trkpt lat="45.09084" lon="5.61341">
        <ele>1742</ele>
        <time>2013-03-03T10:10:34.000Z</time>
      </trkpt>
      <trkpt lat="45.09084" lon="5.61348">
        <ele>1744</ele>
        <time>2013-03-03T10:10:42.000Z</time>
      </trkpt>
      <trkpt lat="45.09084" lon="5.61355">
        <ele>1745</ele>
        <time>2013-03-03T10:10:50.000Z</time>
      </trkpt>
      <trkpt lat="45.09083" lon="5.61362">
        <ele>1747</ele>
        <time>2013-03-03T10:10:56.000Z</time>
      </trkpt>
      <trkpt lat="45.09082" lon="5.61369">
        <ele>1747</ele>
        <time>2013-03-03T10:11:03.000Z</time>
      </trkpt>
      <trkpt lat="45.09082" lon="5.61376">
        <ele>1748</ele>
        <time>2013-03-03T10:11:10.000Z</time>
      </trkpt>
      <trkpt lat="45.09083" lon="5.61383">
        <ele>1749</ele>
        <time>2013-03-03T10:11:18.000Z</time>
      </trkpt>
      <trkpt lat="45.09083" lon="5.61383">
        <ele>1749</ele>
        <time>2013-03-03T10:11:18.000Z</time>
      </trkpt>
      <trkpt lat="45.09083" lon="5.61383">
        <ele>1749</ele>
        <time>2013-03-03T10:11:19.000Z</time>
      </trkpt>
      <trkpt lat="45.09084" lon="5.6139">
        <ele>1749</ele>
        <time>2013-03-03T10:11:27.000Z</time>
      </trkpt>
      <trkpt lat="45.09084" lon="5.61396">
        <ele>1749</ele>
        <time>2013-03-03T10:11:33.000Z</time>
      </trkpt>
      <trkpt lat="45.09084" lon="5.61402">
        <ele>1750</ele>
        <time>2013-03-03T10:11:40.000Z</time>
      </trkpt>
      <trkpt lat="45.09083" lon="5.61409">
        <ele>1751</ele>
        <time>2013-03-03T10:11:51.000Z</time>
      </trkpt>
      <trkpt lat="45.09083" lon="5.61415">
        <ele>1751</ele>
        <time>2013-03-03T10:11:58.000Z</time>
      </trkpt>
      <trkpt lat="45.09084" lon="5.61422">
        <ele>1753</ele>
        <time>2013-03-03T10:12:08.000Z</time>
      </trkpt>
      <trkpt lat="45.09086" lon="5.61429">
        <ele>1755</ele>
        <time>2013-03-03T10:12:18.000Z</time>
      </trkpt>
      <trkpt lat="45.09086" lon="5.61436">
        <ele>1756</ele>
        <time>2013-03-03T10:12:26.000Z</time>
      </trkpt>
      <trkpt lat="45.09083" lon="5.61442">
        <ele>1761</ele>
        <time>2013-03-03T10:12:32.000Z</time>
      </trkpt>
      <trkpt lat="45.0908" lon="5.61448">
        <ele>1762</ele>
        <time>2013-03-03T10:12:40.000Z</time>
      </trkpt>
      <trkpt lat="45.09076" lon="5.61453">
        <ele>1763</ele>
        <time>2013-03-03T10:12:51.000Z</time>
      </trkpt>
      <trkpt lat="45.09073" lon="5.61457">
        <ele>1764</ele>
        <time>2013-03-03T10:13:01.000Z</time>
      </trkpt>
      <trkpt lat="45.09068" lon="5.61459">
        <ele>1764</ele>
        <time>2013-03-03T10:13:13.000Z</time>
      </trkpt>
      <trkpt lat="45.09064" lon="5.61461">
        <ele>1765</ele>
        <time>2013-03-03T10:13:28.000Z</time>
      </trkpt>
      <trkpt lat="45.09064" lon="5.61461">
        <ele>1765</ele>
        <time>2013-03-03T10:13:28.000Z</time>
      </trkpt>
      <trkpt lat="45.09064" lon="5.61461">
        <ele>1765</ele>
        <time>2013-03-03T10:13:29.000Z</time>
      </trkpt>
      <trkpt lat="45.09059" lon="5.61463">
        <ele>1766</ele>
        <time>2013-03-03T10:13:42.000Z</time>
      </trkpt>
      <trkpt lat="45.09054" lon="5.61464">
        <ele>1766</ele>
        <time>2013-03-03T10:13:53.000Z</time>
      </trkpt>
      <trkpt lat="45.09049" lon="5.61465">
        <ele>1767</ele>
        <time>2013-03-03T10:14:03.000Z</time>
      </trkpt>
      <trkpt lat="45.09045" lon="5.61467">
        <ele>1768</ele>
        <time>2013-03-03T10:14:14.000Z</time>
      </trkpt>
      <trkpt lat="45.0904" lon="5.61469">
        <ele>1768</ele>
        <time>2013-03-03T10:14:25.000Z</time>
      </trkpt>
      <trkpt lat="45.09035" lon="5.6147">
        <ele>1769</ele>
        <time>2013-03-03T10:14:37.000Z</time>
      </trkpt>
      <trkpt lat="45.09035" lon="5.6147">
        <ele>1769</ele>
        <time>2013-03-03T10:14:37.000Z</time>
      </trkpt>
      <trkpt lat="45.09035" lon="5.6147">
        <ele>1769</ele>
        <time>2013-03-03T10:14:38.000Z</time>
      </trkpt>
      <trkpt lat="45.0903" lon="5.6147">
        <ele>1770</ele>
        <time>2013-03-03T10:14:52.000Z</time>
      </trkpt>
      <trkpt lat="45.09026" lon="5.61469">
        <ele>1771</ele>
        <time>2013-03-03T10:15:05.000Z</time>
      </trkpt>
      <trkpt lat="45.09026" lon="5.61469">
        <ele>1771</ele>
        <time>2013-03-03T10:15:05.000Z</time>
      </trkpt>
      <trkpt lat="45.09026" lon="5.61469">
        <ele>1771</ele>
        <time>2013-03-03T10:15:07.000Z</time>
      </trkpt>
      <trkpt lat="45.09021" lon="5.61469">
        <ele>1771</ele>
        <time>2013-03-03T10:15:22.000Z</time>
      </trkpt>
      <trkpt lat="45.09016" lon="5.61468">
        <ele>1772</ele>
        <time>2013-03-03T10:15:40.000Z</time>
      </trkpt>
      <trkpt lat="45.09011" lon="5.61467">
        <ele>1772</ele>
        <time>2013-03-03T10:15:52.000Z</time>
      </trkpt>
      <trkpt lat="45.09011" lon="5.61467">
        <ele>1772</ele>
        <time>2013-03-03T10:15:52.000Z</time>
      </trkpt>
      <trkpt lat="45.09011" lon="5.61467">
        <ele>1772</ele>
        <time>2013-03-03T10:15:59.000Z</time>
      </trkpt>
      <trkpt lat="45.09007" lon="5.61464">
        <ele>1772</ele>
        <time>2013-03-03T10:16:08.000Z</time>
      </trkpt>
      <trkpt lat="45.09002" lon="5.61461">
        <ele>1771</ele>
        <time>2013-03-03T10:16:16.000Z</time>
      </trkpt>
      <trkpt lat="45.08998" lon="5.61458">
        <ele>1785</ele>
        <time>2013-03-03T10:16:25.000Z</time>
      </trkpt>
      <trkpt lat="45.08993" lon="5.61454">
        <ele>1784</ele>
        <time>2013-03-03T10:16:34.000Z</time>
      </trkpt>
      <trkpt lat="45.08988" lon="5.61452">
        <ele>1784</ele>
        <time>2013-03-03T10:16:42.000Z</time>
      </trkpt>
      <trkpt lat="45.08984" lon="5.61448">
        <ele>1784</ele>
        <time>2013-03-03T10:16:50.000Z</time>
      </trkpt>
      <trkpt lat="45.0898" lon="5.61445">
        <ele>1784</ele>
        <time>2013-03-03T10:16:57.000Z</time>
      </trkpt>
      <trkpt lat="45.08976" lon="5.61442">
        <ele>1784</ele>
        <time>2013-03-03T10:17:05.000Z</time>
      </trkpt>
      <trkpt lat="45.08971" lon="5.61439">
        <ele>1785</ele>
        <time>2013-03-03T10:17:13.000Z</time>
      </trkpt>
      <trkpt lat="45.08967" lon="5.61436">
        <ele>1785</ele>
        <time>2013-03-03T10:17:20.000Z</time>
      </trkpt>
      <trkpt lat="45.08962" lon="5.61434">
        <ele>1786</ele>
        <time>2013-03-03T10:17:28.000Z</time>
      </trkpt>
      <trkpt lat="45.08958" lon="5.61431">
        <ele>1787</ele>
        <time>2013-03-03T10:17:35.000Z</time>
      </trkpt>
      <trkpt lat="45.08953" lon="5.61428">
        <ele>1788</ele>
        <time>2013-03-03T10:17:44.000Z</time>
      </trkpt>
      <trkpt lat="45.08949" lon="5.61426">
        <ele>1789</ele>
        <time>2013-03-03T10:17:52.000Z</time>
      </trkpt>
      <trkpt lat="45.08944" lon="5.61424">
        <ele>1789</ele>
        <time>2013-03-03T10:18:01.000Z</time>
      </trkpt>
      <trkpt lat="45.0894" lon="5.61422">
        <ele>1790</ele>
        <time>2013-03-03T10:18:10.000Z</time>
      </trkpt>
      <trkpt lat="45.08934" lon="5.6142">
        <ele>1791</ele>
        <time>2013-03-03T10:18:18.000Z</time>
      </trkpt>
      <trkpt lat="45.0893" lon="5.61419">
        <ele>1792</ele>
        <time>2013-03-03T10:18:25.000Z</time>
      </trkpt>
      <trkpt lat="45.08925" lon="5.6142">
        <ele>1793</ele>
        <time>2013-03-03T10:18:33.000Z</time>
      </trkpt>
      <trkpt lat="45.0892" lon="5.61421">
        <ele>1793</ele>
        <time>2013-03-03T10:18:43.000Z</time>
      </trkpt>
      <trkpt lat="45.08916" lon="5.61424">
        <ele>1800</ele>
        <time>2013-03-03T10:18:53.000Z</time>
      </trkpt>
      <trkpt lat="45.08911" lon="5.61429">
        <ele>1803</ele>
        <time>2013-03-03T10:19:38.000Z</time>
      </trkpt>
      <trkpt lat="45.08907" lon="5.61432">
        <ele>1805</ele>
        <time>2013-03-03T10:19:48.000Z</time>
      </trkpt>
      <trkpt lat="45.08905" lon="5.61439">
        <ele>1808</ele>
        <time>2013-03-03T10:20:01.000Z</time>
      </trkpt>
      <trkpt lat="45.08905" lon="5.61445">
        <ele>1809</ele>
        <time>2013-03-03T10:20:30.000Z</time>
      </trkpt>
      <trkpt lat="45.08906" lon="5.61452">
        <ele>1811</ele>
        <time>2013-03-03T10:20:39.000Z</time>
      </trkpt>
      <trkpt lat="45.08906" lon="5.61458">
        <ele>1812</ele>
        <time>2013-03-03T10:20:50.000Z</time>
      </trkpt>
      <trkpt lat="45.08905" lon="5.61465">
        <ele>1813</ele>
        <time>2013-03-03T10:21:00.000Z</time>
      </trkpt>
      <trkpt lat="45.08905" lon="5.61472">
        <ele>1814</ele>
        <time>2013-03-03T10:21:10.000Z</time>
      </trkpt>
      <trkpt lat="45.08902" lon="5.61476">
        <ele>1814</ele>
        <time>2013-03-03T10:21:22.000Z</time>
      </trkpt>
      <trkpt lat="45.08902" lon="5.61476">
        <ele>1814</ele>
        <time>2013-03-03T10:21:22.000Z</time>
      </trkpt>
      <trkpt lat="45.08902" lon="5.61476">
        <ele>1814</ele>
        <time>2013-03-03T10:21:23.000Z</time>
      </trkpt>
      <trkpt lat="45.089" lon="5.61482">
        <ele>1815</ele>
        <time>2013-03-03T10:21:34.000Z</time>
      </trkpt>
      <trkpt lat="45.08897" lon="5.61488">
        <ele>1816</ele>
        <time>2013-03-03T10:21:42.000Z</time>
      </trkpt>
      <trkpt lat="45.08897" lon="5.61494">
        <ele>1816</ele>
        <time>2013-03-03T10:21:52.000Z</time>
      </trkpt>
      <trkpt lat="45.08899" lon="5.615">
        <ele>1824</ele>
        <time>2013-03-03T10:22:00.000Z</time>
      </trkpt>
      <trkpt lat="45.08901" lon="5.61506">
        <ele>1824</ele>
        <time>2013-03-03T10:22:15.000Z</time>
      </trkpt>
      <trkpt lat="45.08901" lon="5.61506">
        <ele>1824</ele>
        <time>2013-03-03T10:22:15.000Z</time>
      </trkpt>
      <trkpt lat="45.08901" lon="5.61506">
        <ele>1824</ele>
        <time>2013-03-03T10:22:20.000Z</time>
      </trkpt>
      <trkpt lat="45.08903" lon="5.61512">
        <ele>1825</ele>
        <time>2013-03-03T10:23:51.000Z</time>
      </trkpt>
      <trkpt lat="45.08903" lon="5.61518">
        <ele>1827</ele>
        <time>2013-03-03T10:24:01.000Z</time>
      </trkpt>
      <trkpt lat="45.08902" lon="5.61525">
        <ele>1829</ele>
        <time>2013-03-03T10:29:12.000Z</time>
      </trkpt>
      <trkpt lat="45.08902" lon="5.61525">
        <ele>1829</ele>
        <time>2013-03-03T10:29:12.000Z</time>
      </trkpt>
      <trkpt lat="45.08902" lon="5.61525">
        <ele>1829</ele>
        <time>2013-03-03T10:29:13.000Z</time>
      </trkpt>
      <trkpt lat="45.08898" lon="5.6153">
        <ele>1830</ele>
        <time>2013-03-03T10:30:39.000Z</time>
      </trkpt>
      <trkpt lat="45.08894" lon="5.61532">
        <ele>1831</ele>
        <time>2013-03-03T10:31:11.000Z</time>
      </trkpt>
      <trkpt lat="45.08892" lon="5.61538">
        <ele>1832</ele>
        <time>2013-03-03T10:31:21.000Z</time>
      </trkpt>
      <trkpt lat="45.08888" lon="5.61541">
        <ele>1833</ele>
        <time>2013-03-03T10:31:35.000Z</time>
      </trkpt>
      <trkpt lat="45.08886" lon="5.61547">
        <ele>1834</ele>
        <time>2013-03-03T10:31:54.000Z</time>
      </trkpt>
      <trkpt lat="45.08886" lon="5.61547">
        <ele>1834</ele>
        <time>2013-03-03T10:31:54.000Z</time>
      </trkpt>
      <trkpt lat="45.08886" lon="5.61547">
        <ele>1834</ele>
        <time>2013-03-03T10:31:55.000Z</time>
      </trkpt>
      <trkpt lat="45.08884" lon="5.61553">
        <ele>1835</ele>
        <time>2013-03-03T10:32:07.000Z</time>
      </trkpt>
      <trkpt lat="45.08884" lon="5.61553">
        <ele>1835</ele>
        <time>2013-03-03T10:32:07.000Z</time>
      </trkpt>
      <trkpt lat="45.08884" lon="5.61553">
        <ele>1835</ele>
        <time>2013-03-03T10:32:08.000Z</time>
      </trkpt>
      <trkpt lat="45.08881" lon="5.61558">
        <ele>1836</ele>
        <time>2013-03-03T10:32:38.000Z</time>
      </trkpt>
      <trkpt lat="45.08876" lon="5.6156">
        <ele>1837</ele>
        <time>2013-03-03T10:32:48.000Z</time>
      </trkpt>
      <trkpt lat="45.08871" lon="5.61557">
        <ele>1838</ele>
        <time>2013-03-03T10:33:06.000Z</time>
      </trkpt>
      <trkpt lat="45.0887" lon="5.61564">
        <ele>1839</ele>
        <time>2013-03-03T10:33:27.000Z</time>
      </trkpt>
      <trkpt lat="45.0887" lon="5.61571">
        <ele>1839</ele>
        <time>2013-03-03T10:33:37.000Z</time>
      </trkpt>
      <trkpt lat="45.08866" lon="5.61578">
        <ele>1841</ele>
        <time>2013-03-03T10:33:52.000Z</time>
      </trkpt>
      <trkpt lat="45.08864" lon="5.61583">
        <ele>1842</ele>
        <time>2013-03-03T10:33:57.000Z</time>
      </trkpt>
      <trkpt lat="45.08868" lon="5.61583">
        <ele>1841</ele>
        <time>2013-03-03T10:34:12.000Z</time>
      </trkpt>
      <trkpt lat="45.08865" lon="5.61588">
        <ele>1854</ele>
        <time>2013-03-03T10:34:24.000Z</time>
      </trkpt>
      <trkpt lat="45.08866" lon="5.61594">
        <ele>1854</ele>
        <time>2013-03-03T10:34:32.000Z</time>
      </trkpt>
      <trkpt lat="45.08866" lon="5.61601">
        <ele>1855</ele>
        <time>2013-03-03T10:34:41.000Z</time>
      </trkpt>
      <trkpt lat="45.08866" lon="5.61608">
        <ele>1856</ele>
        <time>2013-03-03T10:34:48.000Z</time>
      </trkpt>
      <trkpt lat="45.08864" lon="5.61614">
        <ele>1857</ele>
        <time>2013-03-03T10:34:56.000Z</time>
      </trkpt>
      <trkpt lat="45.08863" lon="5.61621">
        <ele>1858</ele>
        <time>2013-03-03T10:35:28.000Z</time>
      </trkpt>
      <trkpt lat="45.08864" lon="5.61627">
        <ele>1858</ele>
        <time>2013-03-03T10:35:35.000Z</time>
      </trkpt>
      <trkpt lat="45.08864" lon="5.61634">
        <ele>1860</ele>
        <time>2013-03-03T10:35:43.000Z</time>
      </trkpt>
      <trkpt lat="45.08864" lon="5.61641">
        <ele>1861</ele>
        <time>2013-03-03T10:35:51.000Z</time>
      </trkpt>
      <trkpt lat="45.08865" lon="5.61647">
        <ele>1861</ele>
        <time>2013-03-03T10:36:00.000Z</time>
      </trkpt>
      <trkpt lat="45.08866" lon="5.61653">
        <ele>1862</ele>
        <time>2013-03-03T10:36:14.000Z</time>
      </trkpt>
      <trkpt lat="45.08865" lon="5.6166">
        <ele>1863</ele>
        <time>2013-03-03T10:36:22.000Z</time>
      </trkpt>
      <trkpt lat="45.08864" lon="5.61667">
        <ele>1877</ele>
        <time>2013-03-03T10:36:35.000Z</time>
      </trkpt>
      <trkpt lat="45.08867" lon="5.61672">
        <ele>1877</ele>
        <time>2013-03-03T10:36:46.000Z</time>
      </trkpt>
      <trkpt lat="45.08868" lon="5.61679">
        <ele>1877</ele>
        <time>2013-03-03T10:36:59.000Z</time>
      </trkpt>
      <trkpt lat="45.08872" lon="5.61684">
        <ele>1876</ele>
        <time>2013-03-03T10:37:14.000Z</time>
      </trkpt>
      <trkpt lat="45.08877" lon="5.61685">
        <ele>1875</ele>
        <time>2013-03-03T10:37:21.000Z</time>
      </trkpt>
      <trkpt lat="45.08877" lon="5.61685">
        <ele>1875</ele>
        <time>2013-03-03T10:37:21.000Z</time>
      </trkpt>
      <trkpt lat="45.08877" lon="5.61685">
        <ele>1875</ele>
        <time>2013-03-03T10:37:22.000Z</time>
      </trkpt>
      <trkpt lat="45.08881" lon="5.61688">
        <ele>1875</ele>
        <time>2013-03-03T10:37:29.000Z</time>
      </trkpt>
      <trkpt lat="45.08884" lon="5.61694">
        <ele>1875</ele>
        <time>2013-03-03T10:37:36.000Z</time>
      </trkpt>
      <trkpt lat="45.08887" lon="5.617">
        <ele>1875</ele>
        <time>2013-03-03T10:37:49.000Z</time>
      </trkpt>
      <trkpt lat="45.0889" lon="5.61704">
        <ele>1876</ele>
        <time>2013-03-03T10:37:59.000Z</time>
      </trkpt>
      <trkpt lat="45.08895" lon="5.61709">
        <ele>1876</ele>
        <time>2013-03-03T10:38:07.000Z</time>
      </trkpt>
      <trkpt lat="45.08898" lon="5.61714">
        <ele>1876</ele>
        <time>2013-03-03T10:38:14.000Z</time>
      </trkpt>
      <trkpt lat="45.08902" lon="5.61719">
        <ele>1877</ele>
        <time>2013-03-03T10:38:22.000Z</time>
      </trkpt>
      <trkpt lat="45.08904" lon="5.61725">
        <ele>1877</ele>
        <time>2013-03-03T10:38:30.000Z</time>
      </trkpt>
      <trkpt lat="45.08906" lon="5.61731">
        <ele>1878</ele>
        <time>2013-03-03T10:38:40.000Z</time>
      </trkpt>
      <trkpt lat="45.08909" lon="5.61736">
        <ele>1878</ele>
        <time>2013-03-03T10:38:50.000Z</time>
      </trkpt>
      <trkpt lat="45.08912" lon="5.61741">
        <ele>1879</ele>
        <time>2013-03-03T10:39:00.000Z</time>
      </trkpt>
      <trkpt lat="45.08914" lon="5.61747">
        <ele>1879</ele>
        <time>2013-03-03T10:39:10.000Z</time>
      </trkpt>
      <trkpt lat="45.08916" lon="5.61754">
        <ele>1882</ele>
        <time>2013-03-03T10:39:23.000Z</time>
      </trkpt>
      <trkpt lat="45.08916" lon="5.6176">
        <ele>1886</ele>
        <time>2013-03-03T10:39:35.000Z</time>
      </trkpt>
      <trkpt lat="45.08917" lon="5.61767">
        <ele>1882</ele>
        <time>2013-03-03T10:39:46.000Z</time>
      </trkpt>
      <trkpt lat="45.08918" lon="5.61773">
        <ele>1884</ele>
        <time>2013-03-03T10:39:55.000Z</time>
      </trkpt>
      <trkpt lat="45.0892" lon="5.6178">
        <ele>1885</ele>
        <time>2013-03-03T10:40:08.000Z</time>
      </trkpt>
      <trkpt lat="45.08921" lon="5.61786">
        <ele>1886</ele>
        <time>2013-03-03T10:40:20.000Z</time>
      </trkpt>
      <trkpt lat="45.08922" lon="5.61793">
        <ele>1888</ele>
        <time>2013-03-03T10:40:31.000Z</time>
      </trkpt>
      <trkpt lat="45.0892" lon="5.61799">
        <ele>1890</ele>
        <time>2013-03-03T10:40:43.000Z</time>
      </trkpt>
      <trkpt lat="45.0892" lon="5.61806">
        <ele>1892</ele>
        <time>2013-03-03T10:40:55.000Z</time>
      </trkpt>
      <trkpt lat="45.08921" lon="5.61813">
        <ele>1894</ele>
        <time>2013-03-03T10:41:09.000Z</time>
      </trkpt>
      <trkpt lat="45.08921" lon="5.61819">
        <ele>1897</ele>
        <time>2013-03-03T10:41:50.000Z</time>
      </trkpt>
      <trkpt lat="45.08922" lon="5.61826">
        <ele>1900</ele>
        <time>2013-03-03T10:42:02.000Z</time>
      </trkpt>
      <trkpt lat="45.08922" lon="5.61826">
        <ele>1900</ele>
        <time>2013-03-03T10:42:02.000Z</time>
      </trkpt>
      <trkpt lat="45.08922" lon="5.61826">
        <ele>1900</ele>
        <time>2013-03-03T10:42:03.000Z</time>
      </trkpt>
      <trkpt lat="45.08922" lon="5.61833">
        <ele>1903</ele>
        <time>2013-03-03T10:42:10.000Z</time>
      </trkpt>
      <trkpt lat="45.08923" lon="5.61841">
        <ele>1908</ele>
        <time>2013-03-03T10:42:18.000Z</time>
      </trkpt>
      <trkpt lat="45.08924" lon="5.61847">
        <ele>1909</ele>
        <time>2013-03-03T10:42:26.000Z</time>
      </trkpt>
      <trkpt lat="45.08925" lon="5.61854">
        <ele>1910</ele>
        <time>2013-03-03T10:42:38.000Z</time>
      </trkpt>
      <trkpt lat="45.08925" lon="5.61854">
        <ele>1910</ele>
        <time>2013-03-03T10:42:38.000Z</time>
      </trkpt>
      <trkpt lat="45.08925" lon="5.61854">
        <ele>1910</ele>
        <time>2013-03-03T10:42:39.000Z</time>
      </trkpt>
      <trkpt lat="45.08924" lon="5.61861">
        <ele>1911</ele>
        <time>2013-03-03T10:42:49.000Z</time>
      </trkpt>
      <trkpt lat="45.08925" lon="5.61868">
        <ele>1911</ele>
        <time>2013-03-03T10:42:57.000Z</time>
      </trkpt>
      <trkpt lat="45.08926" lon="5.61874">
        <ele>1912</ele>
        <time>2013-03-03T10:43:06.000Z</time>
      </trkpt>
      <trkpt lat="45.08926" lon="5.61881">
        <ele>1913</ele>
        <time>2013-03-03T10:43:15.000Z</time>
      </trkpt>
      <trkpt lat="45.08926" lon="5.61888">
        <ele>1915</ele>
        <time>2013-03-03T10:43:26.000Z</time>
      </trkpt>
      <trkpt lat="45.08926" lon="5.61888">
        <ele>1915</ele>
        <time>2013-03-03T10:43:26.000Z</time>
      </trkpt>
      <trkpt lat="45.08926" lon="5.61888">
        <ele>1915</ele>
        <time>2013-03-03T10:43:27.000Z</time>
      </trkpt>
      <trkpt lat="45.08925" lon="5.61895">
        <ele>1916</ele>
        <time>2013-03-03T10:43:40.000Z</time>
      </trkpt>
      <trkpt lat="45.08926" lon="5.61902">
        <ele>1917</ele>
        <time>2013-03-03T10:43:49.000Z</time>
      </trkpt>
      <trkpt lat="45.08925" lon="5.61908">
        <ele>1919</ele>
        <time>2013-03-03T10:43:59.000Z</time>
      </trkpt>
      <trkpt lat="45.08931" lon="5.6191">
        <ele>1918</ele>
        <time>2013-03-03T10:44:15.000Z</time>
      </trkpt>
      <trkpt lat="45.08931" lon="5.6191">
        <ele>1918</ele>
        <time>2013-03-03T10:44:15.000Z</time>
      </trkpt>
      <trkpt lat="45.08931" lon="5.6191">
        <ele>1918</ele>
        <time>2013-03-03T10:44:16.000Z</time>
      </trkpt>
      <trkpt lat="45.08936" lon="5.61912">
        <ele>1917</ele>
        <time>2013-03-03T10:44:25.000Z</time>
      </trkpt>
      <trkpt lat="45.0894" lon="5.61908">
        <ele>1916</ele>
        <time>2013-03-03T10:44:36.000Z</time>
      </trkpt>
      <trkpt lat="45.08945" lon="5.61911">
        <ele>1916</ele>
        <time>2013-03-03T10:44:45.000Z</time>
      </trkpt>
      <trkpt lat="45.08948" lon="5.61916">
        <ele>1916</ele>
        <time>2013-03-03T10:44:55.000Z</time>
      </trkpt>
      <trkpt lat="45.0895" lon="5.61922">
        <ele>1917</ele>
        <time>2013-03-03T10:45:02.000Z</time>
      </trkpt>
      <trkpt lat="45.08953" lon="5.61927">
        <ele>1916</ele>
        <time>2013-03-03T10:45:18.000Z</time>
      </trkpt>
      <trkpt lat="45.08956" lon="5.61931">
        <ele>1916</ele>
        <time>2013-03-03T10:45:28.000Z</time>
      </trkpt>
      <trkpt lat="45.0896" lon="5.61935">
        <ele>1916</ele>
        <time>2013-03-03T10:45:35.000Z</time>
      </trkpt>
      <trkpt lat="45.08962" lon="5.61941">
        <ele>1916</ele>
        <time>2013-03-03T10:45:43.000Z</time>
      </trkpt>
      <trkpt lat="45.08964" lon="5.61947">
        <ele>1916</ele>
        <time>2013-03-03T10:45:53.000Z</time>
      </trkpt>
      <trkpt lat="45.08966" lon="5.61953">
        <ele>1916</ele>
        <time>2013-03-03T10:46:05.000Z</time>
      </trkpt>
      <trkpt lat="45.08968" lon="5.61959">
        <ele>1916</ele>
        <time>2013-03-03T10:46:15.000Z</time>
      </trkpt>
      <trkpt lat="45.0897" lon="5.61965">
        <ele>1916</ele>
        <time>2013-03-03T10:46:28.000Z</time>
      </trkpt>
      <trkpt lat="45.08972" lon="5.61972">
        <ele>1917</ele>
        <time>2013-03-03T10:46:36.000Z</time>
      </trkpt>
      <trkpt lat="45.08972" lon="5.61972">
        <ele>1917</ele>
        <time>2013-03-03T10:46:36.000Z</time>
      </trkpt>
      <trkpt lat="45.08972" lon="5.61972">
        <ele>1917</ele>
        <time>2013-03-03T10:46:37.000Z</time>
      </trkpt>
      <trkpt lat="45.08975" lon="5.61977">
        <ele>1919</ele>
        <time>2013-03-03T10:46:45.000Z</time>
      </trkpt>
      <trkpt lat="45.08979" lon="5.6198">
        <ele>1921</ele>
        <time>2013-03-03T10:46:55.000Z</time>
      </trkpt>
      <trkpt lat="45.08983" lon="5.61985">
        <ele>1924</ele>
        <time>2013-03-03T10:47:07.000Z</time>
      </trkpt>
      <trkpt lat="45.08987" lon="5.61988">
        <ele>1928</ele>
        <time>2013-03-03T10:47:19.000Z</time>
      </trkpt>
      <trkpt lat="45.08987" lon="5.61988">
        <ele>1928</ele>
        <time>2013-03-03T10:47:19.000Z</time>
      </trkpt>
      <trkpt lat="45.08987" lon="5.61988">
        <ele>1928</ele>
        <time>2013-03-03T10:47:20.000Z</time>
      </trkpt>
      <trkpt lat="45.08991" lon="5.61992">
        <ele>1932</ele>
        <time>2013-03-03T10:47:31.000Z</time>
      </trkpt>
      <trkpt lat="45.08996" lon="5.61991">
        <ele>1935</ele>
        <time>2013-03-03T10:51:56.000Z</time>
      </trkpt>
      <trkpt lat="45.09001" lon="5.61992">
        <ele>1940</ele>
        <time>2013-03-03T10:52:00.000Z</time>
      </trkpt>
      <trkpt lat="45.09005" lon="5.61995">
        <ele>1940</ele>
        <time>2013-03-03T10:52:19.000Z</time>
      </trkpt>
      <trkpt lat="45.09011" lon="5.61996">
        <ele>1938</ele>
        <time>2013-03-03T10:52:23.000Z</time>
      </trkpt>
      <trkpt lat="45.09013" lon="5.62002">
        <ele>1931</ele>
        <time>2013-03-03T10:52:30.000Z</time>
      </trkpt>
      <trkpt lat="45.09017" lon="5.62006">
        <ele>1927</ele>
        <time>2013-03-03T10:52:37.000Z</time>
      </trkpt>
      <trkpt lat="45.09022" lon="5.62008">
        <ele>1924</ele>
        <time>2013-03-03T10:52:42.000Z</time>
      </trkpt>
      <trkpt lat="45.09018" lon="5.62004">
        <ele>1927</ele>
        <time>2013-03-03T10:54:42.000Z</time>
      </trkpt>
      <trkpt lat="45.09013" lon="5.62002">
        <ele>1931</ele>
        <time>2013-03-03T10:54:46.000Z</time>
      </trkpt>
      <trkpt lat="45.0901" lon="5.61997">
        <ele>1938</ele>
        <time>2013-03-03T10:54:51.000Z</time>
      </trkpt>
      <trkpt lat="45.09005" lon="5.61992">
        <ele>1939</ele>
        <time>2013-03-03T10:54:57.000Z</time>
      </trkpt>
      <trkpt lat="45.09" lon="5.61992">
        <ele>1940</ele>
        <time>2013-03-03T10:55:14.000Z</time>
      </trkpt>
      <trkpt lat="45.08996" lon="5.61993">
        <ele>1936</ele>
        <time>2013-03-03T10:55:19.000Z</time>
      </trkpt>
      <trkpt lat="45.08992" lon="5.61989">
        <ele>1931</ele>
        <time>2013-03-03T11:09:25.000Z</time>
      </trkpt>
      <trkpt lat="45.08992" lon="5.61989">
        <ele>1931</ele>
        <time>2013-03-03T11:09:25.000Z</time>
      </trkpt>
      <trkpt lat="45.08992" lon="5.61989">
        <ele>1931</ele>
        <time>2013-03-03T11:10:42.000Z</time>
      </trkpt>
      <trkpt lat="45.08987" lon="5.6199">
        <ele>1929</ele>
        <time>2013-03-03T11:13:30.000Z</time>
      </trkpt>
      <trkpt lat="45.08984" lon="5.61983">
        <ele>1924</ele>
        <time>2013-03-03T11:15:30.000Z</time>
      </trkpt>
      <trkpt lat="45.08981" lon="5.61976">
        <ele>1921</ele>
        <time>2013-03-03T11:15:33.000Z</time>
      </trkpt>
      <trkpt lat="45.08974" lon="5.61973">
        <ele>1918</ele>
        <time>2013-03-03T11:15:35.000Z</time>
      </trkpt>
      <trkpt lat="45.08968" lon="5.61972">
        <ele>1916</ele>
        <time>2013-03-03T11:15:37.000Z</time>
      </trkpt>
      <trkpt lat="45.08963" lon="5.61974">
        <ele>1914</ele>
        <time>2013-03-03T11:15:39.000Z</time>
      </trkpt>
      <trkpt lat="45.08958" lon="5.61966">
        <ele>1912</ele>
        <time>2013-03-03T11:15:42.000Z</time>
      </trkpt>
      <trkpt lat="45.08954" lon="5.61962">
        <ele>1912</ele>
        <time>2013-03-03T11:15:44.000Z</time>
      </trkpt>
      <trkpt lat="45.08947" lon="5.61963">
        <ele>1910</ele>
        <time>2013-03-03T11:15:46.000Z</time>
      </trkpt>
      <trkpt lat="45.08944" lon="5.61958">
        <ele>1910</ele>
        <time>2013-03-03T11:15:48.000Z</time>
      </trkpt>
      <trkpt lat="45.08941" lon="5.61952">
        <ele>1911</ele>
        <time>2013-03-03T11:15:50.000Z</time>
      </trkpt>
      <trkpt lat="45.08936" lon="5.6195">
        <ele>1911</ele>
        <time>2013-03-03T11:15:52.000Z</time>
      </trkpt>
      <trkpt lat="45.08935" lon="5.61942">
        <ele>1913</ele>
        <time>2013-03-03T11:15:57.000Z</time>
      </trkpt>
      <trkpt lat="45.0893" lon="5.61945">
        <ele>1912</ele>
        <time>2013-03-03T11:16:00.000Z</time>
      </trkpt>
      <trkpt lat="45.08925" lon="5.61951">
        <ele>1909</ele>
        <time>2013-03-03T11:16:02.000Z</time>
      </trkpt>
      <trkpt lat="45.08919" lon="5.61956">
        <ele>1907</ele>
        <time>2013-03-03T11:16:04.000Z</time>
      </trkpt>
      <trkpt lat="45.08914" lon="5.61953">
        <ele>1866</ele>
        <time>2013-03-03T11:16:06.000Z</time>
      </trkpt>
      <trkpt lat="45.08912" lon="5.61944">
        <ele>1873</ele>
        <time>2013-03-03T11:16:08.000Z</time>
      </trkpt>
      <trkpt lat="45.08912" lon="5.61934">
        <ele>1884</ele>
        <time>2013-03-03T11:16:10.000Z</time>
      </trkpt>
      <trkpt lat="45.08913" lon="5.61926">
        <ele>1898</ele>
        <time>2013-03-03T11:16:43.000Z</time>
      </trkpt>
      <trkpt lat="45.08918" lon="5.61918">
        <ele>1922</ele>
        <time>2013-03-03T11:16:45.000Z</time>
      </trkpt>
      <trkpt lat="45.08923" lon="5.6191">
        <ele>1920</ele>
        <time>2013-03-03T11:16:47.000Z</time>
      </trkpt>
      <trkpt lat="45.08926" lon="5.61905">
        <ele>1918</ele>
        <time>2013-03-03T11:16:49.000Z</time>
      </trkpt>
      <trkpt lat="45.08928" lon="5.61899">
        <ele>1917</ele>
        <time>2013-03-03T11:16:52.000Z</time>
      </trkpt>
      <trkpt lat="45.0893" lon="5.61893">
        <ele>1915</ele>
        <time>2013-03-03T11:16:54.000Z</time>
      </trkpt>
      <trkpt lat="45.08926" lon="5.61886">
        <ele>1914</ele>
        <time>2013-03-03T11:16:58.000Z</time>
      </trkpt>
      <trkpt lat="45.08926" lon="5.61879">
        <ele>1913</ele>
        <time>2013-03-03T11:17:03.000Z</time>
      </trkpt>
      <trkpt lat="45.08928" lon="5.61872">
        <ele>1912</ele>
        <time>2013-03-03T11:17:16.000Z</time>
      </trkpt>
      <trkpt lat="45.08931" lon="5.61866">
        <ele>1911</ele>
        <time>2013-03-03T11:17:18.000Z</time>
      </trkpt>
      <trkpt lat="45.08927" lon="5.61858">
        <ele>1910</ele>
        <time>2013-03-03T11:17:20.000Z</time>
      </trkpt>
      <trkpt lat="45.08923" lon="5.6185">
        <ele>1909</ele>
        <time>2013-03-03T11:17:22.000Z</time>
      </trkpt>
      <trkpt lat="45.08924" lon="5.61844">
        <ele>1909</ele>
        <time>2013-03-03T11:17:23.000Z</time>
      </trkpt>
      <trkpt lat="45.08926" lon="5.61838">
        <ele>1908</ele>
        <time>2013-03-03T11:17:24.000Z</time>
      </trkpt>
      <trkpt lat="45.08925" lon="5.61826">
        <ele>1899</ele>
        <time>2013-03-03T11:17:26.000Z</time>
      </trkpt>
      <trkpt lat="45.08929" lon="5.61817">
        <ele>1894</ele>
        <time>2013-03-03T11:17:28.000Z</time>
      </trkpt>
      <trkpt lat="45.0893" lon="5.61808">
        <ele>1891</ele>
        <time>2013-03-03T11:17:30.000Z</time>
      </trkpt>
      <trkpt lat="45.08925" lon="5.61803">
        <ele>1890</ele>
        <time>2013-03-03T11:17:32.000Z</time>
      </trkpt>
      <trkpt lat="45.0892" lon="5.61799">
        <ele>1890</ele>
        <time>2013-03-03T11:17:34.000Z</time>
      </trkpt>
      <trkpt lat="45.08923" lon="5.61794">
        <ele>1888</ele>
        <time>2013-03-03T11:17:52.000Z</time>
      </trkpt>
      <trkpt lat="45.08923" lon="5.61784">
        <ele>1886</ele>
        <time>2013-03-03T11:17:55.000Z</time>
      </trkpt>
      <trkpt lat="45.08922" lon="5.61777">
        <ele>1884</ele>
        <time>2013-03-03T11:17:57.000Z</time>
      </trkpt>
      <trkpt lat="45.08928" lon="5.61773">
        <ele>1883</ele>
        <time>2013-03-03T11:17:59.000Z</time>
      </trkpt>
      <trkpt lat="45.08931" lon="5.61766">
        <ele>1882</ele>
        <time>2013-03-03T11:18:01.000Z</time>
      </trkpt>
      <trkpt lat="45.08927" lon="5.61759">
        <ele>1881</ele>
        <time>2013-03-03T11:18:03.000Z</time>
      </trkpt>
      <trkpt lat="45.08928" lon="5.61751">
        <ele>1881</ele>
        <time>2013-03-03T11:18:05.000Z</time>
      </trkpt>
      <trkpt lat="45.08931" lon="5.61745">
        <ele>1869</ele>
        <time>2013-03-03T11:18:07.000Z</time>
      </trkpt>
      <trkpt lat="45.08932" lon="5.61737">
        <ele>1866</ele>
        <time>2013-03-03T11:18:09.000Z</time>
      </trkpt>
      <trkpt lat="45.08936" lon="5.61731">
        <ele>1864</ele>
        <time>2013-03-03T11:18:11.000Z</time>
      </trkpt>
      <trkpt lat="45.08934" lon="5.61723">
        <ele>1862</ele>
        <time>2013-03-03T11:18:13.000Z</time>
      </trkpt>
      <trkpt lat="45.08933" lon="5.61715">
        <ele>1860</ele>
        <time>2013-03-03T11:18:15.000Z</time>
      </trkpt>
      <trkpt lat="45.08938" lon="5.61714">
        <ele>1859</ele>
        <time>2013-03-03T11:18:42.000Z</time>
      </trkpt>
      <trkpt lat="45.08943" lon="5.61711">
        <ele>1858</ele>
        <time>2013-03-03T11:18:44.000Z</time>
      </trkpt>
      <trkpt lat="45.08944" lon="5.61704">
        <ele>1857</ele>
        <time>2013-03-03T11:18:46.000Z</time>
      </trkpt>
      <trkpt lat="45.0894" lon="5.61697">
        <ele>1856</ele>
        <time>2013-03-03T11:18:48.000Z</time>
      </trkpt>
      <trkpt lat="45.08943" lon="5.61688">
        <ele>1854</ele>
        <time>2013-03-03T11:18:50.000Z</time>
      </trkpt>
      <trkpt lat="45.08942" lon="5.61679">
        <ele>1854</ele>
        <time>2013-03-03T11:18:52.000Z</time>
      </trkpt>
      <trkpt lat="45.08943" lon="5.61672">
        <ele>1853</ele>
        <time>2013-03-03T11:19:00.000Z</time>
      </trkpt>
      <trkpt lat="45.08943" lon="5.61672">
        <ele>1853</ele>
        <time>2013-03-03T11:19:00.000Z</time>
      </trkpt>
      <trkpt lat="45.08943" lon="5.61672">
        <ele>1853</ele>
        <time>2013-03-03T11:19:01.000Z</time>
      </trkpt>
      <trkpt lat="45.08942" lon="5.61664">
        <ele>1840</ele>
        <time>2013-03-03T11:19:04.000Z</time>
      </trkpt>
      <trkpt lat="45.08944" lon="5.61654">
        <ele>1838</ele>
        <time>2013-03-03T11:19:06.000Z</time>
      </trkpt>
      <trkpt lat="45.08941" lon="5.61644">
        <ele>1837</ele>
        <time>2013-03-03T11:19:08.000Z</time>
      </trkpt>
      <trkpt lat="45.08941" lon="5.61638">
        <ele>1837</ele>
        <time>2013-03-03T11:19:16.000Z</time>
      </trkpt>
      <trkpt lat="45.08942" lon="5.61631">
        <ele>1835</ele>
        <time>2013-03-03T11:19:34.000Z</time>
      </trkpt>
      <trkpt lat="45.08944" lon="5.61623">
        <ele>1834</ele>
        <time>2013-03-03T11:19:36.000Z</time>
      </trkpt>
      <trkpt lat="45.08944" lon="5.61613">
        <ele>1833</ele>
        <time>2013-03-03T11:19:38.000Z</time>
      </trkpt>
      <trkpt lat="45.08947" lon="5.61607">
        <ele>1832</ele>
        <time>2013-03-03T11:19:40.000Z</time>
      </trkpt>
      <trkpt lat="45.08953" lon="5.616">
        <ele>1831</ele>
        <time>2013-03-03T11:19:42.000Z</time>
      </trkpt>
      <trkpt lat="45.08959" lon="5.61597">
        <ele>1830</ele>
        <time>2013-03-03T11:19:44.000Z</time>
      </trkpt>
      <trkpt lat="45.08964" lon="5.6159">
        <ele>1829</ele>
        <time>2013-03-03T11:19:46.000Z</time>
      </trkpt>
      <trkpt lat="45.0897" lon="5.6159">
        <ele>1827</ele>
        <time>2013-03-03T11:19:48.000Z</time>
      </trkpt>
      <trkpt lat="45.08975" lon="5.61586">
        <ele>1826</ele>
        <time>2013-03-03T11:19:50.000Z</time>
      </trkpt>
      <trkpt lat="45.08979" lon="5.61578">
        <ele>1814</ele>
        <time>2013-03-03T11:19:52.000Z</time>
      </trkpt>
      <trkpt lat="45.08987" lon="5.6158">
        <ele>1814</ele>
        <time>2013-03-03T11:19:54.000Z</time>
      </trkpt>
      <trkpt lat="45.08992" lon="5.61574">
        <ele>1814</ele>
        <time>2013-03-03T11:19:56.000Z</time>
      </trkpt>
      <trkpt lat="45.08998" lon="5.61572">
        <ele>1814</ele>
        <time>2013-03-03T11:19:58.000Z</time>
      </trkpt>
      <trkpt lat="45.09004" lon="5.61577">
        <ele>1808</ele>
        <time>2013-03-03T11:20:00.000Z</time>
      </trkpt>
      <trkpt lat="45.09008" lon="5.61581">
        <ele>1808</ele>
        <time>2013-03-03T11:20:41.000Z</time>
      </trkpt>
      <trkpt lat="45.09015" lon="5.61588">
        <ele>1813</ele>
        <time>2013-03-03T11:20:43.000Z</time>
      </trkpt>
      <trkpt lat="45.09019" lon="5.61591">
        <ele>1812</ele>
        <time>2013-03-03T11:20:44.000Z</time>
      </trkpt>
      <trkpt lat="45.09023" lon="5.61595">
        <ele>1812</ele>
        <time>2013-03-03T11:20:45.000Z</time>
      </trkpt>
      <trkpt lat="45.09028" lon="5.61599">
        <ele>1811</ele>
        <time>2013-03-03T11:20:46.000Z</time>
      </trkpt>
      <trkpt lat="45.09034" lon="5.61602">
        <ele>1810</ele>
        <time>2013-03-03T11:20:47.000Z</time>
      </trkpt>
      <trkpt lat="45.09038" lon="5.61604">
        <ele>1810</ele>
        <time>2013-03-03T11:20:48.000Z</time>
      </trkpt>
      <trkpt lat="45.09042" lon="5.61607">
        <ele>1809</ele>
        <time>2013-03-03T11:20:49.000Z</time>
      </trkpt>
      <trkpt lat="45.09046" lon="5.61609">
        <ele>1809</ele>
        <time>2013-03-03T11:20:50.000Z</time>
      </trkpt>
      <trkpt lat="45.09051" lon="5.61612">
        <ele>1808</ele>
        <time>2013-03-03T11:20:51.000Z</time>
      </trkpt>
      <trkpt lat="45.09055" lon="5.61615">
        <ele>1808</ele>
        <time>2013-03-03T11:20:52.000Z</time>
      </trkpt>
      <trkpt lat="45.09059" lon="5.61618">
        <ele>1808</ele>
        <time>2013-03-03T11:20:53.000Z</time>
      </trkpt>
      <trkpt lat="45.09065" lon="5.61621">
        <ele>1808</ele>
        <time>2013-03-03T11:20:54.000Z</time>
      </trkpt>
      <trkpt lat="45.09071" lon="5.61623">
        <ele>1807</ele>
        <time>2013-03-03T11:20:55.000Z</time>
      </trkpt>
      <trkpt lat="45.09076" lon="5.61624">
        <ele>1807</ele>
        <time>2013-03-03T11:20:56.000Z</time>
      </trkpt>
      <trkpt lat="45.09081" lon="5.61624">
        <ele>1807</ele>
        <time>2013-03-03T11:20:57.000Z</time>
      </trkpt>
      <trkpt lat="45.09089" lon="5.61623">
        <ele>1800</ele>
        <time>2013-03-03T11:20:59.000Z</time>
      </trkpt>
      <trkpt lat="45.09093" lon="5.61614">
        <ele>1798</ele>
        <time>2013-03-03T11:21:01.000Z</time>
      </trkpt>
      <trkpt lat="45.0909" lon="5.61608">
        <ele>1797</ele>
        <time>2013-03-03T11:21:02.000Z</time>
      </trkpt>
      <trkpt lat="45.09088" lon="5.61598">
        <ele>1795</ele>
        <time>2013-03-03T11:21:04.000Z</time>
      </trkpt>
      <trkpt lat="45.09095" lon="5.61596">
        <ele>1795</ele>
        <time>2013-03-03T11:21:05.000Z</time>
      </trkpt>
      <trkpt lat="45.09096" lon="5.61586">
        <ele>1794</ele>
        <time>2013-03-03T11:21:07.000Z</time>
      </trkpt>
      <trkpt lat="45.09098" lon="5.61576">
        <ele>1785</ele>
        <time>2013-03-03T11:21:09.000Z</time>
      </trkpt>
      <trkpt lat="45.091" lon="5.61571">
        <ele>1784</ele>
        <time>2013-03-03T11:21:10.000Z</time>
      </trkpt>
      <trkpt lat="45.09098" lon="5.61561">
        <ele>1782</ele>
        <time>2013-03-03T11:21:12.000Z</time>
      </trkpt>
      <trkpt lat="45.09092" lon="5.61555">
        <ele>1781</ele>
        <time>2013-03-03T11:21:14.000Z</time>
      </trkpt>
      <trkpt lat="45.09096" lon="5.61549">
        <ele>1780</ele>
        <time>2013-03-03T11:21:16.000Z</time>
      </trkpt>
      <trkpt lat="45.09097" lon="5.6154">
        <ele>1778</ele>
        <time>2013-03-03T11:21:18.000Z</time>
      </trkpt>
      <trkpt lat="45.09091" lon="5.61532">
        <ele>1776</ele>
        <time>2013-03-03T11:21:20.000Z</time>
      </trkpt>
      <trkpt lat="45.09095" lon="5.61522">
        <ele>1774</ele>
        <time>2013-03-03T11:21:22.000Z</time>
      </trkpt>
      <trkpt lat="45.09096" lon="5.61516">
        <ele>1773</ele>
        <time>2013-03-03T11:21:23.000Z</time>
      </trkpt>
      <trkpt lat="45.09095" lon="5.61509">
        <ele>1771</ele>
        <time>2013-03-03T11:21:24.000Z</time>
      </trkpt>
      <trkpt lat="45.09092" lon="5.61502">
        <ele>1769</ele>
        <time>2013-03-03T11:21:25.000Z</time>
      </trkpt>
      <trkpt lat="45.09092" lon="5.61491">
        <ele>1763</ele>
        <time>2013-03-03T11:21:26.000Z</time>
      </trkpt>
      <trkpt lat="45.09092" lon="5.6148">
        <ele>1762</ele>
        <time>2013-03-03T11:21:27.000Z</time>
      </trkpt>
      <trkpt lat="45.09093" lon="5.61468">
        <ele>1761</ele>
        <time>2013-03-03T11:21:28.000Z</time>
      </trkpt>
      <trkpt lat="45.09095" lon="5.61456">
        <ele>1760</ele>
        <time>2013-03-03T11:21:29.000Z</time>
      </trkpt>
      <trkpt lat="45.09097" lon="5.61444">
        <ele>1758</ele>
        <time>2013-03-03T11:21:30.000Z</time>
      </trkpt>
      <trkpt lat="45.09098" lon="5.61432">
        <ele>1757</ele>
        <time>2013-03-03T11:21:31.000Z</time>
      </trkpt>
      <trkpt lat="45.091" lon="5.61422">
        <ele>1756</ele>
        <time>2013-03-03T11:21:32.000Z</time>
      </trkpt>
      <trkpt lat="45.09101" lon="5.61412">
        <ele>1750</ele>
        <time>2013-03-03T11:21:33.000Z</time>
      </trkpt>
      <trkpt lat="45.09102" lon="5.61404">
        <ele>1750</ele>
        <time>2013-03-03T11:21:34.000Z</time>
      </trkpt>
      <trkpt lat="45.09104" lon="5.61398">
        <ele>1750</ele>
        <time>2013-03-03T11:21:35.000Z</time>
      </trkpt>
      <trkpt lat="45.09107" lon="5.61392">
        <ele>1749</ele>
        <time>2013-03-03T11:21:36.000Z</time>
      </trkpt>
      <trkpt lat="45.09109" lon="5.61385">
        <ele>1749</ele>
        <time>2013-03-03T11:22:48.000Z</time>
      </trkpt>
      <trkpt lat="45.0911" lon="5.61373">
        <ele>1748</ele>
        <time>2013-03-03T11:22:50.000Z</time>
      </trkpt>
      <trkpt lat="45.0911" lon="5.61364">
        <ele>1747</ele>
        <time>2013-03-03T11:22:51.000Z</time>
      </trkpt>
      <trkpt lat="45.0911" lon="5.61354">
        <ele>1747</ele>
        <time>2013-03-03T11:22:52.000Z</time>
      </trkpt>
      <trkpt lat="45.09108" lon="5.61344">
        <ele>1746</ele>
        <time>2013-03-03T11:22:53.000Z</time>
      </trkpt>
      <trkpt lat="45.09106" lon="5.61336">
        <ele>1745</ele>
        <time>2013-03-03T11:22:54.000Z</time>
      </trkpt>
      <trkpt lat="45.09105" lon="5.61328">
        <ele>1738</ele>
        <time>2013-03-03T11:22:55.000Z</time>
      </trkpt>
      <trkpt lat="45.09105" lon="5.61319">
        <ele>1738</ele>
        <time>2013-03-03T11:22:57.000Z</time>
      </trkpt>
      <trkpt lat="45.091" lon="5.61311">
        <ele>1737</ele>
        <time>2013-03-03T11:22:59.000Z</time>
      </trkpt>
      <trkpt lat="45.09098" lon="5.61305">
        <ele>1736</ele>
        <time>2013-03-03T11:23:00.000Z</time>
      </trkpt>
      <trkpt lat="45.09096" lon="5.61294">
        <ele>1735</ele>
        <time>2013-03-03T11:23:02.000Z</time>
      </trkpt>
      <trkpt lat="45.09093" lon="5.61284">
        <ele>1734</ele>
        <time>2013-03-03T11:23:04.000Z</time>
      </trkpt>
      <trkpt lat="45.0909" lon="5.61278">
        <ele>1733</ele>
        <time>2013-03-03T11:23:05.000Z</time>
      </trkpt>
      <trkpt lat="45.09089" lon="5.61272">
        <ele>1733</ele>
        <time>2013-03-03T11:23:06.000Z</time>
      </trkpt>
      <trkpt lat="45.09085" lon="5.61262">
        <ele>1731</ele>
        <time>2013-03-03T11:23:08.000Z</time>
      </trkpt>
      <trkpt lat="45.09085" lon="5.61255">
        <ele>1729</ele>
        <time>2013-03-03T11:23:10.000Z</time>
      </trkpt>
      <trkpt lat="45.0909" lon="5.61254">
        <ele>1730</ele>
        <time>2013-03-03T11:23:37.000Z</time>
      </trkpt>
      <trkpt lat="45.09098" lon="5.61252">
        <ele>1731</ele>
        <time>2013-03-03T11:23:40.000Z</time>
      </trkpt>
      <trkpt lat="45.09106" lon="5.61251">
        <ele>1732</ele>
        <time>2013-03-03T11:23:42.000Z</time>
      </trkpt>
      <trkpt lat="45.09115" lon="5.61247">
        <ele>1721</ele>
        <time>2013-03-03T11:23:44.000Z</time>
      </trkpt>
      <trkpt lat="45.09119" lon="5.61245">
        <ele>1720</ele>
        <time>2013-03-03T11:23:45.000Z</time>
      </trkpt>
      <trkpt lat="45.09125" lon="5.61242">
        <ele>1720</ele>
        <time>2013-03-03T11:23:47.000Z</time>
      </trkpt>
      <trkpt lat="45.09126" lon="5.61236">
        <ele>1720</ele>
        <time>2013-03-03T11:23:51.000Z</time>
      </trkpt>
      <trkpt lat="45.09132" lon="5.61226">
        <ele>1718</ele>
        <time>2013-03-03T11:23:53.000Z</time>
      </trkpt>
      <trkpt lat="45.09136" lon="5.61222">
        <ele>1718</ele>
        <time>2013-03-03T11:23:54.000Z</time>
      </trkpt>
      <trkpt lat="45.09142" lon="5.61215">
        <ele>1717</ele>
        <time>2013-03-03T11:23:55.000Z</time>
      </trkpt>
      <trkpt lat="45.09147" lon="5.61211">
        <ele>1716</ele>
        <time>2013-03-03T11:23:56.000Z</time>
      </trkpt>
      <trkpt lat="45.09151" lon="5.61206">
        <ele>1715</ele>
        <time>2013-03-03T11:24:28.000Z</time>
      </trkpt>
      <trkpt lat="45.09157" lon="5.61203">
        <ele>1715</ele>
        <time>2013-03-03T11:24:30.000Z</time>
      </trkpt>
      <trkpt lat="45.09161" lon="5.61197">
        <ele>1713</ele>
        <time>2013-03-03T11:24:34.000Z</time>
      </trkpt>
      <trkpt lat="45.09163" lon="5.61188">
        <ele>1711</ele>
        <time>2013-03-03T11:24:36.000Z</time>
      </trkpt>
      <trkpt lat="45.09169" lon="5.61184">
        <ele>1709</ele>
        <time>2013-03-03T11:24:38.000Z</time>
      </trkpt>
      <trkpt lat="45.09174" lon="5.61179">
        <ele>1708</ele>
        <time>2013-03-03T11:24:39.000Z</time>
      </trkpt>
      <trkpt lat="45.09178" lon="5.61173">
        <ele>1707</ele>
        <time>2013-03-03T11:24:40.000Z</time>
      </trkpt>
      <trkpt lat="45.09182" lon="5.61167">
        <ele>1708</ele>
        <time>2013-03-03T11:24:41.000Z</time>
      </trkpt>
      <trkpt lat="45.09185" lon="5.61161">
        <ele>1697</ele>
        <time>2013-03-03T11:24:42.000Z</time>
      </trkpt>
      <trkpt lat="45.09191" lon="5.61153">
        <ele>1696</ele>
        <time>2013-03-03T11:24:44.000Z</time>
      </trkpt>
      <trkpt lat="45.09194" lon="5.61148">
        <ele>1695</ele>
        <time>2013-03-03T11:24:45.000Z</time>
      </trkpt>
      <trkpt lat="45.09197" lon="5.61143">
        <ele>1695</ele>
        <time>2013-03-03T11:24:46.000Z</time>
      </trkpt>
      <trkpt lat="45.09199" lon="5.61136">
        <ele>1694</ele>
        <time>2013-03-03T11:24:47.000Z</time>
      </trkpt>
      <trkpt lat="45.09199" lon="5.61127">
        <ele>1693</ele>
        <time>2013-03-03T11:24:49.000Z</time>
      </trkpt>
      <trkpt lat="45.09198" lon="5.6112">
        <ele>1692</ele>
        <time>2013-03-03T11:25:03.000Z</time>
      </trkpt>
      <trkpt lat="45.092" lon="5.61112">
        <ele>1691</ele>
        <time>2013-03-03T11:25:05.000Z</time>
      </trkpt>
      <trkpt lat="45.09205" lon="5.61108">
        <ele>1690</ele>
        <time>2013-03-03T11:25:07.000Z</time>
      </trkpt>
      <trkpt lat="45.09211" lon="5.61107">
        <ele>1690</ele>
        <time>2013-03-03T11:25:10.000Z</time>
      </trkpt>
      <trkpt lat="45.09216" lon="5.61107">
        <ele>1690</ele>
        <time>2013-03-03T11:25:13.000Z</time>
      </trkpt>
      <trkpt lat="45.09214" lon="5.61101">
        <ele>1689</ele>
        <time>2013-03-03T11:25:26.000Z</time>
      </trkpt>
      <trkpt lat="45.0921" lon="5.61095">
        <ele>1689</ele>
        <time>2013-03-03T11:25:29.000Z</time>
      </trkpt>
      <trkpt lat="45.09207" lon="5.61089">
        <ele>1689</ele>
        <time>2013-03-03T11:25:31.000Z</time>
      </trkpt>
      <trkpt lat="45.09203" lon="5.61084">
        <ele>1688</ele>
        <time>2013-03-03T11:25:33.000Z</time>
      </trkpt>
      <trkpt lat="45.09198" lon="5.6108">
        <ele>1676</ele>
        <time>2013-03-03T11:25:35.000Z</time>
      </trkpt>
      <trkpt lat="45.09194" lon="5.61074">
        <ele>1676</ele>
        <time>2013-03-03T11:25:39.000Z</time>
      </trkpt>
      <trkpt lat="45.09194" lon="5.61066">
        <ele>1675</ele>
        <time>2013-03-03T11:26:18.000Z</time>
      </trkpt>
      <trkpt lat="45.09187" lon="5.61064">
        <ele>1676</ele>
        <time>2013-03-03T11:26:22.000Z</time>
      </trkpt>
      <trkpt lat="45.09185" lon="5.61057">
        <ele>1675</ele>
        <time>2013-03-03T11:26:25.000Z</time>
      </trkpt>
      <trkpt lat="45.09183" lon="5.6105">
        <ele>1674</ele>
        <time>2013-03-03T11:26:27.000Z</time>
      </trkpt>
      <trkpt lat="45.0918" lon="5.61043">
        <ele>1672</ele>
        <time>2013-03-03T11:26:29.000Z</time>
      </trkpt>
      <trkpt lat="45.09177" lon="5.61036">
        <ele>1671</ele>
        <time>2013-03-03T11:26:31.000Z</time>
      </trkpt>
      <trkpt lat="45.0918" lon="5.6103">
        <ele>1670</ele>
        <time>2013-03-03T11:26:33.000Z</time>
      </trkpt>
      <trkpt lat="45.09184" lon="5.61022">
        <ele>1669</ele>
        <time>2013-03-03T11:26:35.000Z</time>
      </trkpt>
      <trkpt lat="45.09183" lon="5.61016">
        <ele>1668</ele>
        <time>2013-03-03T11:26:36.000Z</time>
      </trkpt>
      <trkpt lat="45.09188" lon="5.61006">
        <ele>1668</ele>
        <time>2013-03-03T11:26:38.000Z</time>
      </trkpt>
      <trkpt lat="45.09189" lon="5.60995">
        <ele>1658</ele>
        <time>2013-03-03T11:26:40.000Z</time>
      </trkpt>
      <trkpt lat="45.09193" lon="5.60992">
        <ele>1657</ele>
        <time>2013-03-03T11:26:42.000Z</time>
      </trkpt>
      <trkpt lat="45.09196" lon="5.60982">
        <ele>1656</ele>
        <time>2013-03-03T11:26:44.000Z</time>
      </trkpt>
      <trkpt lat="45.09198" lon="5.60975">
        <ele>1655</ele>
        <time>2013-03-03T11:26:45.000Z</time>
      </trkpt>
      <trkpt lat="45.09201" lon="5.60969">
        <ele>1654</ele>
        <time>2013-03-03T11:26:46.000Z</time>
      </trkpt>
      <trkpt lat="45.09202" lon="5.60962">
        <ele>1654</ele>
        <time>2013-03-03T11:26:47.000Z</time>
      </trkpt>
      <trkpt lat="45.09202" lon="5.60951">
        <ele>1653</ele>
        <time>2013-03-03T11:26:49.000Z</time>
      </trkpt>
      <trkpt lat="45.09206" lon="5.60943">
        <ele>1652</ele>
        <time>2013-03-03T11:26:51.000Z</time>
      </trkpt>
      <trkpt lat="45.09214" lon="5.60936">
        <ele>1651</ele>
        <time>2013-03-03T11:26:53.000Z</time>
      </trkpt>
      <trkpt lat="45.09218" lon="5.60929">
        <ele>1650</ele>
        <time>2013-03-03T11:26:54.000Z</time>
      </trkpt>
      <trkpt lat="45.09221" lon="5.60921">
        <ele>1650</ele>
        <time>2013-03-03T11:26:55.000Z</time>
      </trkpt>
      <trkpt lat="45.09226" lon="5.60914">
        <ele>1643</ele>
        <time>2013-03-03T11:26:56.000Z</time>
      </trkpt>
      <trkpt lat="45.09232" lon="5.60908">
        <ele>1643</ele>
        <time>2013-03-03T11:26:57.000Z</time>
      </trkpt>
      <trkpt lat="45.09239" lon="5.60901">
        <ele>1643</ele>
        <time>2013-03-03T11:26:58.000Z</time>
      </trkpt>
      <trkpt lat="45.09246" lon="5.60893">
        <ele>1643</ele>
        <time>2013-03-03T11:26:59.000Z</time>
      </trkpt>
      <trkpt lat="45.09254" lon="5.60886">
        <ele>1640</ele>
        <time>2013-03-03T11:27:00.000Z</time>
      </trkpt>
      <trkpt lat="45.09261" lon="5.6088">
        <ele>1639</ele>
        <time>2013-03-03T11:27:01.000Z</time>
      </trkpt>
      <trkpt lat="45.09268" lon="5.60876">
        <ele>1638</ele>
        <time>2013-03-03T11:27:02.000Z</time>
      </trkpt>
      <trkpt lat="45.09273" lon="5.60872">
        <ele>1638</ele>
        <time>2013-03-03T11:27:03.000Z</time>
      </trkpt>
      <trkpt lat="45.09279" lon="5.60869">
        <ele>1637</ele>
        <time>2013-03-03T11:27:04.000Z</time>
      </trkpt>
      <trkpt lat="45.09284" lon="5.60866">
        <ele>1637</ele>
        <time>2013-03-03T11:27:05.000Z</time>
      </trkpt>
      <trkpt lat="45.09288" lon="5.60864">
        <ele>1637</ele>
        <time>2013-03-03T11:27:06.000Z</time>
      </trkpt>
      <trkpt lat="45.09293" lon="5.60863">
        <ele>1636</ele>
        <time>2013-03-03T11:27:08.000Z</time>
      </trkpt>
      <trkpt lat="45.09298" lon="5.60862">
        <ele>1636</ele>
        <time>2013-03-03T11:27:11.000Z</time>
      </trkpt>
      <trkpt lat="45.09302" lon="5.60857">
        <ele>1635</ele>
        <time>2013-03-03T11:27:14.000Z</time>
      </trkpt>
      <trkpt lat="45.09306" lon="5.60853">
        <ele>1635</ele>
        <time>2013-03-03T11:27:16.000Z</time>
      </trkpt>
      <trkpt lat="45.09312" lon="5.60849">
        <ele>1634</ele>
        <time>2013-03-03T11:27:18.000Z</time>
      </trkpt>
      <trkpt lat="45.09316" lon="5.60847">
        <ele>1633</ele>
        <time>2013-03-03T11:27:20.000Z</time>
      </trkpt>
      <trkpt lat="45.09322" lon="5.60847">
        <ele>1632</ele>
        <time>2013-03-03T11:27:55.000Z</time>
      </trkpt>
      <trkpt lat="45.09328" lon="5.60847">
        <ele>1632</ele>
        <time>2013-03-03T11:27:59.000Z</time>
      </trkpt>
      <trkpt lat="45.09333" lon="5.60847">
        <ele>1631</ele>
        <time>2013-03-03T11:28:01.000Z</time>
      </trkpt>
      <trkpt lat="45.09338" lon="5.60848">
        <ele>1628</ele>
        <time>2013-03-03T11:28:48.000Z</time>
      </trkpt>
      <trkpt lat="45.09345" lon="5.60848">
        <ele>1628</ele>
        <time>2013-03-03T11:28:51.000Z</time>
      </trkpt>
      <trkpt lat="45.0935" lon="5.60848">
        <ele>1627</ele>
        <time>2013-03-03T11:28:53.000Z</time>
      </trkpt>
      <trkpt lat="45.09356" lon="5.60846">
        <ele>1627</ele>
        <time>2013-03-03T11:28:56.000Z</time>
      </trkpt>
      <trkpt lat="45.0936" lon="5.60845">
        <ele>1627</ele>
        <time>2013-03-03T11:28:59.000Z</time>
      </trkpt>
      <trkpt lat="45.09366" lon="5.60844">
        <ele>1627</ele>
        <time>2013-03-03T11:29:02.000Z</time>
      </trkpt>
      <trkpt lat="45.09373" lon="5.60844">
        <ele>1626</ele>
        <time>2013-03-03T11:29:04.000Z</time>
      </trkpt>
      <trkpt lat="45.09382" lon="5.60842">
        <ele>1625</ele>
        <time>2013-03-03T11:29:06.000Z</time>
      </trkpt>
      <trkpt lat="45.0939" lon="5.60841">
        <ele>1624</ele>
        <time>2013-03-03T11:29:08.000Z</time>
      </trkpt>
      <trkpt lat="45.09398" lon="5.60841">
        <ele>1623</ele>
        <time>2013-03-03T11:29:10.000Z</time>
      </trkpt>
      <trkpt lat="45.09403" lon="5.60841">
        <ele>1622</ele>
        <time>2013-03-03T11:29:46.000Z</time>
      </trkpt>
      <trkpt lat="45.09409" lon="5.60838">
        <ele>1620</ele>
        <time>2013-03-03T11:29:49.000Z</time>
      </trkpt>
      <trkpt lat="45.09414" lon="5.60835">
        <ele>1618</ele>
        <time>2013-03-03T11:29:52.000Z</time>
      </trkpt>
      <trkpt lat="45.09412" lon="5.60828">
        <ele>1614</ele>
        <time>2013-03-03T11:29:54.000Z</time>
      </trkpt>
      <trkpt lat="45.09408" lon="5.60825">
        <ele>1612</ele>
        <time>2013-03-03T11:29:57.000Z</time>
      </trkpt>
      <trkpt lat="45.09406" lon="5.60818">
        <ele>1609</ele>
        <time>2013-03-03T11:29:59.000Z</time>
      </trkpt>
      <trkpt lat="45.09404" lon="5.60811">
        <ele>1607</ele>
        <time>2013-03-03T11:30:03.000Z</time>
      </trkpt>
      <trkpt lat="45.094" lon="5.60808">
        <ele>1606</ele>
        <time>2013-03-03T11:30:07.000Z</time>
      </trkpt>
      <trkpt lat="45.09404" lon="5.60802">
        <ele>1605</ele>
        <time>2013-03-03T11:30:10.000Z</time>
      </trkpt>
      <trkpt lat="45.09401" lon="5.60796">
        <ele>1603</ele>
        <time>2013-03-03T11:30:12.000Z</time>
      </trkpt>
      <trkpt lat="45.09396" lon="5.60794">
        <ele>1603</ele>
        <time>2013-03-03T11:30:14.000Z</time>
      </trkpt>
      <trkpt lat="45.09394" lon="5.60788">
        <ele>1601</ele>
        <time>2013-03-03T11:30:19.000Z</time>
      </trkpt>
      <trkpt lat="45.09391" lon="5.6078">
        <ele>1599</ele>
        <time>2013-03-03T11:30:26.000Z</time>
      </trkpt>
      <trkpt lat="45.09387" lon="5.60776">
        <ele>1599</ele>
        <time>2013-03-03T11:30:29.000Z</time>
      </trkpt>
      <trkpt lat="45.09383" lon="5.60772">
        <ele>1598</ele>
        <time>2013-03-03T11:30:44.000Z</time>
      </trkpt>
      <trkpt lat="45.09383" lon="5.60765">
        <ele>1597</ele>
        <time>2013-03-03T11:30:51.000Z</time>
      </trkpt>
      <trkpt lat="45.09383" lon="5.60765">
        <ele>1597</ele>
        <time>2013-03-03T11:30:51.000Z</time>
      </trkpt>
      <trkpt lat="45.09383" lon="5.60765">
        <ele>1597</ele>
        <time>2013-03-03T11:31:41.000Z</time>
      </trkpt>
      <trkpt lat="45.09383" lon="5.60758">
        <ele>1596</ele>
        <time>2013-03-03T11:33:23.000Z</time>
      </trkpt>
      <trkpt lat="45.09387" lon="5.6075">
        <ele>1571</ele>
        <time>2013-03-03T11:33:26.000Z</time>
      </trkpt>
      <trkpt lat="45.09392" lon="5.60745">
        <ele>1571</ele>
        <time>2013-03-03T11:33:31.000Z</time>
      </trkpt>
      <trkpt lat="45.09397" lon="5.60741">
        <ele>1572</ele>
        <time>2013-03-03T11:33:36.000Z</time>
      </trkpt>
      <trkpt lat="45.09401" lon="5.60737">
        <ele>1572</ele>
        <time>2013-03-03T11:33:40.000Z</time>
      </trkpt>
      <trkpt lat="45.09401" lon="5.60737">
        <ele>1572</ele>
        <time>2013-03-03T11:33:40.000Z</time>
      </trkpt>
      <trkpt lat="45.09401" lon="5.60737">
        <ele>1572</ele>
        <time>2013-03-03T11:33:41.000Z</time>
      </trkpt>
      <trkpt lat="45.09407" lon="5.60736">
        <ele>1572</ele>
        <time>2013-03-03T11:33:46.000Z</time>
      </trkpt>
      <trkpt lat="45.09405" lon="5.60728">
        <ele>1569</ele>
        <time>2013-03-03T11:33:51.000Z</time>
      </trkpt>
      <trkpt lat="45.0941" lon="5.60723">
        <ele>1568</ele>
        <time>2013-03-03T11:33:53.000Z</time>
      </trkpt>
      <trkpt lat="45.09415" lon="5.6072">
        <ele>1567</ele>
        <time>2013-03-03T11:33:56.000Z</time>
      </trkpt>
      <trkpt lat="45.09417" lon="5.60713">
        <ele>1562</ele>
        <time>2013-03-03T11:33:59.000Z</time>
      </trkpt>
      <trkpt lat="45.09417" lon="5.60713">
        <ele>1562</ele>
        <time>2013-03-03T11:33:59.000Z</time>
      </trkpt>
      <trkpt lat="45.09417" lon="5.60713">
        <ele>1562</ele>
        <time>2013-03-03T11:34:10.000Z</time>
      </trkpt>
      <trkpt lat="45.09415" lon="5.60706">
        <ele>1562</ele>
        <time>2013-03-03T11:34:19.000Z</time>
      </trkpt>
      <trkpt lat="45.09419" lon="5.60701">
        <ele>1557</ele>
        <time>2013-03-03T11:34:22.000Z</time>
      </trkpt>
      <trkpt lat="45.09415" lon="5.60693">
        <ele>1557</ele>
        <time>2013-03-03T11:34:25.000Z</time>
      </trkpt>
      <trkpt lat="45.0942" lon="5.60691">
        <ele>1554</ele>
        <time>2013-03-03T11:34:27.000Z</time>
      </trkpt>
      <trkpt lat="45.09422" lon="5.60685">
        <ele>1551</ele>
        <time>2013-03-03T11:34:34.000Z</time>
      </trkpt>
      <trkpt lat="45.09419" lon="5.60679">
        <ele>1548</ele>
        <time>2013-03-03T11:34:39.000Z</time>
      </trkpt>
      <trkpt lat="45.09418" lon="5.60672">
        <ele>1545</ele>
        <time>2013-03-03T11:34:44.000Z</time>
      </trkpt>
      <trkpt lat="45.09412" lon="5.60665">
        <ele>1539</ele>
        <time>2013-03-03T11:34:48.000Z</time>
      </trkpt>
      <trkpt lat="45.09407" lon="5.60664">
        <ele>1537</ele>
        <time>2013-03-03T11:34:53.000Z</time>
      </trkpt>
      <trkpt lat="45.09403" lon="5.60659">
        <ele>1535</ele>
        <time>2013-03-03T11:34:57.000Z</time>
      </trkpt>
      <trkpt lat="45.09407" lon="5.60652">
        <ele>1534</ele>
        <time>2013-03-03T11:35:01.000Z</time>
      </trkpt>
      <trkpt lat="45.09412" lon="5.60646">
        <ele>1533</ele>
        <time>2013-03-03T11:35:05.000Z</time>
      </trkpt>
      <trkpt lat="45.09409" lon="5.60638">
        <ele>1531</ele>
        <time>2013-03-03T11:35:12.000Z</time>
      </trkpt>
      <trkpt lat="45.09411" lon="5.60632">
        <ele>1530</ele>
        <time>2013-03-03T11:35:14.000Z</time>
      </trkpt>
      <trkpt lat="45.09416" lon="5.60629">
        <ele>1529</ele>
        <time>2013-03-03T11:35:16.000Z</time>
      </trkpt>
      <trkpt lat="45.09421" lon="5.60624">
        <ele>1524</ele>
        <time>2013-03-03T11:35:32.000Z</time>
      </trkpt>
      <trkpt lat="45.09427" lon="5.60622">
        <ele>1524</ele>
        <time>2013-03-03T11:35:34.000Z</time>
      </trkpt>
      <trkpt lat="45.09427" lon="5.60622">
        <ele>1524</ele>
        <time>2013-03-03T11:35:34.000Z</time>
      </trkpt>
      <trkpt lat="45.09427" lon="5.60622">
        <ele>1524</ele>
        <time>2013-03-03T11:35:35.000Z</time>
      </trkpt>
      <trkpt lat="45.0943" lon="5.60615">
        <ele>1522</ele>
        <time>2013-03-03T11:35:38.000Z</time>
      </trkpt>
      <trkpt lat="45.09426" lon="5.60608">
        <ele>1520</ele>
        <time>2013-03-03T11:35:44.000Z</time>
      </trkpt>
      <trkpt lat="45.09427" lon="5.606">
        <ele>1519</ele>
        <time>2013-03-03T11:35:46.000Z</time>
      </trkpt>
      <trkpt lat="45.09428" lon="5.60594">
        <ele>1517</ele>
        <time>2013-03-03T11:35:49.000Z</time>
      </trkpt>
      <trkpt lat="45.09426" lon="5.60588">
        <ele>1516</ele>
        <time>2013-03-03T11:35:54.000Z</time>
      </trkpt>
      <trkpt lat="45.09424" lon="5.60581">
        <ele>1508</ele>
        <time>2013-03-03T11:36:12.000Z</time>
      </trkpt>
      <trkpt lat="45.09419" lon="5.60575">
        <ele>1508</ele>
        <time>2013-03-03T11:36:15.000Z</time>
      </trkpt>
      <trkpt lat="45.0942" lon="5.60568">
        <ele>1505</ele>
        <time>2013-03-03T11:36:18.000Z</time>
      </trkpt>
      <trkpt lat="45.0942" lon="5.60561">
        <ele>1503</ele>
        <time>2013-03-03T11:36:26.000Z</time>
      </trkpt>
      <trkpt lat="45.09425" lon="5.6056">
        <ele>1503</ele>
        <time>2013-03-03T11:36:30.000Z</time>
      </trkpt>
      <trkpt lat="45.09425" lon="5.60554">
        <ele>1502</ele>
        <time>2013-03-03T11:36:42.000Z</time>
      </trkpt>
      <trkpt lat="45.09426" lon="5.60547">
        <ele>1500</ele>
        <time>2013-03-03T11:36:46.000Z</time>
      </trkpt>
      <trkpt lat="45.09428" lon="5.60541">
        <ele>1499</ele>
        <time>2013-03-03T11:36:53.000Z</time>
      </trkpt>
      <trkpt lat="45.09433" lon="5.60539">
        <ele>1499</ele>
        <time>2013-03-03T11:37:23.000Z</time>
      </trkpt>
      <trkpt lat="45.09438" lon="5.60537">
        <ele>1498</ele>
        <time>2013-03-03T11:37:27.000Z</time>
      </trkpt>
      <trkpt lat="45.09442" lon="5.60531">
        <ele>1497</ele>
        <time>2013-03-03T11:37:36.000Z</time>
      </trkpt>
      <trkpt lat="45.09446" lon="5.60525">
        <ele>1496</ele>
        <time>2013-03-03T11:37:41.000Z</time>
      </trkpt>
      <trkpt lat="45.09448" lon="5.60517">
        <ele>1495</ele>
        <time>2013-03-03T11:37:43.000Z</time>
      </trkpt>
      <trkpt lat="45.09448" lon="5.60517">
        <ele>1495</ele>
        <time>2013-03-03T11:37:43.000Z</time>
      </trkpt>
      <trkpt lat="45.09448" lon="5.60517">
        <ele>1495</ele>
        <time>2013-03-03T11:37:45.000Z</time>
      </trkpt>
      <trkpt lat="45.09452" lon="5.60509">
        <ele>1495</ele>
        <time>2013-03-03T11:37:48.000Z</time>
      </trkpt>
      <trkpt lat="45.09453" lon="5.60502">
        <ele>1494</ele>
        <time>2013-03-03T11:37:50.000Z</time>
      </trkpt>
      <trkpt lat="45.09456" lon="5.60496">
        <ele>1481</ele>
        <time>2013-03-03T11:37:52.000Z</time>
      </trkpt>
      <trkpt lat="45.09461" lon="5.60493">
        <ele>1481</ele>
        <time>2013-03-03T11:38:10.000Z</time>
      </trkpt>
      <trkpt lat="45.09459" lon="5.60486">
        <ele>1480</ele>
        <time>2013-03-03T11:38:15.000Z</time>
      </trkpt>
      <trkpt lat="45.09458" lon="5.60479">
        <ele>1480</ele>
        <time>2013-03-03T11:38:24.000Z</time>
      </trkpt>
      <trkpt lat="45.09462" lon="5.60473">
        <ele>1479</ele>
        <time>2013-03-03T11:39:36.000Z</time>
      </trkpt>
      <trkpt lat="45.09461" lon="5.60466">
        <ele>1478</ele>
        <time>2013-03-03T11:39:39.000Z</time>
      </trkpt>
      <trkpt lat="45.09458" lon="5.6046">
        <ele>1477</ele>
        <time>2013-03-03T11:39:41.000Z</time>
      </trkpt>
      <trkpt lat="45.09457" lon="5.60452">
        <ele>1477</ele>
        <time>2013-03-03T11:39:44.000Z</time>
      </trkpt>
      <trkpt lat="45.09455" lon="5.60444">
        <ele>1476</ele>
        <time>2013-03-03T11:39:46.000Z</time>
      </trkpt>
      <trkpt lat="45.09451" lon="5.60436">
        <ele>1475</ele>
        <time>2013-03-03T11:39:49.000Z</time>
      </trkpt>
      <trkpt lat="45.09453" lon="5.60429">
        <ele>1475</ele>
        <time>2013-03-03T11:39:53.000Z</time>
      </trkpt>
      <trkpt lat="45.09458" lon="5.60423">
        <ele>1474</ele>
        <time>2013-03-03T11:39:55.000Z</time>
      </trkpt>
      <trkpt lat="45.09463" lon="5.60422">
        <ele>1473</ele>
        <time>2013-03-03T11:40:12.000Z</time>
      </trkpt>
      <trkpt lat="45.09469" lon="5.60425">
        <ele>1472</ele>
        <time>2013-03-03T11:40:15.000Z</time>
      </trkpt>
      <trkpt lat="45.09474" lon="5.60427">
        <ele>1472</ele>
        <time>2013-03-03T11:40:17.000Z</time>
      </trkpt>
      <trkpt lat="45.0948" lon="5.60432">
        <ele>1471</ele>
        <time>2013-03-03T11:40:20.000Z</time>
      </trkpt>
      <trkpt lat="45.09485" lon="5.60433">
        <ele>1471</ele>
        <time>2013-03-03T11:40:22.000Z</time>
      </trkpt>
      <trkpt lat="45.09492" lon="5.60433">
        <ele>1470</ele>
        <time>2013-03-03T11:40:24.000Z</time>
      </trkpt>
      <trkpt lat="45.09499" lon="5.60428">
        <ele>1467</ele>
        <time>2013-03-03T11:40:26.000Z</time>
      </trkpt>
      <trkpt lat="45.09501" lon="5.60418">
        <ele>1461</ele>
        <time>2013-03-03T11:40:28.000Z</time>
      </trkpt>
      <trkpt lat="45.095" lon="5.60407">
        <ele>1460</ele>
        <time>2013-03-03T11:40:30.000Z</time>
      </trkpt>
      <trkpt lat="45.09499" lon="5.60401">
        <ele>1460</ele>
        <time>2013-03-03T11:40:31.000Z</time>
      </trkpt>
      <trkpt lat="45.09492" lon="5.60393">
        <ele>1459</ele>
        <time>2013-03-03T11:40:33.000Z</time>
      </trkpt>
      <trkpt lat="45.09486" lon="5.60385">
        <ele>1459</ele>
        <time>2013-03-03T11:40:35.000Z</time>
      </trkpt>
      <trkpt lat="45.0948" lon="5.60383">
        <ele>1459</ele>
        <time>2013-03-03T11:40:36.000Z</time>
      </trkpt>
      <trkpt lat="45.09474" lon="5.60377">
        <ele>1459</ele>
        <time>2013-03-03T11:40:38.000Z</time>
      </trkpt>
      <trkpt lat="45.09468" lon="5.60369">
        <ele>1458</ele>
        <time>2013-03-03T11:40:40.000Z</time>
      </trkpt>
      <trkpt lat="45.09464" lon="5.60365">
        <ele>1458</ele>
        <time>2013-03-03T11:40:41.000Z</time>
      </trkpt>
      <trkpt lat="45.09461" lon="5.60361">
        <ele>1458</ele>
        <time>2013-03-03T11:40:42.000Z</time>
      </trkpt>
      <trkpt lat="45.09455" lon="5.60352">
        <ele>1458</ele>
        <time>2013-03-03T11:40:44.000Z</time>
      </trkpt>
      <trkpt lat="45.09449" lon="5.60342">
        <ele>1458</ele>
        <time>2013-03-03T11:40:46.000Z</time>
      </trkpt>
      <trkpt lat="45.09446" lon="5.6033">
        <ele>1453</ele>
        <time>2013-03-03T11:40:48.000Z</time>
      </trkpt>
      <trkpt lat="45.09444" lon="5.60324">
        <ele>1453</ele>
        <time>2013-03-03T11:40:49.000Z</time>
      </trkpt>
      <trkpt lat="45.09444" lon="5.60317">
        <ele>1453</ele>
        <time>2013-03-03T11:40:50.000Z</time>
      </trkpt>
      <trkpt lat="45.09433" lon="5.60307">
        <ele>1454</ele>
        <time>2013-03-03T11:40:52.000Z</time>
      </trkpt>
      <trkpt lat="45.09432" lon="5.603">
        <ele>1453</ele>
        <time>2013-03-03T11:40:54.000Z</time>
      </trkpt>
      <trkpt lat="45.09437" lon="5.60296">
        <ele>1453</ele>
        <time>2013-03-03T11:40:56.000Z</time>
      </trkpt>
      <trkpt lat="45.09444" lon="5.60289">
        <ele>1452</ele>
        <time>2013-03-03T11:40:58.000Z</time>
      </trkpt>
      <trkpt lat="45.09448" lon="5.60291">
        <ele>1452</ele>
        <time>2013-03-03T11:40:59.000Z</time>
      </trkpt>
      <trkpt lat="45.09456" lon="5.60289">
        <ele>1451</ele>
        <time>2013-03-03T11:41:01.000Z</time>
      </trkpt>
      <trkpt lat="45.09459" lon="5.60284">
        <ele>1451</ele>
        <time>2013-03-03T11:41:04.000Z</time>
      </trkpt>
      <trkpt lat="45.09464" lon="5.60283">
        <ele>1450</ele>
        <time>2013-03-03T11:41:20.000Z</time>
      </trkpt>
      <trkpt lat="45.09467" lon="5.60278">
        <ele>1450</ele>
        <time>2013-03-03T11:41:38.000Z</time>
      </trkpt>
      <trkpt lat="45.09469" lon="5.6027">
        <ele>1450</ele>
        <time>2013-03-03T11:45:44.000Z</time>
      </trkpt>
      <trkpt lat="45.09469" lon="5.60264">
        <ele>1450</ele>
        <time>2013-03-03T11:45:49.000Z</time>
      </trkpt>
      <trkpt lat="45.09467" lon="5.60257">
        <ele>1450</ele>
        <time>2013-03-03T11:45:57.000Z</time>
      </trkpt>
      <trkpt lat="45.09468" lon="5.6025">
        <ele>1448</ele>
        <time>2013-03-03T11:46:02.000Z</time>
      </trkpt>
      <trkpt lat="45.09466" lon="5.60244">
        <ele>1451</ele>
        <time>2013-03-03T11:46:07.000Z</time>
      </trkpt>
      <trkpt lat="45.09466" lon="5.60237">
        <ele>1451</ele>
        <time>2013-03-03T11:47:16.000Z</time>
      </trkpt>
      <trkpt lat="45.09463" lon="5.60231">
        <ele>1451</ele>
        <time>2013-03-03T11:47:20.000Z</time>
      </trkpt>
      <trkpt lat="45.09462" lon="5.60224">
        <ele>1452</ele>
        <time>2013-03-03T11:47:27.000Z</time>
      </trkpt>
      <trkpt lat="45.09461" lon="5.60216">
        <ele>1452</ele>
        <time>2013-03-03T11:47:32.000Z</time>
      </trkpt>
      <trkpt lat="45.09462" lon="5.60209">
        <ele>1452</ele>
        <time>2013-03-03T11:47:38.000Z</time>
      </trkpt>
      <trkpt lat="45.09462" lon="5.60202">
        <ele>1453</ele>
        <time>2013-03-03T11:47:43.000Z</time>
      </trkpt>
      <trkpt lat="45.09462" lon="5.60195">
        <ele>1453</ele>
        <time>2013-03-03T11:47:49.000Z</time>
      </trkpt>
      <trkpt lat="45.09462" lon="5.60188">
        <ele>1453</ele>
        <time>2013-03-03T11:47:54.000Z</time>
      </trkpt>
      <trkpt lat="45.09462" lon="5.60182">
        <ele>1453</ele>
        <time>2013-03-03T11:47:59.000Z</time>
      </trkpt>
      <trkpt lat="45.09463" lon="5.60175">
        <ele>1454</ele>
        <time>2013-03-03T11:48:06.000Z</time>
      </trkpt>
      <trkpt lat="45.09466" lon="5.60171">
        <ele>1454</ele>
        <time>2013-03-03T11:48:15.000Z</time>
      </trkpt>
      <trkpt lat="45.09466" lon="5.60171">
        <ele>1454</ele>
        <time>2013-03-03T11:48:15.000Z</time>
      </trkpt>
      <trkpt lat="45.09466" lon="5.60171">
        <ele>1454</ele>
        <time>2013-03-03T11:48:19.000Z</time>
      </trkpt>
      <trkpt lat="45.0947" lon="5.60166">
        <ele>1458</ele>
        <time>2013-03-03T11:55:38.000Z</time>
      </trkpt>
      <trkpt lat="45.09473" lon="5.60161">
        <ele>1458</ele>
        <time>2013-03-03T11:55:48.000Z</time>
      </trkpt>
      <trkpt lat="45.09477" lon="5.60159">
        <ele>1458</ele>
        <time>2013-03-03T11:55:53.000Z</time>
      </trkpt>
      <trkpt lat="45.09482" lon="5.6016">
        <ele>1458</ele>
        <time>2013-03-03T11:55:57.000Z</time>
      </trkpt>
      <trkpt lat="45.09487" lon="5.6016">
        <ele>1458</ele>
        <time>2013-03-03T11:56:01.000Z</time>
      </trkpt>
      <trkpt lat="45.09492" lon="5.6016">
        <ele>1458</ele>
        <time>2013-03-03T11:56:05.000Z</time>
      </trkpt>
      <trkpt lat="45.09497" lon="5.6016">
        <ele>1458</ele>
        <time>2013-03-03T11:56:09.000Z</time>
      </trkpt>
      <trkpt lat="45.09501" lon="5.6016">
        <ele>1458</ele>
        <time>2013-03-03T11:56:13.000Z</time>
      </trkpt>
      <trkpt lat="45.09507" lon="5.6016">
        <ele>1458</ele>
        <time>2013-03-03T11:56:17.000Z</time>
      </trkpt>
      <trkpt lat="45.09512" lon="5.6016">
        <ele>1458</ele>
        <time>2013-03-03T11:56:21.000Z</time>
      </trkpt>
      <trkpt lat="45.09516" lon="5.60158">
        <ele>1459</ele>
        <time>2013-03-03T11:56:25.000Z</time>
      </trkpt>
      <trkpt lat="45.09521" lon="5.60156">
        <ele>1459</ele>
        <time>2013-03-03T11:56:30.000Z</time>
      </trkpt>
      <trkpt lat="45.09526" lon="5.60155">
        <ele>1459</ele>
        <time>2013-03-03T11:56:35.000Z</time>
      </trkpt>
      <trkpt lat="45.09531" lon="5.60154">
        <ele>1459</ele>
        <time>2013-03-03T11:56:40.000Z</time>
      </trkpt>
      <trkpt lat="45.09535" lon="5.60151">
        <ele>1460</ele>
        <time>2013-03-03T11:56:45.000Z</time>
      </trkpt>
      <trkpt lat="45.0954" lon="5.6015">
        <ele>1460</ele>
        <time>2013-03-03T11:56:51.000Z</time>
      </trkpt>
      <trkpt lat="45.09545" lon="5.60149">
        <ele>1460</ele>
        <time>2013-03-03T11:56:57.000Z</time>
      </trkpt>
      <trkpt lat="45.0955" lon="5.60148">
        <ele>1460</ele>
        <time>2013-03-03T11:57:02.000Z</time>
      </trkpt>
      <trkpt lat="45.09556" lon="5.60146">
        <ele>1460</ele>
        <time>2013-03-03T11:57:07.000Z</time>
      </trkpt>
      <trkpt lat="45.09561" lon="5.60145">
        <ele>1459</ele>
        <time>2013-03-03T11:57:12.000Z</time>
      </trkpt>
      <trkpt lat="45.09567" lon="5.60144">
        <ele>1459</ele>
        <time>2013-03-03T11:57:18.000Z</time>
      </trkpt>
      <trkpt lat="45.09572" lon="5.60143">
        <ele>1459</ele>
        <time>2013-03-03T11:57:23.000Z</time>
      </trkpt>
      <trkpt lat="45.09578" lon="5.60142">
        <ele>1459</ele>
        <time>2013-03-03T11:57:28.000Z</time>
      </trkpt>
      <trkpt lat="45.09582" lon="5.60142">
        <ele>1459</ele>
        <time>2013-03-03T11:57:33.000Z</time>
      </trkpt>
      <trkpt lat="45.09588" lon="5.60141">
        <ele>1459</ele>
        <time>2013-03-03T11:57:38.000Z</time>
      </trkpt>
      <trkpt lat="45.09593" lon="5.60139">
        <ele>1459</ele>
        <time>2013-03-03T11:57:45.000Z</time>
      </trkpt>
      <trkpt lat="45.09597" lon="5.60138">
        <ele>1459</ele>
        <time>2013-03-03T11:57:49.000Z</time>
      </trkpt>
      <trkpt lat="45.09603" lon="5.60137">
        <ele>1459</ele>
        <time>2013-03-03T11:57:54.000Z</time>
      </trkpt>
      <trkpt lat="45.09608" lon="5.60135">
        <ele>1459</ele>
        <time>2013-03-03T11:57:58.000Z</time>
      </trkpt>
      <trkpt lat="45.09612" lon="5.60134">
        <ele>1459</ele>
        <time>2013-03-03T11:58:02.000Z</time>
      </trkpt>
      <trkpt lat="45.09617" lon="5.60132">
        <ele>1459</ele>
        <time>2013-03-03T11:58:08.000Z</time>
      </trkpt>
      <trkpt lat="45.09623" lon="5.60132">
        <ele>1459</ele>
        <time>2013-03-03T11:58:14.000Z</time>
      </trkpt>
      <trkpt lat="45.09628" lon="5.60135">
        <ele>1459</ele>
        <time>2013-03-03T11:58:19.000Z</time>
      </trkpt>
      <trkpt lat="45.09631" lon="5.6013">
        <ele>1459</ele>
        <time>2013-03-03T11:58:23.000Z</time>
      </trkpt>
      <trkpt lat="45.09636" lon="5.60128">
        <ele>1459</ele>
        <time>2013-03-03T11:58:28.000Z</time>
      </trkpt>
      <trkpt lat="45.09639" lon="5.60125">
        <ele>1460</ele>
        <time>2013-03-03T11:58:32.000Z</time>
      </trkpt>
      <trkpt lat="45.09644" lon="5.60123">
        <ele>1460</ele>
        <time>2013-03-03T11:58:39.000Z</time>
      </trkpt>
      <trkpt lat="45.09649" lon="5.60122">
        <ele>1460</ele>
        <time>2013-03-03T11:58:44.000Z</time>
      </trkpt>
      <trkpt lat="45.09654" lon="5.6012">
        <ele>1460</ele>
        <time>2013-03-03T11:58:51.000Z</time>
      </trkpt>
      <trkpt lat="45.09659" lon="5.60119">
        <ele>1460</ele>
        <time>2013-03-03T11:58:57.000Z</time>
      </trkpt>
      <trkpt lat="45.09664" lon="5.60118">
        <ele>1460</ele>
        <time>2013-03-03T11:59:03.000Z</time>
      </trkpt>
      <trkpt lat="45.09668" lon="5.60116">
        <ele>1459</ele>
        <time>2013-03-03T11:59:09.000Z</time>
      </trkpt>
      <trkpt lat="45.09672" lon="5.60113">
        <ele>1459</ele>
        <time>2013-03-03T11:59:15.000Z</time>
      </trkpt>
      <trkpt lat="45.09677" lon="5.60111">
        <ele>1459</ele>
        <time>2013-03-03T11:59:20.000Z</time>
      </trkpt>
      <trkpt lat="45.09681" lon="5.60109">
        <ele>1459</ele>
        <time>2013-03-03T11:59:26.000Z</time>
      </trkpt>
      <trkpt lat="45.09685" lon="5.60105">
        <ele>1459</ele>
        <time>2013-03-03T11:59:33.000Z</time>
      </trkpt>
      <trkpt lat="45.0969" lon="5.60103">
        <ele>1459</ele>
        <time>2013-03-03T11:59:38.000Z</time>
      </trkpt>
      <trkpt lat="45.09694" lon="5.601">
        <ele>1459</ele>
        <time>2013-03-03T11:59:44.000Z</time>
      </trkpt>
      <trkpt lat="45.09698" lon="5.60097">
        <ele>1459</ele>
        <time>2013-03-03T11:59:51.000Z</time>
      </trkpt>
      <trkpt lat="45.09703" lon="5.60093">
        <ele>1460</ele>
        <time>2013-03-03T11:59:58.000Z</time>
      </trkpt>
      <trkpt lat="45.09707" lon="5.6009">
        <ele>1460</ele>
        <time>2013-03-03T12:00:04.000Z</time>
      </trkpt>
      <trkpt lat="45.09711" lon="5.60088">
        <ele>1460</ele>
        <time>2013-03-03T12:00:09.000Z</time>
      </trkpt>
      <trkpt lat="45.09715" lon="5.60086">
        <ele>1460</ele>
        <time>2013-03-03T12:00:15.000Z</time>
      </trkpt>
      <trkpt lat="45.0972" lon="5.60084">
        <ele>1460</ele>
        <time>2013-03-03T12:00:22.000Z</time>
      </trkpt>
      <trkpt lat="45.09725" lon="5.60083">
        <ele>1464</ele>
        <time>2013-03-03T12:00:29.000Z</time>
      </trkpt>
      <trkpt lat="45.0973" lon="5.60082">
        <ele>1464</ele>
        <time>2013-03-03T12:00:37.000Z</time>
      </trkpt>
      <trkpt lat="45.09736" lon="5.6008">
        <ele>1464</ele>
        <time>2013-03-03T12:00:44.000Z</time>
      </trkpt>
      <trkpt lat="45.09741" lon="5.60078">
        <ele>1464</ele>
        <time>2013-03-03T12:00:50.000Z</time>
      </trkpt>
      <trkpt lat="45.09746" lon="5.60076">
        <ele>1464</ele>
        <time>2013-03-03T12:00:56.000Z</time>
      </trkpt>
      <trkpt lat="45.0975" lon="5.60074">
        <ele>1464</ele>
        <time>2013-03-03T12:01:03.000Z</time>
      </trkpt>
      <trkpt lat="45.09755" lon="5.60073">
        <ele>1464</ele>
        <time>2013-03-03T12:01:08.000Z</time>
      </trkpt>
      <trkpt lat="45.09759" lon="5.6007">
        <ele>1464</ele>
        <time>2013-03-03T12:01:13.000Z</time>
      </trkpt>
      <trkpt lat="45.09763" lon="5.60068">
        <ele>1463</ele>
        <time>2013-03-03T12:01:18.000Z</time>
      </trkpt>
      <trkpt lat="45.09768" lon="5.60065">
        <ele>1463</ele>
        <time>2013-03-03T12:01:23.000Z</time>
      </trkpt>
      <trkpt lat="45.09772" lon="5.60063">
        <ele>1463</ele>
        <time>2013-03-03T12:01:27.000Z</time>
      </trkpt>
      <trkpt lat="45.09777" lon="5.6006">
        <ele>1463</ele>
        <time>2013-03-03T12:01:32.000Z</time>
      </trkpt>
      <trkpt lat="45.09781" lon="5.60058">
        <ele>1463</ele>
        <time>2013-03-03T12:01:37.000Z</time>
      </trkpt>
      <trkpt lat="45.09786" lon="5.60055">
        <ele>1463</ele>
        <time>2013-03-03T12:01:42.000Z</time>
      </trkpt>
      <trkpt lat="45.09791" lon="5.60052">
        <ele>1463</ele>
        <time>2013-03-03T12:01:46.000Z</time>
      </trkpt>
      <trkpt lat="45.09796" lon="5.60049">
        <ele>1463</ele>
        <time>2013-03-03T12:01:51.000Z</time>
      </trkpt>
      <trkpt lat="45.098" lon="5.60044">
        <ele>1463</ele>
        <time>2013-03-03T12:01:56.000Z</time>
      </trkpt>
      <trkpt lat="45.09803" lon="5.60039">
        <ele>1463</ele>
        <time>2013-03-03T12:02:01.000Z</time>
      </trkpt>
      <trkpt lat="45.09807" lon="5.60034">
        <ele>1463</ele>
        <time>2013-03-03T12:02:07.000Z</time>
      </trkpt>
      <trkpt lat="45.0981" lon="5.60029">
        <ele>1464</ele>
        <time>2013-03-03T12:02:14.000Z</time>
      </trkpt>
      <trkpt lat="45.09814" lon="5.60025">
        <ele>1464</ele>
        <time>2013-03-03T12:02:20.000Z</time>
      </trkpt>
      <trkpt lat="45.09818" lon="5.6002">
        <ele>1464</ele>
        <time>2013-03-03T12:02:26.000Z</time>
      </trkpt>
      <trkpt lat="45.09822" lon="5.60016">
        <ele>1465</ele>
        <time>2013-03-03T12:02:32.000Z</time>
      </trkpt>
      <trkpt lat="45.09825" lon="5.60012">
        <ele>1465</ele>
        <time>2013-03-03T12:02:37.000Z</time>
      </trkpt>
      <trkpt lat="45.0983" lon="5.60008">
        <ele>1466</ele>
        <time>2013-03-03T12:02:42.000Z</time>
      </trkpt>
      <trkpt lat="45.09834" lon="5.60004">
        <ele>1466</ele>
        <time>2013-03-03T12:02:48.000Z</time>
      </trkpt>
      <trkpt lat="45.09838" lon="5.60001">
        <ele>1466</ele>
        <time>2013-03-03T12:02:53.000Z</time>
      </trkpt>
      <trkpt lat="45.09843" lon="5.59996">
        <ele>1466</ele>
        <time>2013-03-03T12:02:59.000Z</time>
      </trkpt>
      <trkpt lat="45.09846" lon="5.59992">
        <ele>1466</ele>
        <time>2013-03-03T12:03:13.000Z</time>
      </trkpt>
      <trkpt lat="45.09851" lon="5.59988">
        <ele>1466</ele>
        <time>2013-03-03T12:03:19.000Z</time>
      </trkpt>
      <trkpt lat="45.09856" lon="5.59989">
        <ele>1466</ele>
        <time>2013-03-03T12:03:28.000Z</time>
      </trkpt>
      <trkpt lat="45.09861" lon="5.59992">
        <ele>1466</ele>
        <time>2013-03-03T12:03:33.000Z</time>
      </trkpt>
      <trkpt lat="45.09865" lon="5.59995">
        <ele>1466</ele>
        <time>2013-03-03T12:03:36.000Z</time>
      </trkpt>
      <trkpt lat="45.09869" lon="5.59999">
        <ele>1466</ele>
        <time>2013-03-03T12:03:38.000Z</time>
      </trkpt>
      <trkpt lat="45.09875" lon="5.60004">
        <ele>1464</ele>
        <time>2013-03-03T12:03:40.000Z</time>
      </trkpt>
      <trkpt lat="45.0988" lon="5.60008">
        <ele>1464</ele>
        <time>2013-03-03T12:03:42.000Z</time>
      </trkpt>
      <trkpt lat="45.09883" lon="5.60011">
        <ele>1464</ele>
        <time>2013-03-03T12:04:07.000Z</time>
      </trkpt>
      <trkpt lat="45.09887" lon="5.60007">
        <ele>1464</ele>
        <time>2013-03-03T12:04:12.000Z</time>
      </trkpt>
      <trkpt lat="45.09892" lon="5.60001">
        <ele>1465</ele>
        <time>2013-03-03T12:04:18.000Z</time>
      </trkpt>
      <trkpt lat="45.09897" lon="5.59997">
        <ele>1467</ele>
        <time>2013-03-03T12:04:22.000Z</time>
      </trkpt>
      <trkpt lat="45.09902" lon="5.59995">
        <ele>1467</ele>
        <time>2013-03-03T12:04:27.000Z</time>
      </trkpt>
      <trkpt lat="45.09906" lon="5.5999">
        <ele>1467</ele>
        <time>2013-03-03T12:04:36.000Z</time>
      </trkpt>
      <trkpt lat="45.09909" lon="5.59985">
        <ele>1467</ele>
        <time>2013-03-03T12:04:44.000Z</time>
      </trkpt>
      <trkpt lat="45.09913" lon="5.59987">
        <ele>1467</ele>
        <time>2013-03-03T12:04:52.000Z</time>
      </trkpt>
      <trkpt lat="45.09918" lon="5.59985">
        <ele>1468</ele>
        <time>2013-03-03T12:05:00.000Z</time>
      </trkpt>
      <trkpt lat="45.09922" lon="5.59979">
        <ele>1468</ele>
        <time>2013-03-03T12:05:05.000Z</time>
      </trkpt>
      <trkpt lat="45.09927" lon="5.59977">
        <ele>1467</ele>
        <time>2013-03-03T12:05:16.000Z</time>
      </trkpt>
      <trkpt lat="45.09931" lon="5.59975">
        <ele>1467</ele>
        <time>2013-03-03T12:05:23.000Z</time>
      </trkpt>
      <trkpt lat="45.09936" lon="5.59973">
        <ele>1467</ele>
        <time>2013-03-03T12:05:29.000Z</time>
      </trkpt>
      <trkpt lat="45.0994" lon="5.59968">
        <ele>1467</ele>
        <time>2013-03-03T12:05:35.000Z</time>
      </trkpt>
      <trkpt lat="45.09944" lon="5.59966">
        <ele>1467</ele>
        <time>2013-03-03T12:05:40.000Z</time>
      </trkpt>
      <trkpt lat="45.09949" lon="5.59966">
        <ele>1467</ele>
        <time>2013-03-03T12:05:46.000Z</time>
      </trkpt>
      <trkpt lat="45.09954" lon="5.59966">
        <ele>1467</ele>
        <time>2013-03-03T12:05:51.000Z</time>
      </trkpt>
      <trkpt lat="45.09958" lon="5.59968">
        <ele>1467</ele>
        <time>2013-03-03T12:05:57.000Z</time>
      </trkpt>
      <trkpt lat="45.09963" lon="5.59967">
        <ele>1467</ele>
        <time>2013-03-03T12:06:02.000Z</time>
      </trkpt>
      <trkpt lat="45.09968" lon="5.59969">
        <ele>1467</ele>
        <time>2013-03-03T12:06:06.000Z</time>
      </trkpt>
      <trkpt lat="45.09972" lon="5.59969">
        <ele>1467</ele>
        <time>2013-03-03T12:06:10.000Z</time>
      </trkpt>
      <trkpt lat="45.09978" lon="5.59971">
        <ele>1467</ele>
        <time>2013-03-03T12:06:14.000Z</time>
      </trkpt>
      <trkpt lat="45.09982" lon="5.59973">
        <ele>1467</ele>
        <time>2013-03-03T12:06:18.000Z</time>
      </trkpt>
      <trkpt lat="45.09987" lon="5.59972">
        <ele>1467</ele>
        <time>2013-03-03T12:06:21.000Z</time>
      </trkpt>
      <trkpt lat="45.09992" lon="5.59972">
        <ele>1467</ele>
        <time>2013-03-03T12:06:24.000Z</time>
      </trkpt>
      <trkpt lat="45.09998" lon="5.59971">
        <ele>1467</ele>
        <time>2013-03-03T12:06:27.000Z</time>
      </trkpt>
      <trkpt lat="45.10004" lon="5.59971">
        <ele>1467</ele>
        <time>2013-03-03T12:06:31.000Z</time>
      </trkpt>
      <trkpt lat="45.10008" lon="5.59972">
        <ele>1467</ele>
        <time>2013-03-03T12:06:34.000Z</time>
      </trkpt>
      <trkpt lat="45.10013" lon="5.59971">
        <ele>1467</ele>
        <time>2013-03-03T12:06:38.000Z</time>
      </trkpt>
      <trkpt lat="45.10018" lon="5.59971">
        <ele>1467</ele>
        <time>2013-03-03T12:06:41.000Z</time>
      </trkpt>
      <trkpt lat="45.10022" lon="5.59968">
        <ele>1467</ele>
        <time>2013-03-03T12:06:45.000Z</time>
      </trkpt>
      <trkpt lat="45.10027" lon="5.59964">
        <ele>1467</ele>
        <time>2013-03-03T12:06:48.000Z</time>
      </trkpt>
      <trkpt lat="45.10031" lon="5.59959">
        <ele>1467</ele>
        <time>2013-03-03T12:06:52.000Z</time>
      </trkpt>
      <trkpt lat="45.10036" lon="5.59958">
        <ele>1467</ele>
        <time>2013-03-03T12:06:56.000Z</time>
      </trkpt>
      <trkpt lat="45.1004" lon="5.59955">
        <ele>1467</ele>
        <time>2013-03-03T12:07:01.000Z</time>
      </trkpt>
      <trkpt lat="45.10045" lon="5.59953">
        <ele>1467</ele>
        <time>2013-03-03T12:07:06.000Z</time>
      </trkpt>
      <trkpt lat="45.1005" lon="5.59951">
        <ele>1467</ele>
        <time>2013-03-03T12:07:10.000Z</time>
      </trkpt>
      <trkpt lat="45.10055" lon="5.5995">
        <ele>1467</ele>
        <time>2013-03-03T12:07:15.000Z</time>
      </trkpt>
      <trkpt lat="45.1006" lon="5.59949">
        <ele>1467</ele>
        <time>2013-03-03T12:07:19.000Z</time>
      </trkpt>
      <trkpt lat="45.10065" lon="5.59947">
        <ele>1467</ele>
        <time>2013-03-03T12:07:24.000Z</time>
      </trkpt>
      <trkpt lat="45.10071" lon="5.59945">
        <ele>1467</ele>
        <time>2013-03-03T12:07:30.000Z</time>
      </trkpt>
      <trkpt lat="45.10076" lon="5.59944">
        <ele>1467</ele>
        <time>2013-03-03T12:07:35.000Z</time>
      </trkpt>
      <trkpt lat="45.10081" lon="5.59944">
        <ele>1467</ele>
        <time>2013-03-03T12:07:39.000Z</time>
      </trkpt>
      <trkpt lat="45.10086" lon="5.59942">
        <ele>1468</ele>
        <time>2013-03-03T12:07:43.000Z</time>
      </trkpt>
      <trkpt lat="45.10092" lon="5.59941">
        <ele>1468</ele>
        <time>2013-03-03T12:07:47.000Z</time>
      </trkpt>
      <trkpt lat="45.10097" lon="5.5994">
        <ele>1468</ele>
        <time>2013-03-03T12:07:52.000Z</time>
      </trkpt>
      <trkpt lat="45.10102" lon="5.59938">
        <ele>1468</ele>
        <time>2013-03-03T12:07:57.000Z</time>
      </trkpt>
      <trkpt lat="45.10107" lon="5.59938">
        <ele>1468</ele>
        <time>2013-03-03T12:08:01.000Z</time>
      </trkpt>
      <trkpt lat="45.10112" lon="5.59938">
        <ele>1468</ele>
        <time>2013-03-03T12:08:05.000Z</time>
      </trkpt>
      <trkpt lat="45.10118" lon="5.59937">
        <ele>1468</ele>
        <time>2013-03-03T12:08:10.000Z</time>
      </trkpt>
      <trkpt lat="45.10123" lon="5.59937">
        <ele>1468</ele>
        <time>2013-03-03T12:08:15.000Z</time>
      </trkpt>
      <trkpt lat="45.10128" lon="5.59936">
        <ele>1468</ele>
        <time>2013-03-03T12:08:20.000Z</time>
      </trkpt>
      <trkpt lat="45.10133" lon="5.59936">
        <ele>1469</ele>
        <time>2013-03-03T12:08:27.000Z</time>
      </trkpt>
      <trkpt lat="45.10138" lon="5.59936">
        <ele>1469</ele>
        <time>2013-03-03T12:08:32.000Z</time>
      </trkpt>
      <trkpt lat="45.10144" lon="5.59936">
        <ele>1469</ele>
        <time>2013-03-03T12:08:38.000Z</time>
      </trkpt>
      <trkpt lat="45.10148" lon="5.59937">
        <ele>1469</ele>
        <time>2013-03-03T12:08:42.000Z</time>
      </trkpt>
      <trkpt lat="45.10154" lon="5.59937">
        <ele>1469</ele>
        <time>2013-03-03T12:08:49.000Z</time>
      </trkpt>
      <trkpt lat="45.10158" lon="5.59937">
        <ele>1469</ele>
        <time>2013-03-03T12:08:54.000Z</time>
      </trkpt>
      <trkpt lat="45.10164" lon="5.59937">
        <ele>1469</ele>
        <time>2013-03-03T12:09:00.000Z</time>
      </trkpt>
      <trkpt lat="45.10169" lon="5.59936">
        <ele>1469</ele>
        <time>2013-03-03T12:09:05.000Z</time>
      </trkpt>
      <trkpt lat="45.10174" lon="5.59936">
        <ele>1469</ele>
        <time>2013-03-03T12:09:11.000Z</time>
      </trkpt>
      <trkpt lat="45.10179" lon="5.59936">
        <ele>1468</ele>
        <time>2013-03-03T12:09:16.000Z</time>
      </trkpt>
      <trkpt lat="45.10184" lon="5.59935">
        <ele>1468</ele>
        <time>2013-03-03T12:09:21.000Z</time>
      </trkpt>
      <trkpt lat="45.10189" lon="5.59935">
        <ele>1468</ele>
        <time>2013-03-03T12:09:26.000Z</time>
      </trkpt>
      <trkpt lat="45.10194" lon="5.59933">
        <ele>1468</ele>
        <time>2013-03-03T12:09:31.000Z</time>
      </trkpt>
      <trkpt lat="45.10199" lon="5.5993">
        <ele>1468</ele>
        <time>2013-03-03T12:09:35.000Z</time>
      </trkpt>
      <trkpt lat="45.10204" lon="5.59929">
        <ele>1468</ele>
        <time>2013-03-03T12:09:39.000Z</time>
      </trkpt>
      <trkpt lat="45.10209" lon="5.59928">
        <ele>1468</ele>
        <time>2013-03-03T12:09:44.000Z</time>
      </trkpt>
      <trkpt lat="45.10214" lon="5.59926">
        <ele>1468</ele>
        <time>2013-03-03T12:09:49.000Z</time>
      </trkpt>
      <trkpt lat="45.1022" lon="5.59924">
        <ele>1468</ele>
        <time>2013-03-03T12:09:54.000Z</time>
      </trkpt>
      <trkpt lat="45.10224" lon="5.59923">
        <ele>1468</ele>
        <time>2013-03-03T12:09:59.000Z</time>
      </trkpt>
      <trkpt lat="45.10229" lon="5.59922">
        <ele>1468</ele>
        <time>2013-03-03T12:10:03.000Z</time>
      </trkpt>
      <trkpt lat="45.10234" lon="5.5992">
        <ele>1468</ele>
        <time>2013-03-03T12:10:07.000Z</time>
      </trkpt>
      <trkpt lat="45.10239" lon="5.59919">
        <ele>1469</ele>
        <time>2013-03-03T12:10:11.000Z</time>
      </trkpt>
      <trkpt lat="45.10245" lon="5.59918">
        <ele>1469</ele>
        <time>2013-03-03T12:10:15.000Z</time>
      </trkpt>
      <trkpt lat="45.1025" lon="5.59918">
        <ele>1470</ele>
        <time>2013-03-03T12:10:18.000Z</time>
      </trkpt>
      <trkpt lat="45.10256" lon="5.59919">
        <ele>1468</ele>
        <time>2013-03-03T12:10:21.000Z</time>
      </trkpt>
      <trkpt lat="45.10262" lon="5.59919">
        <ele>1468</ele>
        <time>2013-03-03T12:10:24.000Z</time>
      </trkpt>
      <trkpt lat="45.10267" lon="5.5992">
        <ele>1467</ele>
        <time>2013-03-03T12:10:27.000Z</time>
      </trkpt>
      <trkpt lat="45.10272" lon="5.59919">
        <ele>1466</ele>
        <time>2013-03-03T12:10:30.000Z</time>
      </trkpt>
      <trkpt lat="45.10278" lon="5.5992">
        <ele>1466</ele>
        <time>2013-03-03T12:10:34.000Z</time>
      </trkpt>
      <trkpt lat="45.10283" lon="5.59919">
        <ele>1466</ele>
        <time>2013-03-03T12:10:38.000Z</time>
      </trkpt>
      <trkpt lat="45.10287" lon="5.59916">
        <ele>1469</ele>
        <time>2013-03-03T12:10:43.000Z</time>
      </trkpt>
      <trkpt lat="45.10293" lon="5.59915">
        <ele>1469</ele>
        <time>2013-03-03T12:10:48.000Z</time>
      </trkpt>
      <trkpt lat="45.10297" lon="5.59913">
        <ele>1469</ele>
        <time>2013-03-03T12:10:54.000Z</time>
      </trkpt>
      <trkpt lat="45.10303" lon="5.59912">
        <ele>1469</ele>
        <time>2013-03-03T12:11:00.000Z</time>
      </trkpt>
      <trkpt lat="45.10309" lon="5.59913">
        <ele>1469</ele>
        <time>2013-03-03T12:11:03.000Z</time>
      </trkpt>
      <trkpt lat="45.10316" lon="5.59912">
        <ele>1469</ele>
        <time>2013-03-03T12:11:05.000Z</time>
      </trkpt>
      <trkpt lat="45.10321" lon="5.5991">
        <ele>1470</ele>
        <time>2013-03-03T12:11:07.000Z</time>
      </trkpt>
      <trkpt lat="45.10326" lon="5.59908">
        <ele>1470</ele>
        <time>2013-03-03T12:11:10.000Z</time>
      </trkpt>
      <trkpt lat="45.1033" lon="5.5991">
        <ele>1470</ele>
        <time>2013-03-03T12:11:15.000Z</time>
      </trkpt>
      <trkpt lat="45.10335" lon="5.5991">
        <ele>1471</ele>
        <time>2013-03-03T12:11:19.000Z</time>
      </trkpt>
      <trkpt lat="45.1034" lon="5.5991">
        <ele>1470</ele>
        <time>2013-03-03T12:11:33.000Z</time>
      </trkpt>
      <trkpt lat="45.10345" lon="5.59909">
        <ele>1470</ele>
        <time>2013-03-03T12:11:40.000Z</time>
      </trkpt>
      <trkpt lat="45.1035" lon="5.59908">
        <ele>1470</ele>
        <time>2013-03-03T12:11:47.000Z</time>
      </trkpt>
      <trkpt lat="45.10354" lon="5.59908">
        <ele>1470</ele>
        <time>2013-03-03T12:11:54.000Z</time>
      </trkpt>
      <trkpt lat="45.10359" lon="5.59907">
        <ele>1470</ele>
        <time>2013-03-03T12:11:59.000Z</time>
      </trkpt>
      <trkpt lat="45.10364" lon="5.59906">
        <ele>1470</ele>
        <time>2013-03-03T12:12:05.000Z</time>
      </trkpt>
      <trkpt lat="45.10369" lon="5.59906">
        <ele>1470</ele>
        <time>2013-03-03T12:12:11.000Z</time>
      </trkpt>
      <trkpt lat="45.10374" lon="5.59905">
        <ele>1470</ele>
        <time>2013-03-03T12:12:18.000Z</time>
      </trkpt>
      <trkpt lat="45.10379" lon="5.59905">
        <ele>1470</ele>
        <time>2013-03-03T12:12:25.000Z</time>
      </trkpt>
      <trkpt lat="45.10384" lon="5.59905">
        <ele>1470</ele>
        <time>2013-03-03T12:12:30.000Z</time>
      </trkpt>
      <trkpt lat="45.10389" lon="5.59906">
        <ele>1470</ele>
        <time>2013-03-03T12:12:36.000Z</time>
      </trkpt>
      <trkpt lat="45.10394" lon="5.59905">
        <ele>1470</ele>
        <time>2013-03-03T12:12:41.000Z</time>
      </trkpt>
      <trkpt lat="45.10399" lon="5.59904">
        <ele>1470</ele>
        <time>2013-03-03T12:12:46.000Z</time>
      </trkpt>
      <trkpt lat="45.10404" lon="5.59902">
        <ele>1471</ele>
        <time>2013-03-03T12:12:52.000Z</time>
      </trkpt>
      <trkpt lat="45.10408" lon="5.59898">
        <ele>1471</ele>
        <time>2013-03-03T12:12:56.000Z</time>
      </trkpt>
      <trkpt lat="45.10413" lon="5.59897">
        <ele>1471</ele>
        <time>2013-03-03T12:13:00.000Z</time>
      </trkpt>
      <trkpt lat="45.10417" lon="5.59895">
        <ele>1471</ele>
        <time>2013-03-03T12:13:04.000Z</time>
      </trkpt>
      <trkpt lat="45.10422" lon="5.59891">
        <ele>1471</ele>
        <time>2013-03-03T12:13:09.000Z</time>
      </trkpt>
      <trkpt lat="45.10426" lon="5.59887">
        <ele>1471</ele>
        <time>2013-03-03T12:13:13.000Z</time>
      </trkpt>
      <trkpt lat="45.1043" lon="5.59883">
        <ele>1471</ele>
        <time>2013-03-03T12:13:16.000Z</time>
      </trkpt>
      <trkpt lat="45.10435" lon="5.59879">
        <ele>1471</ele>
        <time>2013-03-03T12:13:20.000Z</time>
      </trkpt>
      <trkpt lat="45.1044" lon="5.59877">
        <ele>1471</ele>
        <time>2013-03-03T12:13:23.000Z</time>
      </trkpt>
      <trkpt lat="45.10445" lon="5.59875">
        <ele>1471</ele>
        <time>2013-03-03T12:13:28.000Z</time>
      </trkpt>
      <trkpt lat="45.1045" lon="5.59875">
        <ele>1471</ele>
        <time>2013-03-03T12:13:32.000Z</time>
      </trkpt>
      <trkpt lat="45.10455" lon="5.59875">
        <ele>1471</ele>
        <time>2013-03-03T12:13:37.000Z</time>
      </trkpt>
      <trkpt lat="45.1046" lon="5.59875">
        <ele>1471</ele>
        <time>2013-03-03T12:13:42.000Z</time>
      </trkpt>
      <trkpt lat="45.10465" lon="5.59874">
        <ele>1471</ele>
        <time>2013-03-03T12:13:48.000Z</time>
      </trkpt>
      <trkpt lat="45.1047" lon="5.59873">
        <ele>1471</ele>
        <time>2013-03-03T12:13:53.000Z</time>
      </trkpt>
      <trkpt lat="45.10474" lon="5.59872">
        <ele>1471</ele>
        <time>2013-03-03T12:13:58.000Z</time>
      </trkpt>
      <trkpt lat="45.1048" lon="5.59871">
        <ele>1471</ele>
        <time>2013-03-03T12:14:03.000Z</time>
      </trkpt>
      <trkpt lat="45.10485" lon="5.59869">
        <ele>1471</ele>
        <time>2013-03-03T12:14:08.000Z</time>
      </trkpt>
      <trkpt lat="45.10491" lon="5.59869">
        <ele>1471</ele>
        <time>2013-03-03T12:14:12.000Z</time>
      </trkpt>
      <trkpt lat="45.10496" lon="5.59869">
        <ele>1471</ele>
        <time>2013-03-03T12:14:16.000Z</time>
      </trkpt>
      <trkpt lat="45.10502" lon="5.59871">
        <ele>1470</ele>
        <time>2013-03-03T12:14:20.000Z</time>
      </trkpt>
      <trkpt lat="45.10507" lon="5.59872">
        <ele>1470</ele>
        <time>2013-03-03T12:14:25.000Z</time>
      </trkpt>
      <trkpt lat="45.10512" lon="5.59876">
        <ele>1470</ele>
        <time>2013-03-03T12:14:30.000Z</time>
      </trkpt>
      <trkpt lat="45.10516" lon="5.59878">
        <ele>1471</ele>
        <time>2013-03-03T12:14:36.000Z</time>
      </trkpt>
      <trkpt lat="45.10521" lon="5.59882">
        <ele>1471</ele>
        <time>2013-03-03T12:14:41.000Z</time>
      </trkpt>
      <trkpt lat="45.10526" lon="5.59884">
        <ele>1471</ele>
        <time>2013-03-03T12:14:45.000Z</time>
      </trkpt>
      <trkpt lat="45.10531" lon="5.59886">
        <ele>1471</ele>
        <time>2013-03-03T12:14:49.000Z</time>
      </trkpt>
      <trkpt lat="45.10537" lon="5.59888">
        <ele>1470</ele>
        <time>2013-03-03T12:14:54.000Z</time>
      </trkpt>
      <trkpt lat="45.10543" lon="5.59888">
        <ele>1470</ele>
        <time>2013-03-03T12:14:59.000Z</time>
      </trkpt>
      <trkpt lat="45.10548" lon="5.59889">
        <ele>1470</ele>
        <time>2013-03-03T12:15:03.000Z</time>
      </trkpt>
      <trkpt lat="45.10552" lon="5.59884">
        <ele>1470</ele>
        <time>2013-03-03T12:15:09.000Z</time>
      </trkpt>
      <trkpt lat="45.10557" lon="5.59883">
        <ele>1470</ele>
        <time>2013-03-03T12:15:14.000Z</time>
      </trkpt>
      <trkpt lat="45.10561" lon="5.59881">
        <ele>1470</ele>
        <time>2013-03-03T12:15:19.000Z</time>
      </trkpt>
      <trkpt lat="45.10566" lon="5.59879">
        <ele>1469</ele>
        <time>2013-03-03T12:15:24.000Z</time>
      </trkpt>
      <trkpt lat="45.1057" lon="5.59877">
        <ele>1469</ele>
        <time>2013-03-03T12:15:29.000Z</time>
      </trkpt>
      <trkpt lat="45.10575" lon="5.59876">
        <ele>1469</ele>
        <time>2013-03-03T12:15:35.000Z</time>
      </trkpt>
      <trkpt lat="45.1058" lon="5.59877">
        <ele>1469</ele>
        <time>2013-03-03T12:15:41.000Z</time>
      </trkpt>
      <trkpt lat="45.10585" lon="5.59878">
        <ele>1465</ele>
        <time>2013-03-03T12:15:45.000Z</time>
      </trkpt>
      <trkpt lat="45.10589" lon="5.5988">
        <ele>1465</ele>
        <time>2013-03-03T12:15:50.000Z</time>
      </trkpt>
      <trkpt lat="45.10594" lon="5.5988">
        <ele>1465</ele>
        <time>2013-03-03T12:15:56.000Z</time>
      </trkpt>
      <trkpt lat="45.106" lon="5.59881">
        <ele>1465</ele>
        <time>2013-03-03T12:16:02.000Z</time>
      </trkpt>
      <trkpt lat="45.10604" lon="5.59882">
        <ele>1465</ele>
        <time>2013-03-03T12:16:07.000Z</time>
      </trkpt>
      <trkpt lat="45.10609" lon="5.59884">
        <ele>1465</ele>
        <time>2013-03-03T12:16:11.000Z</time>
      </trkpt>
      <trkpt lat="45.10614" lon="5.59888">
        <ele>1465</ele>
        <time>2013-03-03T12:16:16.000Z</time>
      </trkpt>
      <trkpt lat="45.10619" lon="5.59889">
        <ele>1465</ele>
        <time>2013-03-03T12:16:19.000Z</time>
      </trkpt>
      <trkpt lat="45.10624" lon="5.59891">
        <ele>1464</ele>
        <time>2013-03-03T12:16:23.000Z</time>
      </trkpt>
      <trkpt lat="45.10629" lon="5.59893">
        <ele>1464</ele>
        <time>2013-03-03T12:16:27.000Z</time>
      </trkpt>
      <trkpt lat="45.10634" lon="5.59893">
        <ele>1464</ele>
        <time>2013-03-03T12:16:31.000Z</time>
      </trkpt>
      <trkpt lat="45.10639" lon="5.59894">
        <ele>1464</ele>
        <time>2013-03-03T12:16:35.000Z</time>
      </trkpt>
      <trkpt lat="45.10645" lon="5.59895">
        <ele>1464</ele>
        <time>2013-03-03T12:16:39.000Z</time>
      </trkpt>
      <trkpt lat="45.1065" lon="5.59897">
        <ele>1465</ele>
        <time>2013-03-03T12:16:43.000Z</time>
      </trkpt>
      <trkpt lat="45.10656" lon="5.59898">
        <ele>1465</ele>
        <time>2013-03-03T12:16:47.000Z</time>
      </trkpt>
      <trkpt lat="45.10661" lon="5.59899">
        <ele>1465</ele>
        <time>2013-03-03T12:16:50.000Z</time>
      </trkpt>
      <trkpt lat="45.10666" lon="5.59899">
        <ele>1465</ele>
        <time>2013-03-03T12:16:54.000Z</time>
      </trkpt>
      <trkpt lat="45.10671" lon="5.59899">
        <ele>1460</ele>
        <time>2013-03-03T12:16:58.000Z</time>
      </trkpt>
      <trkpt lat="45.10676" lon="5.59901">
        <ele>1460</ele>
        <time>2013-03-03T12:17:02.000Z</time>
      </trkpt>
      <trkpt lat="45.10681" lon="5.59903">
        <ele>1460</ele>
        <time>2013-03-03T12:17:06.000Z</time>
      </trkpt>
      <trkpt lat="45.10686" lon="5.59905">
        <ele>1459</ele>
        <time>2013-03-03T12:17:11.000Z</time>
      </trkpt>
      <trkpt lat="45.10692" lon="5.59906">
        <ele>1458</ele>
        <time>2013-03-03T12:17:16.000Z</time>
      </trkpt>
      <trkpt lat="45.10697" lon="5.59905">
        <ele>1457</ele>
        <time>2013-03-03T12:17:20.000Z</time>
      </trkpt>
      <trkpt lat="45.10702" lon="5.59907">
        <ele>1456</ele>
        <time>2013-03-03T12:17:26.000Z</time>
      </trkpt>
      <trkpt lat="45.10708" lon="5.59909">
        <ele>1456</ele>
        <time>2013-03-03T12:17:31.000Z</time>
      </trkpt>
      <trkpt lat="45.10714" lon="5.5991">
        <ele>1455</ele>
        <time>2013-03-03T12:17:34.000Z</time>
      </trkpt>
      <trkpt lat="45.10718" lon="5.59915">
        <ele>1455</ele>
        <time>2013-03-03T12:17:41.000Z</time>
      </trkpt>
      <trkpt lat="45.10723" lon="5.59913">
        <ele>1455</ele>
        <time>2013-03-03T12:17:45.000Z</time>
      </trkpt>
      <trkpt lat="45.10728" lon="5.59915">
        <ele>1455</ele>
        <time>2013-03-03T12:17:48.000Z</time>
      </trkpt>
      <trkpt lat="45.10732" lon="5.59919">
        <ele>1456</ele>
        <time>2013-03-03T12:18:10.000Z</time>
      </trkpt>
      <trkpt lat="45.10736" lon="5.59926">
        <ele>1456</ele>
        <time>2013-03-03T12:18:13.000Z</time>
      </trkpt>
      <trkpt lat="45.1074" lon="5.59932">
        <ele>1455</ele>
        <time>2013-03-03T12:18:15.000Z</time>
      </trkpt>
      <trkpt lat="45.10745" lon="5.59932">
        <ele>1455</ele>
        <time>2013-03-03T12:18:21.000Z</time>
      </trkpt>
      <trkpt lat="45.10752" lon="5.59932">
        <ele>1448</ele>
        <time>2013-03-03T12:18:24.000Z</time>
      </trkpt>
      <trkpt lat="45.10757" lon="5.59934">
        <ele>1447</ele>
        <time>2013-03-03T12:18:26.000Z</time>
      </trkpt>
      <trkpt lat="45.10762" lon="5.59932">
        <ele>1446</ele>
        <time>2013-03-03T12:18:29.000Z</time>
      </trkpt>
      <trkpt lat="45.10766" lon="5.59937">
        <ele>1444</ele>
        <time>2013-03-03T12:18:36.000Z</time>
      </trkpt>
      <trkpt lat="45.10772" lon="5.5994">
        <ele>1443</ele>
        <time>2013-03-03T12:18:45.000Z</time>
      </trkpt>
      <trkpt lat="45.10776" lon="5.59945">
        <ele>1442</ele>
        <time>2013-03-03T12:18:48.000Z</time>
      </trkpt>
      <trkpt lat="45.1078" lon="5.59952">
        <ele>1441</ele>
        <time>2013-03-03T12:18:50.000Z</time>
      </trkpt>
      <trkpt lat="45.10782" lon="5.59958">
        <ele>1440</ele>
        <time>2013-03-03T12:18:54.000Z</time>
      </trkpt>
      <trkpt lat="45.10785" lon="5.59963">
        <ele>1439</ele>
        <time>2013-03-03T12:19:05.000Z</time>
      </trkpt>
      <trkpt lat="45.10788" lon="5.59968">
        <ele>1439</ele>
        <time>2013-03-03T12:19:27.000Z</time>
      </trkpt>
      <trkpt lat="45.10788" lon="5.59968">
        <ele>1439</ele>
        <time>2013-03-03T12:19:27.000Z</time>
      </trkpt>
      <trkpt lat="45.10788" lon="5.59968">
        <ele>1439</ele>
        <time>2013-03-03T12:19:28.000Z</time>
      </trkpt>
      <trkpt lat="45.10792" lon="5.59972">
        <ele>1438</ele>
        <time>2013-03-03T12:19:57.000Z</time>
      </trkpt>
      <trkpt lat="45.10797" lon="5.59975">
        <ele>1437</ele>
        <time>2013-03-03T12:20:00.000Z</time>
      </trkpt>
      <trkpt lat="45.10802" lon="5.59977">
        <ele>1436</ele>
        <time>2013-03-03T12:20:05.000Z</time>
      </trkpt>
      <trkpt lat="45.10808" lon="5.59977">
        <ele>1435</ele>
        <time>2013-03-03T12:20:11.000Z</time>
      </trkpt>
      <trkpt lat="45.10812" lon="5.59978">
        <ele>1435</ele>
        <time>2013-03-03T12:20:27.000Z</time>
      </trkpt>
      <trkpt lat="45.10812" lon="5.59978">
        <ele>1435</ele>
        <time>2013-03-03T12:20:27.000Z</time>
      </trkpt>
      <trkpt lat="45.10812" lon="5.59978">
        <ele>1435</ele>
        <time>2013-03-03T12:20:32.000Z</time>
      </trkpt>
      <trkpt lat="45.10818" lon="5.5998">
        <ele>1434</ele>
        <time>2013-03-03T12:20:37.000Z</time>
      </trkpt>
      <trkpt lat="45.10823" lon="5.59981">
        <ele>1433</ele>
        <time>2013-03-03T12:20:45.000Z</time>
      </trkpt>
      <trkpt lat="45.10828" lon="5.59982">
        <ele>1432</ele>
        <time>2013-03-03T12:20:49.000Z</time>
      </trkpt>
      <trkpt lat="45.10833" lon="5.59984">
        <ele>1431</ele>
        <time>2013-03-03T12:20:56.000Z</time>
      </trkpt>
      <trkpt lat="45.10833" lon="5.59984">
        <ele>1431</ele>
        <time>2013-03-03T12:20:56.000Z</time>
      </trkpt>
      <trkpt lat="45.10833" lon="5.59984">
        <ele>1431</ele>
        <time>2013-03-03T12:20:58.000Z</time>
      </trkpt>
      <trkpt lat="45.10837" lon="5.5998">
        <ele>1420</ele>
        <time>2013-03-03T12:21:39.000Z</time>
      </trkpt>
      <trkpt lat="45.10837" lon="5.5998">
        <ele>1420</ele>
        <time>2013-03-03T12:21:39.000Z</time>
      </trkpt>
      <trkpt lat="45.10837" lon="5.5998">
        <ele>1420</ele>
        <time>2013-03-03T12:21:40.000Z</time>
      </trkpt>
      <trkpt lat="45.1084" lon="5.59973">
        <ele>1419</ele>
        <time>2013-03-03T12:22:11.000Z</time>
      </trkpt>
      <trkpt lat="45.10841" lon="5.59965">
        <ele>1419</ele>
        <time>2013-03-03T12:22:15.000Z</time>
      </trkpt>
      <trkpt lat="45.10844" lon="5.59957">
        <ele>1419</ele>
        <time>2013-03-03T12:22:18.000Z</time>
      </trkpt>
      <trkpt lat="45.10846" lon="5.59949">
        <ele>1419</ele>
        <time>2013-03-03T12:22:21.000Z</time>
      </trkpt>
      <trkpt lat="45.10841" lon="5.59943">
        <ele>1420</ele>
        <time>2013-03-03T12:22:56.000Z</time>
      </trkpt>
      <trkpt lat="45.10841" lon="5.59943">
        <ele>1420</ele>
        <time>2013-03-03T12:22:56.000Z</time>
      </trkpt>
      <trkpt lat="45.10841" lon="5.59943">
        <ele>1420</ele>
        <time>2013-03-03T12:23:03.000Z</time>
      </trkpt>
      <trkpt lat="45.10846" lon="5.59938">
        <ele>1421</ele>
        <time>2013-03-03T12:23:21.000Z</time>
      </trkpt>
      <trkpt lat="45.10851" lon="5.59939">
        <ele>1419</ele>
        <time>2013-03-03T12:23:24.000Z</time>
      </trkpt>
      <trkpt lat="45.10856" lon="5.59936">
        <ele>1419</ele>
        <time>2013-03-03T12:24:50.000Z</time>
      </trkpt>
      <trkpt lat="45.10862" lon="5.59939">
        <ele>1417</ele>
        <time>2013-03-03T12:25:00.000Z</time>
      </trkpt>
      <trkpt lat="45.10867" lon="5.59933">
        <ele>1417</ele>
        <time>2013-03-03T12:25:03.000Z</time>
      </trkpt>
      <trkpt lat="45.10872" lon="5.59935">
        <ele>1415</ele>
        <time>2013-03-03T12:26:13.000Z</time>
      </trkpt>
      <trkpt lat="45.10876" lon="5.59931">
        <ele>1415</ele>
        <time>2013-03-03T12:28:04.000Z</time>
      </trkpt>
      <trkpt lat="45.10882" lon="5.59927">
        <ele>1413</ele>
        <time>2013-03-03T12:28:09.000Z</time>
      </trkpt>
      <trkpt lat="45.10885" lon="5.59922">
        <ele>1412</ele>
        <time>2013-03-03T12:28:13.000Z</time>
      </trkpt>
      <trkpt lat="45.1089" lon="5.59919">
        <ele>1411</ele>
        <time>2013-03-03T12:28:16.000Z</time>
      </trkpt>
      <trkpt lat="45.10894" lon="5.59918">
        <ele>1410</ele>
        <time>2013-03-03T12:28:18.000Z</time>
      </trkpt>
      <trkpt lat="45.10901" lon="5.59917">
        <ele>1408</ele>
        <time>2013-03-03T12:28:20.000Z</time>
      </trkpt>
      <trkpt lat="45.10907" lon="5.59914">
        <ele>1406</ele>
        <time>2013-03-03T12:28:22.000Z</time>
      </trkpt>
      <trkpt lat="45.10912" lon="5.5991">
        <ele>1405</ele>
        <time>2013-03-03T12:28:24.000Z</time>
      </trkpt>
      <trkpt lat="45.10916" lon="5.59905">
        <ele>1406</ele>
        <time>2013-03-03T12:28:26.000Z</time>
      </trkpt>
      <trkpt lat="45.10921" lon="5.599">
        <ele>1396</ele>
        <time>2013-03-03T12:28:28.000Z</time>
      </trkpt>
      <trkpt lat="45.10928" lon="5.59897">
        <ele>1394</ele>
        <time>2013-03-03T12:28:30.000Z</time>
      </trkpt>
      <trkpt lat="45.10933" lon="5.5989">
        <ele>1393</ele>
        <time>2013-03-03T12:28:32.000Z</time>
      </trkpt>
      <trkpt lat="45.10933" lon="5.59884">
        <ele>1392</ele>
        <time>2013-03-03T12:28:38.000Z</time>
      </trkpt>
      <trkpt lat="45.10933" lon="5.59884">
        <ele>1392</ele>
        <time>2013-03-03T12:28:38.000Z</time>
      </trkpt>
      <trkpt lat="45.10933" lon="5.59884">
        <ele>1392</ele>
        <time>2013-03-03T12:28:41.000Z</time>
      </trkpt>
      <trkpt lat="45.10931" lon="5.59878">
        <ele>1392</ele>
        <time>2013-03-03T12:28:49.000Z</time>
      </trkpt>
      <trkpt lat="45.10935" lon="5.59875">
        <ele>1392</ele>
        <time>2013-03-03T12:28:54.000Z</time>
      </trkpt>
      <trkpt lat="45.10935" lon="5.59875">
        <ele>1392</ele>
        <time>2013-03-03T12:28:54.000Z</time>
      </trkpt>
      <trkpt lat="45.10935" lon="5.59875">
        <ele>1392</ele>
        <time>2013-03-03T12:28:55.000Z</time>
      </trkpt>
      <trkpt lat="45.10941" lon="5.59879">
        <ele>1391</ele>
        <time>2013-03-03T12:31:36.000Z</time>
      </trkpt>
      <trkpt lat="45.10946" lon="5.59884">
        <ele>1391</ele>
        <time>2013-03-03T12:31:40.000Z</time>
      </trkpt>
      <trkpt lat="45.10951" lon="5.59889">
        <ele>1390</ele>
        <time>2013-03-03T12:31:44.000Z</time>
      </trkpt>
      <trkpt lat="45.10954" lon="5.59895">
        <ele>1390</ele>
        <time>2013-03-03T12:31:46.000Z</time>
      </trkpt>
      <trkpt lat="45.10955" lon="5.59902">
        <ele>1390</ele>
        <time>2013-03-03T12:31:49.000Z</time>
      </trkpt>
      <trkpt lat="45.10959" lon="5.59905">
        <ele>1389</ele>
        <time>2013-03-03T12:31:52.000Z</time>
      </trkpt>
      <trkpt lat="45.10965" lon="5.5991">
        <ele>1387</ele>
        <time>2013-03-03T12:31:54.000Z</time>
      </trkpt>
      <trkpt lat="45.10971" lon="5.59912">
        <ele>1386</ele>
        <time>2013-03-03T12:31:56.000Z</time>
      </trkpt>
      <trkpt lat="45.10975" lon="5.59915">
        <ele>1385</ele>
        <time>2013-03-03T12:31:57.000Z</time>
      </trkpt>
      <trkpt lat="45.10982" lon="5.59919">
        <ele>1381</ele>
        <time>2013-03-03T12:31:59.000Z</time>
      </trkpt>
      <trkpt lat="45.10988" lon="5.59923">
        <ele>1380</ele>
        <time>2013-03-03T12:32:01.000Z</time>
      </trkpt>
      <trkpt lat="45.10992" lon="5.59927">
        <ele>1380</ele>
        <time>2013-03-03T12:32:02.000Z</time>
      </trkpt>
      <trkpt lat="45.10996" lon="5.59931">
        <ele>1380</ele>
        <time>2013-03-03T12:32:03.000Z</time>
      </trkpt>
      <trkpt lat="45.11003" lon="5.59936">
        <ele>1365</ele>
        <time>2013-03-03T12:32:05.000Z</time>
      </trkpt>
      <trkpt lat="45.11008" lon="5.59937">
        <ele>1364</ele>
        <time>2013-03-03T12:32:06.000Z</time>
      </trkpt>
      <trkpt lat="45.11013" lon="5.59934">
        <ele>1364</ele>
        <time>2013-03-03T12:32:07.000Z</time>
      </trkpt>
      <trkpt lat="45.1102" lon="5.59939">
        <ele>1361</ele>
        <time>2013-03-03T12:32:09.000Z</time>
      </trkpt>
      <trkpt lat="45.11026" lon="5.59942">
        <ele>1359</ele>
        <time>2013-03-03T12:32:11.000Z</time>
      </trkpt>
      <trkpt lat="45.11034" lon="5.59946">
        <ele>1357</ele>
        <time>2013-03-03T12:32:13.000Z</time>
      </trkpt>
      <trkpt lat="45.11039" lon="5.59949">
        <ele>1356</ele>
        <time>2013-03-03T12:32:14.000Z</time>
      </trkpt>
      <trkpt lat="45.11044" lon="5.5995">
        <ele>1355</ele>
        <time>2013-03-03T12:32:15.000Z</time>
      </trkpt>
      <trkpt lat="45.11053" lon="5.59954">
        <ele>1353</ele>
        <time>2013-03-03T12:32:18.000Z</time>
      </trkpt>
      <trkpt lat="45.1106" lon="5.59958">
        <ele>1351</ele>
        <time>2013-03-03T12:32:19.000Z</time>
      </trkpt>
      <trkpt lat="45.11067" lon="5.59956">
        <ele>1351</ele>
        <time>2013-03-03T12:32:21.000Z</time>
      </trkpt>
      <trkpt lat="45.11072" lon="5.59954">
        <ele>1350</ele>
        <time>2013-03-03T12:32:22.000Z</time>
      </trkpt>
      <trkpt lat="45.11078" lon="5.59954">
        <ele>1350</ele>
        <time>2013-03-03T12:32:24.000Z</time>
      </trkpt>
      <trkpt lat="45.11085" lon="5.59954">
        <ele>1330</ele>
        <time>2013-03-03T12:32:26.000Z</time>
      </trkpt>
      <trkpt lat="45.11091" lon="5.59947">
        <ele>1331</ele>
        <time>2013-03-03T12:32:27.000Z</time>
      </trkpt>
      <trkpt lat="45.11094" lon="5.59941">
        <ele>1332</ele>
        <time>2013-03-03T12:32:29.000Z</time>
      </trkpt>
      <trkpt lat="45.11099" lon="5.59936">
        <ele>1333</ele>
        <time>2013-03-03T12:32:31.000Z</time>
      </trkpt>
      <trkpt lat="45.11104" lon="5.59936">
        <ele>1331</ele>
        <time>2013-03-03T12:32:32.000Z</time>
      </trkpt>
      <trkpt lat="45.1111" lon="5.59938">
        <ele>1329</ele>
        <time>2013-03-03T12:32:33.000Z</time>
      </trkpt>
      <trkpt lat="45.11116" lon="5.59938">
        <ele>1328</ele>
        <time>2013-03-03T12:32:34.000Z</time>
      </trkpt>
      <trkpt lat="45.1112" lon="5.59932">
        <ele>1327</ele>
        <time>2013-03-03T12:32:35.000Z</time>
      </trkpt>
      <trkpt lat="45.11125" lon="5.59929">
        <ele>1326</ele>
        <time>2013-03-03T12:32:36.000Z</time>
      </trkpt>
      <trkpt lat="45.1113" lon="5.59928">
        <ele>1325</ele>
        <time>2013-03-03T12:32:37.000Z</time>
      </trkpt>
      <trkpt lat="45.11135" lon="5.59923">
        <ele>1324</ele>
        <time>2013-03-03T12:32:40.000Z</time>
      </trkpt>
      <trkpt lat="45.11135" lon="5.59915">
        <ele>1330</ele>
        <time>2013-03-03T12:32:59.000Z</time>
      </trkpt>
      <trkpt lat="45.11135" lon="5.59909">
        <ele>1330</ele>
        <time>2013-03-03T12:33:11.000Z</time>
      </trkpt>
      <trkpt lat="45.11135" lon="5.59909">
        <ele>1330</ele>
        <time>2013-03-03T12:33:11.000Z</time>
      </trkpt>
      <trkpt lat="45.11135" lon="5.59909">
        <ele>1330</ele>
        <time>2013-03-03T12:33:31.000Z</time>
      </trkpt>
      <trkpt lat="45.1114" lon="5.59914">
        <ele>1328</ele>
        <time>2013-03-03T12:33:40.000Z</time>
      </trkpt>
      <trkpt lat="45.11144" lon="5.59918">
        <ele>1322</ele>
        <time>2013-03-03T12:33:45.000Z</time>
      </trkpt>
      <trkpt lat="45.11148" lon="5.59922">
        <ele>1321</ele>
        <time>2013-03-03T12:33:49.000Z</time>
      </trkpt>
      <trkpt lat="45.11154" lon="5.59926">
        <ele>1320</ele>
        <time>2013-03-03T12:33:58.000Z</time>
      </trkpt>
      <trkpt lat="45.11159" lon="5.59929">
        <ele>1319</ele>
        <time>2013-03-03T12:34:00.000Z</time>
      </trkpt>
      <trkpt lat="45.11163" lon="5.59934">
        <ele>1319</ele>
        <time>2013-03-03T12:34:02.000Z</time>
      </trkpt>
      <trkpt lat="45.11169" lon="5.59938">
        <ele>1303</ele>
        <time>2013-03-03T12:34:05.000Z</time>
      </trkpt>
      <trkpt lat="45.11174" lon="5.59937">
        <ele>1303</ele>
        <time>2013-03-03T12:34:07.000Z</time>
      </trkpt>
      <trkpt lat="45.11179" lon="5.59937">
        <ele>1302</ele>
        <time>2013-03-03T12:34:09.000Z</time>
      </trkpt>
      <trkpt lat="45.11185" lon="5.5994">
        <ele>1300</ele>
        <time>2013-03-03T12:34:11.000Z</time>
      </trkpt>
      <trkpt lat="45.1119" lon="5.59934">
        <ele>1300</ele>
        <time>2013-03-03T12:34:13.000Z</time>
      </trkpt>
      <trkpt lat="45.11193" lon="5.59929">
        <ele>1300</ele>
        <time>2013-03-03T12:34:15.000Z</time>
      </trkpt>
      <trkpt lat="45.11194" lon="5.59923">
        <ele>1300</ele>
        <time>2013-03-03T12:34:29.000Z</time>
      </trkpt>
      <trkpt lat="45.11194" lon="5.59923">
        <ele>1300</ele>
        <time>2013-03-03T12:34:29.000Z</time>
      </trkpt>
      <trkpt lat="45.11194" lon="5.59923">
        <ele>1300</ele>
        <time>2013-03-03T12:34:30.000Z</time>
      </trkpt>
      <trkpt lat="45.11199" lon="5.59926">
        <ele>1298</ele>
        <time>2013-03-03T12:34:57.000Z</time>
      </trkpt>
      <trkpt lat="45.11205" lon="5.59928">
        <ele>1297</ele>
        <time>2013-03-03T12:34:59.000Z</time>
      </trkpt>
      <trkpt lat="45.11211" lon="5.5993">
        <ele>1295</ele>
        <time>2013-03-03T12:35:01.000Z</time>
      </trkpt>
      <trkpt lat="45.11216" lon="5.59933">
        <ele>1294</ele>
        <time>2013-03-03T12:35:03.000Z</time>
      </trkpt>
      <trkpt lat="45.11222" lon="5.59932">
        <ele>1292</ele>
        <time>2013-03-03T12:35:06.000Z</time>
      </trkpt>
      <trkpt lat="45.11222" lon="5.59932">
        <ele>1292</ele>
        <time>2013-03-03T12:35:06.000Z</time>
      </trkpt>
      <trkpt lat="45.11222" lon="5.59932">
        <ele>1292</ele>
        <time>2013-03-03T12:35:07.000Z</time>
      </trkpt>
      <trkpt lat="45.11226" lon="5.59926">
        <ele>1292</ele>
        <time>2013-03-03T12:35:11.000Z</time>
      </trkpt>
      <trkpt lat="45.11229" lon="5.59919">
        <ele>1291</ele>
        <time>2013-03-03T12:35:13.000Z</time>
      </trkpt>
      <trkpt lat="45.11233" lon="5.59917">
        <ele>1290</ele>
        <time>2013-03-03T12:35:14.000Z</time>
      </trkpt>
      <trkpt lat="45.11238" lon="5.59914">
        <ele>1292</ele>
        <time>2013-03-03T12:35:18.000Z</time>
      </trkpt>
      <trkpt lat="45.11244" lon="5.59915">
        <ele>1289</ele>
        <time>2013-03-03T12:35:20.000Z</time>
      </trkpt>
      <trkpt lat="45.11248" lon="5.59922">
        <ele>1287</ele>
        <time>2013-03-03T12:35:21.000Z</time>
      </trkpt>
      <trkpt lat="45.11252" lon="5.59927">
        <ele>1280</ele>
        <time>2013-03-03T12:35:22.000Z</time>
      </trkpt>
      <trkpt lat="45.11256" lon="5.5993">
        <ele>1278</ele>
        <time>2013-03-03T12:35:23.000Z</time>
      </trkpt>
      <trkpt lat="45.11261" lon="5.59932">
        <ele>1277</ele>
        <time>2013-03-03T12:35:25.000Z</time>
      </trkpt>
      <trkpt lat="45.11266" lon="5.59936">
        <ele>1275</ele>
        <time>2013-03-03T12:35:27.000Z</time>
      </trkpt>
      <trkpt lat="45.11275" lon="5.59937">
        <ele>1273</ele>
        <time>2013-03-03T12:35:29.000Z</time>
      </trkpt>
      <trkpt lat="45.11284" lon="5.59937">
        <ele>1272</ele>
        <time>2013-03-03T12:35:31.000Z</time>
      </trkpt>
      <trkpt lat="45.11293" lon="5.59935">
        <ele>1270</ele>
        <time>2013-03-03T12:35:33.000Z</time>
      </trkpt>
      <trkpt lat="45.11302" lon="5.59932">
        <ele>1269</ele>
        <time>2013-03-03T12:35:35.000Z</time>
      </trkpt>
      <trkpt lat="45.11307" lon="5.59934">
        <ele>1269</ele>
        <time>2013-03-03T12:35:37.000Z</time>
      </trkpt>
      <trkpt lat="45.11312" lon="5.59935">
        <ele>1268</ele>
        <time>2013-03-03T12:35:41.000Z</time>
      </trkpt>
      <trkpt lat="45.11317" lon="5.59936">
        <ele>1268</ele>
        <time>2013-03-03T12:35:45.000Z</time>
      </trkpt>
      <trkpt lat="45.11322" lon="5.59932">
        <ele>1268</ele>
        <time>2013-03-03T12:35:49.000Z</time>
      </trkpt>
      <trkpt lat="45.11326" lon="5.5993">
        <ele>1267</ele>
        <time>2013-03-03T12:35:53.000Z</time>
      </trkpt>
      <trkpt lat="45.1133" lon="5.59927">
        <ele>1267</ele>
        <time>2013-03-03T12:35:56.000Z</time>
      </trkpt>
      <trkpt lat="45.11334" lon="5.59925">
        <ele>1263</ele>
        <time>2013-03-03T12:35:58.000Z</time>
      </trkpt>
      <trkpt lat="45.1134" lon="5.59924">
        <ele>1262</ele>
        <time>2013-03-03T12:36:01.000Z</time>
      </trkpt>
      <trkpt lat="45.11346" lon="5.59923">
        <ele>1261</ele>
        <time>2013-03-03T12:36:05.000Z</time>
      </trkpt>
      <trkpt lat="45.1135" lon="5.59922">
        <ele>1260</ele>
        <time>2013-03-03T12:36:09.000Z</time>
      </trkpt>
      <trkpt lat="45.11355" lon="5.59922">
        <ele>1258</ele>
        <time>2013-03-03T12:36:13.000Z</time>
      </trkpt>
      <trkpt lat="45.1136" lon="5.5992">
        <ele>1258</ele>
        <time>2013-03-03T12:36:37.000Z</time>
      </trkpt>
      <trkpt lat="45.11366" lon="5.59922">
        <ele>1257</ele>
        <time>2013-03-03T12:36:42.000Z</time>
      </trkpt>
      <trkpt lat="45.11371" lon="5.59922">
        <ele>1256</ele>
        <time>2013-03-03T12:36:48.000Z</time>
      </trkpt>
      <trkpt lat="45.11378" lon="5.59922">
        <ele>1255</ele>
        <time>2013-03-03T12:36:51.000Z</time>
      </trkpt>
      <trkpt lat="45.11384" lon="5.59921">
        <ele>1255</ele>
        <time>2013-03-03T12:36:53.000Z</time>
      </trkpt>
      <trkpt lat="45.1139" lon="5.59921">
        <ele>1255</ele>
        <time>2013-03-03T12:36:55.000Z</time>
      </trkpt>
      <trkpt lat="45.11398" lon="5.59921">
        <ele>1256</ele>
        <time>2013-03-03T12:36:57.000Z</time>
      </trkpt>
      <trkpt lat="45.11406" lon="5.59921">
        <ele>1257</ele>
        <time>2013-03-03T12:36:59.000Z</time>
      </trkpt>
      <trkpt lat="45.11412" lon="5.59921">
        <ele>1259</ele>
        <time>2013-03-03T12:37:02.000Z</time>
      </trkpt>
      <trkpt lat="45.11418" lon="5.59919">
        <ele>1259</ele>
        <time>2013-03-03T12:37:06.000Z</time>
      </trkpt>
      <trkpt lat="45.11423" lon="5.59919">
        <ele>1256</ele>
        <time>2013-03-03T12:37:11.000Z</time>
      </trkpt>
      <trkpt lat="45.1143" lon="5.59912">
        <ele>1259</ele>
        <time>2013-03-03T12:37:18.000Z</time>
      </trkpt>
      <trkpt lat="45.11435" lon="5.59908">
        <ele>1258</ele>
        <time>2013-03-03T12:37:21.000Z</time>
      </trkpt>
      <trkpt lat="45.1144" lon="5.59905">
        <ele>1257</ele>
        <time>2013-03-03T12:37:25.000Z</time>
      </trkpt>
      <trkpt lat="45.11444" lon="5.59904">
        <ele>1257</ele>
        <time>2013-03-03T12:37:29.000Z</time>
      </trkpt>
      <trkpt lat="45.11449" lon="5.59901">
        <ele>1257</ele>
        <time>2013-03-03T12:37:35.000Z</time>
      </trkpt>
      <trkpt lat="45.11454" lon="5.59899">
        <ele>1256</ele>
        <time>2013-03-03T12:37:38.000Z</time>
      </trkpt>
      <trkpt lat="45.11458" lon="5.59898">
        <ele>1256</ele>
        <time>2013-03-03T12:37:41.000Z</time>
      </trkpt>
      <trkpt lat="45.11463" lon="5.59897">
        <ele>1256</ele>
        <time>2013-03-03T12:37:45.000Z</time>
      </trkpt>
      <trkpt lat="45.11468" lon="5.59897">
        <ele>1256</ele>
        <time>2013-03-03T12:37:51.000Z</time>
      </trkpt>
      <trkpt lat="45.11472" lon="5.59893">
        <ele>1256</ele>
        <time>2013-03-03T12:40:53.000Z</time>
      </trkpt>
      <trkpt lat="45.11472" lon="5.59893">
        <ele>1256</ele>
        <time>2013-03-03T12:40:53.000Z</time>
      </trkpt>
      <trkpt lat="45.11472" lon="5.59893">
        <ele>1256</ele>
        <time>2013-03-03T12:41:11.000Z</time>
      </trkpt>
      <trkpt lat="45.11477" lon="5.59891">
        <ele>1256</ele>
        <time>2013-03-03T12:45:53.000Z</time>
      </trkpt>
      <trkpt lat="45.11477" lon="5.59891">
        <ele>1256</ele>
        <time>2013-03-03T12:45:53.000Z</time>
      </trkpt>
      <trkpt lat="45.11477" lon="5.59891">
        <ele>1256</ele>
        <time>2013-03-03T12:46:03.000Z</time>
      </trkpt>
      <trkpt lat="45.11481" lon="5.59889">
        <ele>1255</ele>
        <time>2013-03-03T12:46:36.000Z</time>
      </trkpt>
      <trkpt lat="45.11485" lon="5.59886">
        <ele>1255</ele>
        <time>2013-03-03T12:46:41.000Z</time>
      </trkpt>
      <trkpt lat="45.1149" lon="5.59884">
        <ele>1255</ele>
        <time>2013-03-03T12:46:47.000Z</time>
      </trkpt>
      <trkpt lat="45.11494" lon="5.59882">
        <ele>1255</ele>
        <time>2013-03-03T12:46:52.000Z</time>
      </trkpt>
      <trkpt lat="45.115" lon="5.5988">
        <ele>1256</ele>
        <time>2013-03-03T12:46:58.000Z</time>
      </trkpt>
      <trkpt lat="45.11504" lon="5.59878">
        <ele>1256</ele>
        <time>2013-03-03T12:47:04.000Z</time>
      </trkpt>
      <trkpt lat="45.11509" lon="5.59876">
        <ele>1256</ele>
        <time>2013-03-03T12:47:07.000Z</time>
      </trkpt>
      <trkpt lat="45.11515" lon="5.59874">
        <ele>1256</ele>
        <time>2013-03-03T12:47:11.000Z</time>
      </trkpt>
      <trkpt lat="45.11521" lon="5.59873">
        <ele>1256</ele>
        <time>2013-03-03T12:47:18.000Z</time>
      </trkpt>
      <trkpt lat="45.11526" lon="5.59874">
        <ele>1257</ele>
        <time>2013-03-03T12:47:24.000Z</time>
      </trkpt>
      <trkpt lat="45.11531" lon="5.59875">
        <ele>1257</ele>
        <time>2013-03-03T12:47:30.000Z</time>
      </trkpt>
      <trkpt lat="45.11537" lon="5.59876">
        <ele>1257</ele>
        <time>2013-03-03T12:47:35.000Z</time>
      </trkpt>
      <trkpt lat="45.11542" lon="5.59876">
        <ele>1257</ele>
        <time>2013-03-03T12:47:40.000Z</time>
      </trkpt>
      <trkpt lat="45.11547" lon="5.59875">
        <ele>1257</ele>
        <time>2013-03-03T12:47:44.000Z</time>
      </trkpt>
      <trkpt lat="45.11552" lon="5.59873">
        <ele>1257</ele>
        <time>2013-03-03T12:47:48.000Z</time>
      </trkpt>
      <trkpt lat="45.11556" lon="5.59871">
        <ele>1258</ele>
        <time>2013-03-03T12:47:53.000Z</time>
      </trkpt>
      <trkpt lat="45.11562" lon="5.59872">
        <ele>1258</ele>
        <time>2013-03-03T12:47:58.000Z</time>
      </trkpt>
      <trkpt lat="45.11567" lon="5.59871">
        <ele>1258</ele>
        <time>2013-03-03T12:48:03.000Z</time>
      </trkpt>
      <trkpt lat="45.11572" lon="5.5987">
        <ele>1258</ele>
        <time>2013-03-03T12:48:08.000Z</time>
      </trkpt>
      <trkpt lat="45.11577" lon="5.59869">
        <ele>1258</ele>
        <time>2013-03-03T12:48:14.000Z</time>
      </trkpt>
      <trkpt lat="45.11582" lon="5.59868">
        <ele>1259</ele>
        <time>2013-03-03T12:48:22.000Z</time>
      </trkpt>
      <trkpt lat="45.11587" lon="5.59868">
        <ele>1263</ele>
        <time>2013-03-03T12:48:33.000Z</time>
      </trkpt>
      <trkpt lat="45.11592" lon="5.59869">
        <ele>1263</ele>
        <time>2013-03-03T12:48:41.000Z</time>
      </trkpt>
      <trkpt lat="45.11597" lon="5.59869">
        <ele>1263</ele>
        <time>2013-03-03T12:48:47.000Z</time>
      </trkpt>
      <trkpt lat="45.11602" lon="5.59869">
        <ele>1264</ele>
        <time>2013-03-03T12:48:53.000Z</time>
      </trkpt>
      <trkpt lat="45.11607" lon="5.59868">
        <ele>1264</ele>
        <time>2013-03-03T12:48:59.000Z</time>
      </trkpt>
      <trkpt lat="45.11612" lon="5.59868">
        <ele>1264</ele>
        <time>2013-03-03T12:49:05.000Z</time>
      </trkpt>
      <trkpt lat="45.11617" lon="5.59866">
        <ele>1265</ele>
        <time>2013-03-03T12:49:11.000Z</time>
      </trkpt>
      <trkpt lat="45.11621" lon="5.59864">
        <ele>1265</ele>
        <time>2013-03-03T12:49:17.000Z</time>
      </trkpt>
      <trkpt lat="45.11626" lon="5.59863">
        <ele>1265</ele>
        <time>2013-03-03T12:49:22.000Z</time>
      </trkpt>
      <trkpt lat="45.1163" lon="5.59861">
        <ele>1266</ele>
        <time>2013-03-03T12:49:28.000Z</time>
      </trkpt>
      <trkpt lat="45.11635" lon="5.59858">
        <ele>1267</ele>
        <time>2013-03-03T12:49:34.000Z</time>
      </trkpt>
      <trkpt lat="45.11639" lon="5.59856">
        <ele>1267</ele>
        <time>2013-03-03T12:49:40.000Z</time>
      </trkpt>
      <trkpt lat="45.11643" lon="5.59853">
        <ele>1268</ele>
        <time>2013-03-03T12:49:58.000Z</time>
      </trkpt>
      <trkpt lat="45.11648" lon="5.5985">
        <ele>1269</ele>
        <time>2013-03-03T12:50:05.000Z</time>
      </trkpt>
      <trkpt lat="45.11654" lon="5.59849">
        <ele>1270</ele>
        <time>2013-03-03T12:50:11.000Z</time>
      </trkpt>
      <trkpt lat="45.11658" lon="5.59848">
        <ele>1271</ele>
        <time>2013-03-03T12:50:18.000Z</time>
      </trkpt>
      <trkpt lat="45.11663" lon="5.59846">
        <ele>1272</ele>
        <time>2013-03-03T12:50:24.000Z</time>
      </trkpt>
      <trkpt lat="45.11668" lon="5.59845">
        <ele>1276</ele>
        <time>2013-03-03T12:50:30.000Z</time>
      </trkpt>
      <trkpt lat="45.11672" lon="5.59842">
        <ele>1276</ele>
        <time>2013-03-03T12:50:36.000Z</time>
      </trkpt>
      <trkpt lat="45.11677" lon="5.59841">
        <ele>1276</ele>
        <time>2013-03-03T12:50:42.000Z</time>
      </trkpt>
      <trkpt lat="45.11683" lon="5.59839">
        <ele>1276</ele>
        <time>2013-03-03T12:50:49.000Z</time>
      </trkpt>
      <trkpt lat="45.11687" lon="5.59835">
        <ele>1276</ele>
        <time>2013-03-03T12:50:55.000Z</time>
      </trkpt>
      <trkpt lat="45.11691" lon="5.59832">
        <ele>1282</ele>
        <time>2013-03-03T12:51:01.000Z</time>
      </trkpt>
      <trkpt lat="45.11696" lon="5.59828">
        <ele>1282</ele>
        <time>2013-03-03T12:51:07.000Z</time>
      </trkpt>
      <trkpt lat="45.117" lon="5.59825">
        <ele>1283</ele>
        <time>2013-03-03T12:51:15.000Z</time>
      </trkpt>
      <trkpt lat="45.11704" lon="5.59822">
        <ele>1283</ele>
        <time>2013-03-03T12:51:21.000Z</time>
      </trkpt>
      <trkpt lat="45.11709" lon="5.59822">
        <ele>1283</ele>
        <time>2013-03-03T12:51:27.000Z</time>
      </trkpt>
      <trkpt lat="45.11714" lon="5.5982">
        <ele>1284</ele>
        <time>2013-03-03T12:51:34.000Z</time>
      </trkpt>
      <trkpt lat="45.11718" lon="5.59822">
        <ele>1284</ele>
        <time>2013-03-03T12:51:41.000Z</time>
      </trkpt>
      <trkpt lat="45.11723" lon="5.59824">
        <ele>1284</ele>
        <time>2013-03-03T12:51:46.000Z</time>
      </trkpt>
      <trkpt lat="45.11729" lon="5.59826">
        <ele>1285</ele>
        <time>2013-03-03T12:51:51.000Z</time>
      </trkpt>
      <trkpt lat="45.11733" lon="5.59827">
        <ele>1285</ele>
        <time>2013-03-03T12:51:55.000Z</time>
      </trkpt>
      <trkpt lat="45.11738" lon="5.59829">
        <ele>1286</ele>
        <time>2013-03-03T12:52:01.000Z</time>
      </trkpt>
      <trkpt lat="45.11743" lon="5.59831">
        <ele>1286</ele>
        <time>2013-03-03T12:52:06.000Z</time>
      </trkpt>
      <trkpt lat="45.11748" lon="5.59833">
        <ele>1287</ele>
        <time>2013-03-03T12:52:11.000Z</time>
      </trkpt>
      <trkpt lat="45.11753" lon="5.59834">
        <ele>1286</ele>
        <time>2013-03-03T12:52:16.000Z</time>
      </trkpt>
      <trkpt lat="45.11758" lon="5.59833">
        <ele>1288</ele>
        <time>2013-03-03T12:52:21.000Z</time>
      </trkpt>
      <trkpt lat="45.11762" lon="5.59835">
        <ele>1284</ele>
        <time>2013-03-03T12:52:25.000Z</time>
      </trkpt>
      <trkpt lat="45.11767" lon="5.59835">
        <ele>1283</ele>
        <time>2013-03-03T12:52:30.000Z</time>
      </trkpt>
      <trkpt lat="45.11772" lon="5.59833">
        <ele>1288</ele>
        <time>2013-03-03T12:52:38.000Z</time>
      </trkpt>
      <trkpt lat="45.11776" lon="5.59831">
        <ele>1289</ele>
        <time>2013-03-03T12:52:43.000Z</time>
      </trkpt>
      <trkpt lat="45.1178" lon="5.59826">
        <ele>1289</ele>
        <time>2013-03-03T12:52:48.000Z</time>
      </trkpt>
      <trkpt lat="45.11784" lon="5.59822">
        <ele>1289</ele>
        <time>2013-03-03T12:52:52.000Z</time>
      </trkpt>
      <trkpt lat="45.11789" lon="5.59822">
        <ele>1289</ele>
        <time>2013-03-03T12:52:55.000Z</time>
      </trkpt>
      <trkpt lat="45.11793" lon="5.59815">
        <ele>1289</ele>
        <time>2013-03-03T12:52:58.000Z</time>
      </trkpt>
      <trkpt lat="45.11796" lon="5.5981">
        <ele>1289</ele>
        <time>2013-03-03T12:53:02.000Z</time>
      </trkpt>
      <trkpt lat="45.11801" lon="5.59806">
        <ele>1290</ele>
        <time>2013-03-03T12:53:06.000Z</time>
      </trkpt>
      <trkpt lat="45.11806" lon="5.59803">
        <ele>1290</ele>
        <time>2013-03-03T12:53:10.000Z</time>
      </trkpt>
      <trkpt lat="45.11809" lon="5.59796">
        <ele>1290</ele>
        <time>2013-03-03T12:53:14.000Z</time>
      </trkpt>
      <trkpt lat="45.11812" lon="5.59792">
        <ele>1290</ele>
        <time>2013-03-03T12:53:21.000Z</time>
      </trkpt>
      <trkpt lat="45.11816" lon="5.59787">
        <ele>1290</ele>
        <time>2013-03-03T12:53:29.000Z</time>
      </trkpt>
      <trkpt lat="45.11819" lon="5.59781">
        <ele>1290</ele>
        <time>2013-03-03T12:53:38.000Z</time>
      </trkpt>
      <trkpt lat="45.11819" lon="5.59781">
        <ele>1290</ele>
        <time>2013-03-03T12:53:38.000Z</time>
      </trkpt>
      <trkpt lat="45.11819" lon="5.59781">
        <ele>1290</ele>
        <time>2013-03-03T12:53:39.000Z</time>
      </trkpt>
      <trkpt lat="45.11824" lon="5.59778">
        <ele>1290</ele>
        <time>2013-03-03T12:53:42.000Z</time>
      </trkpt>
      <trkpt lat="45.11823" lon="5.5977">
        <ele>1291</ele>
        <time>2013-03-03T12:53:49.000Z</time>
      </trkpt>
      <trkpt lat="45.11828" lon="5.59766">
        <ele>1291</ele>
        <time>2013-03-03T12:53:55.000Z</time>
      </trkpt>
      <trkpt lat="45.11832" lon="5.59764">
        <ele>1291</ele>
        <time>2013-03-03T12:54:01.000Z</time>
      </trkpt>
      <trkpt lat="45.11836" lon="5.59759">
        <ele>1290</ele>
        <time>2013-03-03T12:54:05.000Z</time>
      </trkpt>
      <trkpt lat="45.11836" lon="5.59759">
        <ele>1290</ele>
        <time>2013-03-03T12:54:05.000Z</time>
      </trkpt>
      <trkpt lat="45.11836" lon="5.59759">
        <ele>1290</ele>
        <time>2013-03-03T12:54:06.000Z</time>
      </trkpt>
      <trkpt lat="45.11839" lon="5.59754">
        <ele>1290</ele>
        <time>2013-03-03T12:56:30.000Z</time>
      </trkpt>
      <trkpt lat="45.11839" lon="5.59754">
        <ele>1290</ele>
        <time>2013-03-03T12:56:30.000Z</time>
      </trkpt>
      <trkpt lat="45.11839" lon="5.59754">
        <ele>1290</ele>
        <time>2013-03-03T12:58:11.000Z</time>
      </trkpt>
      <trkpt lat="45.11843" lon="5.5975">
        <ele>1289</ele>
        <time>2013-03-03T12:58:13.000Z</time>
      </trkpt>
      <trkpt lat="45.11848" lon="5.59743">
        <ele>1285</ele>
        <time>2013-03-03T12:58:15.000Z</time>
      </trkpt>
      <trkpt lat="45.11852" lon="5.59726">
        <ele>1281</ele>
        <time>2013-03-03T12:58:18.000Z</time>
      </trkpt>
      <trkpt lat="45.11854" lon="5.59718">
        <ele>1280</ele>
        <time>2013-03-03T12:58:20.000Z</time>
      </trkpt>
      <trkpt lat="45.11861" lon="5.59715">
        <ele>1279</ele>
        <time>2013-03-03T12:58:22.000Z</time>
      </trkpt>
      <trkpt lat="45.11868" lon="5.59716">
        <ele>1278</ele>
        <time>2013-03-03T12:58:24.000Z</time>
      </trkpt>
      <trkpt lat="45.1187" lon="5.59704">
        <ele>1277</ele>
        <time>2013-03-03T12:58:26.000Z</time>
      </trkpt>
      <trkpt lat="45.11869" lon="5.59693">
        <ele>1276</ele>
        <time>2013-03-03T12:58:28.000Z</time>
      </trkpt>
      <trkpt lat="45.11868" lon="5.59684">
        <ele>1276</ele>
        <time>2013-03-03T12:58:30.000Z</time>
      </trkpt>
      <trkpt lat="45.11873" lon="5.5968">
        <ele>1275</ele>
        <time>2013-03-03T12:58:32.000Z</time>
      </trkpt>
      <trkpt lat="45.1188" lon="5.59683">
        <ele>1274</ele>
        <time>2013-03-03T12:58:34.000Z</time>
      </trkpt>
      <trkpt lat="45.11886" lon="5.59679">
        <ele>1272</ele>
        <time>2013-03-03T12:58:36.000Z</time>
      </trkpt>
      <trkpt lat="45.1189" lon="5.59669">
        <ele>1271</ele>
        <time>2013-03-03T12:58:38.000Z</time>
      </trkpt>
      <trkpt lat="45.11896" lon="5.59661">
        <ele>1261</ele>
        <time>2013-03-03T12:58:40.000Z</time>
      </trkpt>
      <trkpt lat="45.11898" lon="5.59654">
        <ele>1260</ele>
        <time>2013-03-03T12:58:41.000Z</time>
      </trkpt>
      <trkpt lat="45.11905" lon="5.5965">
        <ele>1260</ele>
        <time>2013-03-03T12:58:43.000Z</time>
      </trkpt>
      <trkpt lat="45.11911" lon="5.59643">
        <ele>1259</ele>
        <time>2013-03-03T12:58:45.000Z</time>
      </trkpt>
      <trkpt lat="45.11912" lon="5.59637">
        <ele>1258</ele>
        <time>2013-03-03T12:58:46.000Z</time>
      </trkpt>
      <trkpt lat="45.11919" lon="5.5963">
        <ele>1243</ele>
        <time>2013-03-03T12:58:48.000Z</time>
      </trkpt>
      <trkpt lat="45.11923" lon="5.59626">
        <ele>1242</ele>
        <time>2013-03-03T12:58:49.000Z</time>
      </trkpt>
      <trkpt lat="45.11925" lon="5.59619">
        <ele>1241</ele>
        <time>2013-03-03T12:58:50.000Z</time>
      </trkpt>
      <trkpt lat="45.11925" lon="5.59611">
        <ele>1241</ele>
        <time>2013-03-03T12:58:52.000Z</time>
      </trkpt>
      <trkpt lat="45.11932" lon="5.59609">
        <ele>1240</ele>
        <time>2013-03-03T12:58:54.000Z</time>
      </trkpt>
      <trkpt lat="45.11937" lon="5.59609">
        <ele>1239</ele>
        <time>2013-03-03T12:58:56.000Z</time>
      </trkpt>
      <trkpt lat="45.11941" lon="5.59597">
        <ele>1238</ele>
        <time>2013-03-03T12:58:58.000Z</time>
      </trkpt>
      <trkpt lat="45.11948" lon="5.59592">
        <ele>1237</ele>
        <time>2013-03-03T12:59:00.000Z</time>
      </trkpt>
      <trkpt lat="45.11952" lon="5.59588">
        <ele>1236</ele>
        <time>2013-03-03T12:59:01.000Z</time>
      </trkpt>
      <trkpt lat="45.11954" lon="5.59581">
        <ele>1223</ele>
        <time>2013-03-03T12:59:02.000Z</time>
      </trkpt>
      <trkpt lat="45.11954" lon="5.59574">
        <ele>1222</ele>
        <time>2013-03-03T12:59:03.000Z</time>
      </trkpt>
      <trkpt lat="45.11962" lon="5.59569">
        <ele>1220</ele>
        <time>2013-03-03T12:59:05.000Z</time>
      </trkpt>
      <trkpt lat="45.11967" lon="5.59569">
        <ele>1219</ele>
        <time>2013-03-03T12:59:06.000Z</time>
      </trkpt>
      <trkpt lat="45.11971" lon="5.59564">
        <ele>1218</ele>
        <time>2013-03-03T12:59:07.000Z</time>
      </trkpt>
      <trkpt lat="45.11973" lon="5.59558">
        <ele>1217</ele>
        <time>2013-03-03T12:59:08.000Z</time>
      </trkpt>
      <trkpt lat="45.11973" lon="5.59551">
        <ele>1217</ele>
        <time>2013-03-03T12:59:09.000Z</time>
      </trkpt>
      <trkpt lat="45.11976" lon="5.59541">
        <ele>1215</ele>
        <time>2013-03-03T12:59:11.000Z</time>
      </trkpt>
      <trkpt lat="45.11981" lon="5.59542">
        <ele>1214</ele>
        <time>2013-03-03T12:59:12.000Z</time>
      </trkpt>
      <trkpt lat="45.11986" lon="5.59545">
        <ele>1214</ele>
        <time>2013-03-03T12:59:13.000Z</time>
      </trkpt>
      <trkpt lat="45.1199" lon="5.59547">
        <ele>1214</ele>
        <time>2013-03-03T12:59:14.000Z</time>
      </trkpt>
      <trkpt lat="45.11996" lon="5.5954">
        <ele>1213</ele>
        <time>2013-03-03T12:59:16.000Z</time>
      </trkpt>
      <trkpt lat="45.11995" lon="5.59526">
        <ele>1209</ele>
        <time>2013-03-03T12:59:18.000Z</time>
      </trkpt>
      <trkpt lat="45.11994" lon="5.5952">
        <ele>1207</ele>
        <time>2013-03-03T12:59:19.000Z</time>
      </trkpt>
      <trkpt lat="45.11995" lon="5.59514">
        <ele>1204</ele>
        <time>2013-03-03T12:59:20.000Z</time>
      </trkpt>
      <trkpt lat="45.12001" lon="5.59504">
        <ele>1194</ele>
        <time>2013-03-03T12:59:22.000Z</time>
      </trkpt>
      <trkpt lat="45.12001" lon="5.59498">
        <ele>1192</ele>
        <time>2013-03-03T12:59:23.000Z</time>
      </trkpt>
      <trkpt lat="45.12" lon="5.59488">
        <ele>1192</ele>
        <time>2013-03-03T12:59:25.000Z</time>
      </trkpt>
      <trkpt lat="45.12004" lon="5.59484">
        <ele>1181</ele>
        <time>2013-03-03T12:59:27.000Z</time>
      </trkpt>
      <trkpt lat="45.12014" lon="5.59487">
        <ele>1180</ele>
        <time>2013-03-03T12:59:29.000Z</time>
      </trkpt>
      <trkpt lat="45.1202" lon="5.59481">
        <ele>1176</ele>
        <time>2013-03-03T12:59:31.000Z</time>
      </trkpt>
      <trkpt lat="45.12018" lon="5.59474">
        <ele>1175</ele>
        <time>2013-03-03T12:59:33.000Z</time>
      </trkpt>
      <trkpt lat="45.12016" lon="5.59467">
        <ele>1173</ele>
        <time>2013-03-03T12:59:38.000Z</time>
      </trkpt>
      <trkpt lat="45.12016" lon="5.5946">
        <ele>1171</ele>
        <time>2013-03-03T12:59:40.000Z</time>
      </trkpt>
      <trkpt lat="45.12021" lon="5.59454">
        <ele>1169</ele>
        <time>2013-03-03T12:59:42.000Z</time>
      </trkpt>
      <trkpt lat="45.12029" lon="5.59453">
        <ele>1168</ele>
        <time>2013-03-03T12:59:44.000Z</time>
      </trkpt>
      <trkpt lat="45.12035" lon="5.59456">
        <ele>1168</ele>
        <time>2013-03-03T12:59:46.000Z</time>
      </trkpt>
      <trkpt lat="45.12036" lon="5.59449">
        <ele>1167</ele>
        <time>2013-03-03T13:00:04.000Z</time>
      </trkpt>
      <trkpt lat="45.12033" lon="5.59442">
        <ele>1166</ele>
        <time>2013-03-03T13:00:06.000Z</time>
      </trkpt>
      <trkpt lat="45.1203" lon="5.59436">
        <ele>1166</ele>
        <time>2013-03-03T13:00:08.000Z</time>
      </trkpt>
      <trkpt lat="45.12025" lon="5.5943">
        <ele>1165</ele>
        <time>2013-03-03T13:00:11.000Z</time>
      </trkpt>
      <trkpt lat="45.12025" lon="5.59423">
        <ele>1165</ele>
        <time>2013-03-03T13:00:13.000Z</time>
      </trkpt>
      <trkpt lat="45.12031" lon="5.59415">
        <ele>1147</ele>
        <time>2013-03-03T13:00:15.000Z</time>
      </trkpt>
      <trkpt lat="45.12023" lon="5.59405">
        <ele>1148</ele>
        <time>2013-03-03T13:00:18.000Z</time>
      </trkpt>
      <trkpt lat="45.12028" lon="5.59397">
        <ele>1145</ele>
        <time>2013-03-03T13:00:20.000Z</time>
      </trkpt>
      <trkpt lat="45.12035" lon="5.59397">
        <ele>1143</ele>
        <time>2013-03-03T13:00:22.000Z</time>
      </trkpt>
      <trkpt lat="45.1204" lon="5.594">
        <ele>1143</ele>
        <time>2013-03-03T13:00:24.000Z</time>
      </trkpt>
      <trkpt lat="45.12044" lon="5.59396">
        <ele>1142</ele>
        <time>2013-03-03T13:00:27.000Z</time>
      </trkpt>
      <trkpt lat="45.12041" lon="5.59389">
        <ele>1141</ele>
        <time>2013-03-03T13:00:29.000Z</time>
      </trkpt>
      <trkpt lat="45.1204" lon="5.59382">
        <ele>1140</ele>
        <time>2013-03-03T13:00:43.000Z</time>
      </trkpt>
      <trkpt lat="45.12036" lon="5.59377">
        <ele>1139</ele>
        <time>2013-03-03T13:00:46.000Z</time>
      </trkpt>
      <trkpt lat="45.12032" lon="5.59374">
        <ele>1139</ele>
        <time>2013-03-03T13:00:49.000Z</time>
      </trkpt>
      <trkpt lat="45.12028" lon="5.5937">
        <ele>1139</ele>
        <time>2013-03-03T13:00:52.000Z</time>
      </trkpt>
      <trkpt lat="45.12024" lon="5.59366">
        <ele>1138</ele>
        <time>2013-03-03T13:00:54.000Z</time>
      </trkpt>
      <trkpt lat="45.1202" lon="5.59363">
        <ele>1138</ele>
        <time>2013-03-03T13:00:56.000Z</time>
      </trkpt>
      <trkpt lat="45.12016" lon="5.59359">
        <ele>1137</ele>
        <time>2013-03-03T13:00:58.000Z</time>
      </trkpt>
      <trkpt lat="45.1202" lon="5.59354">
        <ele>1136</ele>
        <time>2013-03-03T13:01:00.000Z</time>
      </trkpt>
      <trkpt lat="45.12024" lon="5.59353">
        <ele>1136</ele>
        <time>2013-03-03T13:01:01.000Z</time>
      </trkpt>
      <trkpt lat="45.1203" lon="5.59353">
        <ele>1136</ele>
        <time>2013-03-03T13:01:02.000Z</time>
      </trkpt>
      <trkpt lat="45.12035" lon="5.59354">
        <ele>1135</ele>
        <time>2013-03-03T13:01:03.000Z</time>
      </trkpt>
      <trkpt lat="45.1204" lon="5.59355">
        <ele>1135</ele>
        <time>2013-03-03T13:01:04.000Z</time>
      </trkpt>
      <trkpt lat="45.12045" lon="5.59356">
        <ele>1135</ele>
        <time>2013-03-03T13:01:05.000Z</time>
      </trkpt>
      <trkpt lat="45.12051" lon="5.59358">
        <ele>1135</ele>
        <time>2013-03-03T13:01:07.000Z</time>
      </trkpt>
      <trkpt lat="45.1205" lon="5.59349">
        <ele>1133</ele>
        <time>2013-03-03T13:01:09.000Z</time>
      </trkpt>
      <trkpt lat="45.12046" lon="5.59345">
        <ele>1133</ele>
        <time>2013-03-03T13:01:11.000Z</time>
      </trkpt>
      <trkpt lat="45.12042" lon="5.5934">
        <ele>1133</ele>
        <time>2013-03-03T13:01:13.000Z</time>
      </trkpt>
      <trkpt lat="45.12038" lon="5.59333">
        <ele>1117</ele>
        <time>2013-03-03T13:01:15.000Z</time>
      </trkpt>
      <trkpt lat="45.12042" lon="5.5932">
        <ele>1116</ele>
        <time>2013-03-03T13:01:18.000Z</time>
      </trkpt>
      <trkpt lat="45.12048" lon="5.59319">
        <ele>1115</ele>
        <time>2013-03-03T13:01:19.000Z</time>
      </trkpt>
      <trkpt lat="45.12053" lon="5.59319">
        <ele>1115</ele>
        <time>2013-03-03T13:01:20.000Z</time>
      </trkpt>
      <trkpt lat="45.12059" lon="5.5932">
        <ele>1115</ele>
        <time>2013-03-03T13:01:21.000Z</time>
      </trkpt>
      <trkpt lat="45.12064" lon="5.59322">
        <ele>1115</ele>
        <time>2013-03-03T13:01:22.000Z</time>
      </trkpt>
      <trkpt lat="45.12073" lon="5.59323">
        <ele>1116</ele>
        <time>2013-03-03T13:01:24.000Z</time>
      </trkpt>
      <trkpt lat="45.12074" lon="5.59312">
        <ele>1114</ele>
        <time>2013-03-03T13:01:26.000Z</time>
      </trkpt>
      <trkpt lat="45.12074" lon="5.593">
        <ele>1112</ele>
        <time>2013-03-03T13:01:28.000Z</time>
      </trkpt>
      <trkpt lat="45.12078" lon="5.59295">
        <ele>1111</ele>
        <time>2013-03-03T13:01:29.000Z</time>
      </trkpt>
      <trkpt lat="45.12084" lon="5.59293">
        <ele>1099</ele>
        <time>2013-03-03T13:01:30.000Z</time>
      </trkpt>
      <trkpt lat="45.12089" lon="5.59294">
        <ele>1099</ele>
        <time>2013-03-03T13:01:31.000Z</time>
      </trkpt>
      <trkpt lat="45.12094" lon="5.59294">
        <ele>1099</ele>
        <time>2013-03-03T13:01:32.000Z</time>
      </trkpt>
      <trkpt lat="45.12097" lon="5.59284">
        <ele>1097</ele>
        <time>2013-03-03T13:01:34.000Z</time>
      </trkpt>
      <trkpt lat="45.12096" lon="5.59273">
        <ele>1096</ele>
        <time>2013-03-03T13:01:36.000Z</time>
      </trkpt>
      <trkpt lat="45.12094" lon="5.59262">
        <ele>1096</ele>
        <time>2013-03-03T13:01:38.000Z</time>
      </trkpt>
      <trkpt lat="45.12094" lon="5.59251">
        <ele>1096</ele>
        <time>2013-03-03T13:01:40.000Z</time>
      </trkpt>
      <trkpt lat="45.12098" lon="5.59243">
        <ele>1087</ele>
        <time>2013-03-03T13:01:42.000Z</time>
      </trkpt>
      <trkpt lat="45.12107" lon="5.5924">
        <ele>1083</ele>
        <time>2013-03-03T13:01:44.000Z</time>
      </trkpt>
      <trkpt lat="45.12111" lon="5.59234">
        <ele>1081</ele>
        <time>2013-03-03T13:01:45.000Z</time>
      </trkpt>
      <trkpt lat="45.12112" lon="5.59226">
        <ele>1080</ele>
        <time>2013-03-03T13:01:46.000Z</time>
      </trkpt>
      <trkpt lat="45.12114" lon="5.59218">
        <ele>1078</ele>
        <time>2013-03-03T13:01:47.000Z</time>
      </trkpt>
      <trkpt lat="45.12119" lon="5.59218">
        <ele>1078</ele>
        <time>2013-03-03T13:01:48.000Z</time>
      </trkpt>
      <trkpt lat="45.12124" lon="5.59219">
        <ele>1077</ele>
        <time>2013-03-03T13:01:49.000Z</time>
      </trkpt>
      <trkpt lat="45.1213" lon="5.59215">
        <ele>1076</ele>
        <time>2013-03-03T13:01:50.000Z</time>
      </trkpt>
      <trkpt lat="45.12134" lon="5.59208">
        <ele>1075</ele>
        <time>2013-03-03T13:01:51.000Z</time>
      </trkpt>
      <trkpt lat="45.12135" lon="5.59201">
        <ele>1074</ele>
        <time>2013-03-03T13:01:52.000Z</time>
      </trkpt>
      <trkpt lat="45.12136" lon="5.59194">
        <ele>1073</ele>
        <time>2013-03-03T13:01:53.000Z</time>
      </trkpt>
      <trkpt lat="45.12135" lon="5.59182">
        <ele>1073</ele>
        <time>2013-03-03T13:01:55.000Z</time>
      </trkpt>
      <trkpt lat="45.12143" lon="5.59176">
        <ele>1071</ele>
        <time>2013-03-03T13:01:57.000Z</time>
      </trkpt>
      <trkpt lat="45.12148" lon="5.59174">
        <ele>1070</ele>
        <time>2013-03-03T13:01:58.000Z</time>
      </trkpt>
      <trkpt lat="45.12152" lon="5.59169">
        <ele>1068</ele>
        <time>2013-03-03T13:01:59.000Z</time>
      </trkpt>
      <trkpt lat="45.12157" lon="5.59166">
        <ele>1062</ele>
        <time>2013-03-03T13:02:00.000Z</time>
      </trkpt>
      <trkpt lat="45.12162" lon="5.59167">
        <ele>1064</ele>
        <time>2013-03-03T13:02:01.000Z</time>
      </trkpt>
      <trkpt lat="45.12168" lon="5.59171">
        <ele>1060</ele>
        <time>2013-03-03T13:02:02.000Z</time>
      </trkpt>
      <trkpt lat="45.12172" lon="5.59172">
        <ele>1058</ele>
        <time>2013-03-03T13:02:03.000Z</time>
      </trkpt>
      <trkpt lat="45.12177" lon="5.5917">
        <ele>1057</ele>
        <time>2013-03-03T13:02:04.000Z</time>
      </trkpt>
      <trkpt lat="45.12183" lon="5.59166">
        <ele>1052</ele>
        <time>2013-03-03T13:02:05.000Z</time>
      </trkpt>
      <trkpt lat="45.1219" lon="5.59166">
        <ele>1049</ele>
        <time>2013-03-03T13:02:06.000Z</time>
      </trkpt>
      <trkpt lat="45.12195" lon="5.59171">
        <ele>1051</ele>
        <time>2013-03-03T13:02:07.000Z</time>
      </trkpt>
      <trkpt lat="45.12201" lon="5.59176">
        <ele>1049</ele>
        <time>2013-03-03T13:02:08.000Z</time>
      </trkpt>
      <trkpt lat="45.12208" lon="5.59177">
        <ele>1047</ele>
        <time>2013-03-03T13:02:09.000Z</time>
      </trkpt>
      <trkpt lat="45.12214" lon="5.59174">
        <ele>1046</ele>
        <time>2013-03-03T13:02:10.000Z</time>
      </trkpt>
      <trkpt lat="45.12219" lon="5.59166">
        <ele>1040</ele>
        <time>2013-03-03T13:02:11.000Z</time>
      </trkpt>
      <trkpt lat="45.12224" lon="5.59161">
        <ele>1039</ele>
        <time>2013-03-03T13:02:12.000Z</time>
      </trkpt>
      <trkpt lat="45.12229" lon="5.5916">
        <ele>1037</ele>
        <time>2013-03-03T13:02:13.000Z</time>
      </trkpt>
      <trkpt lat="45.12234" lon="5.59164">
        <ele>1036</ele>
        <time>2013-03-03T13:02:14.000Z</time>
      </trkpt>
      <trkpt lat="45.12238" lon="5.5917">
        <ele>1036</ele>
        <time>2013-03-03T13:02:15.000Z</time>
      </trkpt>
      <trkpt lat="45.12242" lon="5.59177">
        <ele>1036</ele>
        <time>2013-03-03T13:02:16.000Z</time>
      </trkpt>
      <trkpt lat="45.12246" lon="5.59185">
        <ele>1038</ele>
        <time>2013-03-03T13:02:17.000Z</time>
      </trkpt>
      <trkpt lat="45.12251" lon="5.59192">
        <ele>1027</ele>
        <time>2013-03-03T13:02:18.000Z</time>
      </trkpt>
      <trkpt lat="45.12259" lon="5.59195">
        <ele>1027</ele>
        <time>2013-03-03T13:02:19.000Z</time>
      </trkpt>
      <trkpt lat="45.12267" lon="5.59199">
        <ele>1027</ele>
        <time>2013-03-03T13:02:20.000Z</time>
      </trkpt>
      <trkpt lat="45.12276" lon="5.59201">
        <ele>1026</ele>
        <time>2013-03-03T13:02:21.000Z</time>
      </trkpt>
      <trkpt lat="45.12284" lon="5.59195">
        <ele>1026</ele>
        <time>2013-03-03T13:02:22.000Z</time>
      </trkpt>
      <trkpt lat="45.12292" lon="5.59188">
        <ele>1025</ele>
        <time>2013-03-03T13:02:23.000Z</time>
      </trkpt>
      <trkpt lat="45.123" lon="5.59183">
        <ele>1023</ele>
        <time>2013-03-03T13:02:24.000Z</time>
      </trkpt>
      <trkpt lat="45.12308" lon="5.59179">
        <ele>1022</ele>
        <time>2013-03-03T13:02:25.000Z</time>
      </trkpt>
      <trkpt lat="45.12316" lon="5.59179">
        <ele>1021</ele>
        <time>2013-03-03T13:02:26.000Z</time>
      </trkpt>
      <trkpt lat="45.12324" lon="5.59182">
        <ele>1020</ele>
        <time>2013-03-03T13:02:27.000Z</time>
      </trkpt>
      <trkpt lat="45.12331" lon="5.59181">
        <ele>1019</ele>
        <time>2013-03-03T13:02:28.000Z</time>
      </trkpt>
      <trkpt lat="45.12336" lon="5.59178">
        <ele>1016</ele>
        <time>2013-03-03T13:02:29.000Z</time>
      </trkpt>
      <trkpt lat="45.12341" lon="5.59172">
        <ele>1016</ele>
        <time>2013-03-03T13:02:30.000Z</time>
      </trkpt>
      <trkpt lat="45.12344" lon="5.59165">
        <ele>1015</ele>
        <time>2013-03-03T13:02:31.000Z</time>
      </trkpt>
      <trkpt lat="45.12349" lon="5.5916">
        <ele>1015</ele>
        <time>2013-03-03T13:02:32.000Z</time>
      </trkpt>
      <trkpt lat="45.12354" lon="5.59156">
        <ele>1015</ele>
        <time>2013-03-03T13:02:33.000Z</time>
      </trkpt>
      <trkpt lat="45.1236" lon="5.59152">
        <ele>1015</ele>
        <time>2013-03-03T13:02:34.000Z</time>
      </trkpt>
      <trkpt lat="45.12365" lon="5.59147">
        <ele>1015</ele>
        <time>2013-03-03T13:02:35.000Z</time>
      </trkpt>
      <trkpt lat="45.12371" lon="5.59144">
        <ele>1015</ele>
        <time>2013-03-03T13:02:36.000Z</time>
      </trkpt>
      <trkpt lat="45.12376" lon="5.59145">
        <ele>1015</ele>
        <time>2013-03-03T13:02:37.000Z</time>
      </trkpt>
      <trkpt lat="45.12381" lon="5.59148">
        <ele>1015</ele>
        <time>2013-03-03T13:02:38.000Z</time>
      </trkpt>
      <trkpt lat="45.12384" lon="5.59153">
        <ele>1015</ele>
        <time>2013-03-03T13:02:39.000Z</time>
      </trkpt>
      <trkpt lat="45.12388" lon="5.59158">
        <ele>1015</ele>
        <time>2013-03-03T13:02:41.000Z</time>
      </trkpt>
      <trkpt lat="45.12391" lon="5.59164">
        <ele>1016</ele>
        <time>2013-03-03T13:02:43.000Z</time>
      </trkpt>
      <trkpt lat="45.12394" lon="5.5917">
        <ele>1017</ele>
        <time>2013-03-03T13:03:07.000Z</time>
      </trkpt>
      <trkpt lat="45.12394" lon="5.5917">
        <ele>1017</ele>
        <time>2013-03-03T13:03:07.000Z</time>
      </trkpt>
      <trkpt lat="45.12394" lon="5.5917">
        <ele>1017</ele>
        <time>2013-03-03T13:03:09.000Z</time>
      </trkpt>
      <trkpt lat="45.12395" lon="5.59176">
        <ele>1017</ele>
        <time>2013-03-03T13:03:47.000Z</time>
      </trkpt>
      <trkpt lat="45.12397" lon="5.59184">
        <ele>1017</ele>
        <time>2013-03-03T13:03:51.000Z</time>
      </trkpt>
      <trkpt lat="45.124" lon="5.5919">
        <ele>1018</ele>
        <time>2013-03-03T13:03:55.000Z</time>
      </trkpt>
      <trkpt lat="45.12401" lon="5.59196">
        <ele>1018</ele>
        <time>2013-03-03T13:04:00.000Z</time>
      </trkpt>
      <trkpt lat="45.12405" lon="5.59201">
        <ele>1018</ele>
        <time>2013-03-03T13:04:06.000Z</time>
      </trkpt>
      <trkpt lat="45.1241" lon="5.59204">
        <ele>1018</ele>
        <time>2013-03-03T13:04:10.000Z</time>
      </trkpt>
      <trkpt lat="45.12413" lon="5.59208">
        <ele>1018</ele>
        <time>2013-03-03T13:04:15.000Z</time>
      </trkpt>
      <trkpt lat="45.12416" lon="5.59214">
        <ele>1018</ele>
        <time>2013-03-03T13:04:21.000Z</time>
      </trkpt>
      <trkpt lat="45.12421" lon="5.59214">
        <ele>1018</ele>
        <time>2013-03-03T13:04:33.000Z</time>
      </trkpt>
      <trkpt lat="45.12421" lon="5.59214">
        <ele>1018</ele>
        <time>2013-03-03T13:04:33.000Z</time>
      </trkpt>
      <trkpt lat="45.12421" lon="5.59214">
        <ele>1018</ele>
        <time>2013-03-03T13:04:36.000Z</time>
      </trkpt>
      <trkpt lat="45.12418" lon="5.59219">
        <ele>1018</ele>
        <time>2013-03-03T13:13:06.000Z</time>
      </trkpt>
      <trkpt lat="45.12421" lon="5.59225">
        <ele>1018</ele>
        <time>2013-03-03T13:13:08.000Z</time>
      </trkpt>
      <trkpt lat="45.12425" lon="5.59232">
        <ele>1018</ele>
        <time>2013-03-03T13:13:10.000Z</time>
      </trkpt>
      <trkpt lat="45.12429" lon="5.5924">
        <ele>1018</ele>
        <time>2013-03-03T13:13:12.000Z</time>
      </trkpt>
      <trkpt lat="45.12433" lon="5.59243">
        <ele>1018</ele>
        <time>2013-03-03T13:13:14.000Z</time>
      </trkpt>
      <trkpt lat="45.12438" lon="5.59244">
        <ele>1018</ele>
        <time>2013-03-03T13:13:18.000Z</time>
      </trkpt>
      <trkpt lat="45.12442" lon="5.59249">
        <ele>1018</ele>
        <time>2013-03-03T13:13:25.000Z</time>
      </trkpt>
      <trkpt lat="45.12444" lon="5.59255">
        <ele>1019</ele>
        <time>2013-03-03T13:13:28.000Z</time>
      </trkpt>
      <trkpt lat="45.12446" lon="5.59264">
        <ele>1019</ele>
        <time>2013-03-03T13:13:30.000Z</time>
      </trkpt>
      <trkpt lat="45.12447" lon="5.59276">
        <ele>1020</ele>
        <time>2013-03-03T13:13:32.000Z</time>
      </trkpt>
      <trkpt lat="45.12448" lon="5.59283">
        <ele>1020</ele>
        <time>2013-03-03T13:13:33.000Z</time>
      </trkpt>
      <trkpt lat="45.12448" lon="5.59292">
        <ele>1020</ele>
        <time>2013-03-03T13:13:34.000Z</time>
      </trkpt>
      <trkpt lat="45.1245" lon="5.59301">
        <ele>1020</ele>
        <time>2013-03-03T13:13:35.000Z</time>
      </trkpt>
      <trkpt lat="45.12454" lon="5.5931">
        <ele>1020</ele>
        <time>2013-03-03T13:13:36.000Z</time>
      </trkpt>
      <trkpt lat="45.12457" lon="5.59319">
        <ele>1020</ele>
        <time>2013-03-03T13:13:37.000Z</time>
      </trkpt>
      <trkpt lat="45.12463" lon="5.59328">
        <ele>1021</ele>
        <time>2013-03-03T13:13:38.000Z</time>
      </trkpt>
      <trkpt lat="45.12468" lon="5.59336">
        <ele>1024</ele>
        <time>2013-03-03T13:13:39.000Z</time>
      </trkpt>
      <trkpt lat="45.12475" lon="5.59346">
        <ele>1024</ele>
        <time>2013-03-03T13:13:40.000Z</time>
      </trkpt>
      <trkpt lat="45.12483" lon="5.59355">
        <ele>1024</ele>
        <time>2013-03-03T13:13:41.000Z</time>
      </trkpt>
      <trkpt lat="45.1249" lon="5.59364">
        <ele>1025</ele>
        <time>2013-03-03T13:13:42.000Z</time>
      </trkpt>
      <trkpt lat="45.12499" lon="5.59372">
        <ele>1025</ele>
        <time>2013-03-03T13:13:43.000Z</time>
      </trkpt>
      <trkpt lat="45.12505" lon="5.59383">
        <ele>1026</ele>
        <time>2013-03-03T13:13:44.000Z</time>
      </trkpt>
      <trkpt lat="45.1251" lon="5.59393">
        <ele>1027</ele>
        <time>2013-03-03T13:13:45.000Z</time>
      </trkpt>
      <trkpt lat="45.12517" lon="5.59402">
        <ele>1027</ele>
        <time>2013-03-03T13:13:46.000Z</time>
      </trkpt>
    </trkseg>
  </trk>
</gpx>